[[{"header":{"parameterUnit":"m.s-1","parameterCategory":1,"la1":31.0,"la2":29.5877,"lo1":-88.7671,"lo2":-86.6584,"dy":0.0162,"dx":0.0185,"nx":115,"ny":88,"refTime":"2026-04-01T12:00:00:Z","depth":0,"parameterNumber":2,"parameterNumberName":"U-component_of_WINDS"},"data":[0.0,0.0,0.0,0.0,0.0,0.0,0.0,0.0,0.0,0.0,0.0,0.0,0.0,0.0,0.0,0.0,0.0,0.0,0.0,0.0,0.0,0.0,0.0,0.0,0.0,0.0,0.0,0.0,0.0,0.0,0.0,0.0,0.0,0.0,0.0,0.0,0.0,0.0,0.0,0.0,0.0,0.0,0.0,0.0,0.0,0.0,0.0,0.0,0.0,0.0,0.0,0.0,0.0,0.0,0.0,0.0,0.0,0.0,0.0,0.0,0.0,0.0,0.0,0.0,0.0,0.0,0.0,0.0,0.0,0.0,0.0,0.0,0.0,0.0,0.0,0.0,0.0,0.0,0.0,0.0,0.0,0.0,0.0,0.0,0.0,0.0,0.0,0.0,0.0,0.0,0.0,0.0,0.0,0.0,0.0,0.0,0.0,0.0,0.0,0.0,0.0,0.0,0.0,0.0,0.0,0.0,0.0,0.0,0.0,0.0,0.0,0.0,0.0,0.0,0.0,0.0,0.0,0.0,0.0,0.0,0.0,0.0,0.0,0.0,0.0,0.0,0.0,0.0,0.0,0.0,0.0,0.0,0.0,0.0,0.0,0.0,0.0,0.0,0.0,0.0,0.0,0.0,0.0,0.0,0.0,0.0,0.0,0.0,0.0,0.0,0.0,0.0,0.0,0.0,0.0,0.0,0.0,0.0,0.0,0.0,0.0,0.0,0.0,0.0,0.0,0.0,0.0,0.0,0.0,0.0,0.0,0.0,0.0,0.0,0.0,0.0,0.0,0.0,0.0,0.0,0.0,0.0,0.0,0.0,0.0,0.0,0.0,0.0,0.0,0.0,0.0,0.0,0.0,0.0,0.0,0.0,0.0,0.0,0.0,0.0,0.0,0.0,0.0,0.0,0.0,0.0,0.0,0.0,0.0,0.0,0.0,0.0,0.0,0.0,0.0,0.0,0.0,0.0,0.0,0.0,0.0,0.0,0.0,0.0,0.0,0.0,0.0,0.0,0.0,0.0,0.0,0.0,0.0,0.0,0.0,0.0,0.0,0.0,0.0,0.0,0.0,0.0,0.0,0.0,0.0,0.0,0.0,0.0,0.0,0.0,0.0,0.0,0.0,0.0,0.0,0.0,0.0,0.0,0.0,0.0,0.0,0.0,0.0,0.0,0.0,0.0,0.0,0.0,0.0,0.0,0.0,0.0,0.0,0.0,0.0,0.0,0.0,0.0,0.0,0.0,0.0,0.0,0.0,0.0,0.0,0.0,0.0,0.0,0.0,0.0,0.0,0.0,0.0,0.0,0.0,0.0,0.0,0.0,0.0,0.0,0.0,0.0,0.0,0.0,0.0,0.0,0.0,0.0,0.0,0.0,0.0,0.0,0.0,0.0,0.0,0.0,0.0,0.0,0.0,0.0,0.0,0.0,0.0,0.0,0.0,0.0,0.0,0.0,0.0,0.0,0.0,0.0,0.0,0.0,0.0,0.0,0.0,0.0,0.0,0.0,0.0,0.0,0.0,0.0,0.0,0.0,0.0,0.0,0.0,0.0,0.0,0.0,0.0,0.0,0.0,0.0,0.0,0.0,0.0,0.0,0.0,0.0,0.0,0.0,0.0,0.0,0.0,0.0,0.0,0.0,0.0,0.0,0.0,0.0,0.0,0.0,0.0,0.0,0.0,0.0,0.0,0.0,0.0,0.0,0.0,0.0,0.0,0.0,0.0,0.0,0.0,0.0,0.0,0.0,0.0,0.0,0.0,0.0,0.0,0.0,0.0,0.0,0.0,0.0,0.0,0.0,0.0,0.0,0.0,0.0,0.0,0.0,0.0,0.0,0.0,0.0,0.0,0.0,0.0,0.0,0.0,0.0,0.0,0.0,0.0,0.0,0.0,0.0,0.0,0.0,0.0,0.0,0.0,0.0,0.0,0.0,0.0,0.0,0.0,0.0,0.0,0.0,0.0,0.0,0.0,0.0,0.0,0.0,0.0,0.0,0.0,0.0,0.0,0.0,0.0,0.0,0.0,0.0,0.0,0.0,0.0,0.0,0.0,0.0,0.0,0.0,0.0,0.0,0.0,0.0,0.0,0.0,0.0,0.0,0.0,0.0,0.0,0.0,0.0,0.0,0.0,0.0,0.0,0.0,0.0,0.0,0.0,0.0,0.0,0.0,0.0,0.0,0.0,0.0,0.0,0.0,0.0,0.0,0.0,0.0,0.0,0.0,0.0,0.0,0.0,0.0,0.0,0.0,0.0,0.0,0.0,0.0,0.0,0.0,0.0,0.0,0.0,0.0,0.0,0.0,0.0,0.0,0.0,0.0,0.0,0.0,0.0,0.0,0.0,0.0,0.0,0.0,0.0,0.0,0.0,0.0,0.0,0.0,0.0,0.0,0.0,0.0,0.0,0.0,0.0,0.0,0.0,0.0,0.0,0.0,0.0,0.0,0.0,0.0,0.0,0.0,0.0,0.0,0.0,0.0,0.0,0.0,0.0,0.0,0.0,0.0,0.0,0.0,0.0,0.0,0.0,0.0,0.0,0.0,0.0,0.0,0.0,0.0,0.0,0.0,0.0,0.0,0.0,0.0,0.0,0.0,0.0,0.0,0.0,0.0,0.0,0.0,0.0,0.0,0.0,0.0,0.0,0.0,0.0,0.0,0.0,0.0,0.0,0.0,0.0,0.0,0.0,0.0,0.0,0.0,0.0,0.0,0.0,0.0,0.0,0.0,0.0,0.0,0.0,0.0,0.0,0.0,0.0,0.0,0.0,0.0,0.0,0.0,0.0,0.0,0.0,0.0,0.0,0.0,0.0,0.0,0.0,0.0,0.0,0.0,0.0,0.0,0.0,0.0,0.0,0.0,0.0,0.0,0.0,0.0,0.0,0.0,0.0,0.0,0.0,0.0,0.0,0.0,0.0,0.0,0.0,0.0,0.0,0.0,0.0,0.0,0.0,0.0,0.0,0.0,0.0,0.0,0.0,0.0,0.0,0.0,0.0,0.0,0.0,0.0,0.0,0.0,0.0,0.0,0.0,0.0,0.0,0.0,0.0,0.0,0.0,0.0,0.0,0.0,0.0,0.0,0.0,0.0,0.0,0.0,0.0,0.0,0.0,0.0,0.0,0.0,0.0,0.0,0.0,0.0,0.0,0.0,0.0,0.0,0.0,0.0,0.0,0.0,0.0,0.0,0.0,0.0,0.0,0.0,0.0,0.0,0.0,0.0,0.0,0.0,0.0,0.0,0.0,0.0,0.0,0.0,0.0,0.0,0.0,0.0,0.0,0.0,0.0,0.0,0.0,0.0,0.0,0.0,0.0,0.0,0.0,0.0,0.0,0.0,0.0,0.0,0.0,0.0,0.0,0.0,0.0,0.0,0.0,0.0,0.0,0.0,0.0,0.0,0.0,0.0,0.0,0.0,0.0,0.0,0.0,0.0,0.0,0.0,0.0,0.0,0.0,0.0,0.0,0.0,0.0,0.0,0.0,0.0,0.0,0.0,0.0,0.0,0.0,0.0,0.0,0.0,0.0,0.0,0.0,0.0,0.0,0.0,0.0,0.0,0.0,0.0,0.0,0.0,0.0,0.0,0.0,0.0,0.0,0.0,0.0,0.0,0.0,0.0,0.0,0.0,0.0,0.0,0.0,0.0,0.0,0.0,0.0,0.0,0.0,0.0,0.0,0.0,0.0,0.0,0.0,0.0,0.0,0.0,0.0,0.0,0.0,0.0,0.0,0.0,0.0,0.0,0.0,0.0,0.0,0.0,0.0,0.0,0.0,0.0,0.0,0.0,0.0,0.0,0.0,0.0,0.0,0.0,0.0,0.0,0.0,0.0,0.0,0.0,0.0,0.0,0.0,0.0,0.0,0.0,0.0,0.0,0.0,0.0,0.0,0.0,0.0,0.0,0.0,0.0,0.0,0.0,0.0,0.0,0.0,0.0,0.0,0.0,0.0,0.0,0.0,0.0,0.0,0.0,0.0,0.0,0.0,0.0,0.0,0.0,0.0,0.0,0.0,0.0,0.0,0.0,0.0,0.0,0.0,0.0,0.0,0.0,0.0,0.0,0.0,0.0,0.0,0.0,0.0,0.0,0.0,0.0,0.0,0.0,0.0,0.0,0.0,0.0,0.0,0.0,0.0,0.0,0.0,0.0,0.0,0.0,0.0,0.0,0.0,0.0,0.0,0.0,0.0,0.0,0.0,0.0,0.0,0.0,0.0,0.0,0.0,0.0,0.0,0.0,0.0,0.0,0.0,0.0,0.0,0.0,0.0,0.0,-5.087,0.0,0.0,0.0,0.0,0.0,0.0,0.0,0.0,0.0,0.0,0.0,0.0,0.0,0.0,0.0,0.0,0.0,0.0,0.0,0.0,0.0,0.0,0.0,0.0,0.0,0.0,0.0,0.0,0.0,0.0,0.0,0.0,0.0,0.0,0.0,0.0,0.0,0.0,0.0,0.0,0.0,0.0,0.0,0.0,0.0,0.0,0.0,0.0,0.0,0.0,0.0,0.0,0.0,0.0,0.0,0.0,0.0,0.0,0.0,0.0,0.0,0.0,0.0,0.0,0.0,0.0,0.0,0.0,0.0,0.0,0.0,0.0,0.0,0.0,0.0,0.0,0.0,0.0,0.0,0.0,0.0,0.0,0.0,0.0,0.0,0.0,0.0,0.0,0.0,0.0,0.0,0.0,0.0,0.0,0.0,0.0,0.0,0.0,0.0,0.0,0.0,0.0,0.0,0.0,0.0,0.0,0.0,0.0,0.0,0.0,-5.074,-5.0825,-5.0883,-5.0939,-5.0945,0.0,0.0,0.0,0.0,0.0,0.0,0.0,0.0,0.0,0.0,0.0,0.0,0.0,0.0,0.0,0.0,0.0,0.0,0.0,0.0,0.0,0.0,0.0,0.0,0.0,0.0,0.0,0.0,0.0,0.0,0.0,0.0,0.0,0.0,0.0,0.0,0.0,0.0,0.0,0.0,0.0,0.0,0.0,0.0,0.0,0.0,0.0,0.0,0.0,0.0,0.0,0.0,0.0,0.0,0.0,0.0,0.0,0.0,0.0,0.0,0.0,0.0,0.0,0.0,0.0,0.0,0.0,0.0,0.0,0.0,0.0,0.0,0.0,0.0,0.0,0.0,0.0,0.0,0.0,0.0,0.0,0.0,0.0,0.0,0.0,0.0,0.0,0.0,0.0,0.0,0.0,0.0,0.0,0.0,0.0,0.0,0.0,0.0,0.0,0.0,0.0,0.0,0.0,0.0,0.0,0.0,0.0,0.0,0.0,0.0,0.0,0.0,-5.0912,-5.0803,-5.0486,0.0,0.0,0.0,0.0,0.0,0.0,0.0,0.0,0.0,0.0,0.0,0.0,0.0,0.0,0.0,0.0,0.0,0.0,0.0,0.0,0.0,0.0,0.0,0.0,0.0,0.0,0.0,0.0,0.0,0.0,0.0,0.0,0.0,0.0,0.0,0.0,0.0,0.0,0.0,0.0,0.0,0.0,0.0,0.0,0.0,0.0,0.0,0.0,0.0,0.0,0.0,0.0,0.0,0.0,0.0,0.0,0.0,0.0,0.0,0.0,0.0,0.0,0.0,0.0,0.0,0.0,0.0,0.0,0.0,0.0,0.0,0.0,0.0,0.0,0.0,0.0,0.0,0.0,0.0,0.0,0.0,0.0,0.0,0.0,0.0,0.0,0.0,0.0,0.0,0.0,0.0,0.0,0.0,0.0,0.0,0.0,0.0,0.0,0.0,0.0,0.0,0.0,0.0,0.0,0.0,0.0,0.0,0.0,0.0,0.0,-5.0766,-5.0901,-5.1022,0.0,-4.8846,0.0,0.0,0.0,0.0,0.0,0.0,0.0,0.0,0.0,0.0,0.0,0.0,0.0,0.0,0.0,0.0,0.0,0.0,0.0,0.0,0.0,0.0,0.0,0.0,0.0,0.0,0.0,0.0,0.0,0.0,0.0,0.0,0.0,0.0,0.0,0.0,0.0,0.0,0.0,0.0,0.0,0.0,0.0,0.0,0.0,0.0,0.0,0.0,0.0,0.0,0.0,0.0,0.0,0.0,0.0,0.0,0.0,0.0,0.0,0.0,0.0,0.0,0.0,0.0,0.0,0.0,0.0,0.0,0.0,0.0,0.0,0.0,0.0,0.0,0.0,0.0,0.0,0.0,0.0,0.0,0.0,0.0,0.0,0.0,0.0,0.0,0.0,0.0,0.0,0.0,0.0,0.0,0.0,0.0,0.0,0.0,0.0,0.0,0.0,0.0,0.0,0.0,0.0,0.0,0.0,0.0,0.0,0.0,0.0,0.0,-5.0797,-5.0996,-5.0582,-4.9741,0.0,0.0,0.0,0.0,0.0,0.0,0.0,0.0,0.0,0.0,0.0,0.0,0.0,0.0,0.0,0.0,0.0,0.0,0.0,0.0,0.0,0.0,0.0,0.0,0.0,0.0,0.0,0.0,0.0,0.0,0.0,0.0,0.0,0.0,0.0,0.0,0.0,0.0,0.0,0.0,0.0,0.0,0.0,0.0,0.0,0.0,0.0,0.0,0.0,0.0,0.0,0.0,0.0,0.0,0.0,0.0,0.0,0.0,0.0,0.0,0.0,0.0,0.0,0.0,0.0,0.0,0.0,0.0,0.0,0.0,0.0,0.0,0.0,0.0,0.0,0.0,0.0,0.0,0.0,0.0,0.0,0.0,0.0,0.0,0.0,0.0,0.0,0.0,0.0,0.0,0.0,0.0,0.0,0.0,0.0,0.0,0.0,0.0,0.0,0.0,0.0,0.0,0.0,0.0,0.0,0.0,0.0,0.0,0.0,0.0,-5.0493,-5.0819,-5.1054,-5.0508,-4.9664,-4.8524,0.0,0.0,0.0,0.0,0.0,0.0,0.0,0.0,0.0,0.0,0.0,0.0,0.0,0.0,0.0,0.0,0.0,0.0,0.0,0.0,0.0,0.0,0.0,0.0,0.0,0.0,0.0,0.0,0.0,0.0,0.0,0.0,0.0,0.0,0.0,0.0,0.0,0.0,0.0,0.0,0.0,0.0,0.0,0.0,0.0,0.0,0.0,0.0,0.0,0.0,0.0,0.0,0.0,0.0,0.0,0.0,0.0,0.0,0.0,0.0,0.0,0.0,0.0,0.0,0.0,0.0,0.0,0.0,0.0,0.0,0.0,0.0,0.0,0.0,0.0,0.0,0.0,0.0,0.0,0.0,0.0,0.0,0.0,0.0,0.0,0.0,0.0,0.0,0.0,0.0,0.0,0.0,0.0,0.0,0.0,0.0,0.0,0.0,0.0,0.0,0.0,0.0,0.0,0.0,0.0,0.0,0.0,0.0,-5.0111,-5.0493,-5.0839,-5.1084,-5.1119,-5.0309,0.0,0.0,0.0,0.0,0.0,0.0,0.0,0.0,0.0,0.0,0.0,0.0,0.0,0.0,0.0,0.0,0.0,0.0,0.0,0.0,0.0,0.0,0.0,0.0,0.0,0.0,0.0,0.0,0.0,0.0,0.0,0.0,0.0,0.0,0.0,0.0,0.0,0.0,0.0,0.0,0.0,0.0,0.0,0.0,0.0,0.0,0.0,0.0,0.0,0.0,0.0,0.0,0.0,0.0,0.0,0.0,0.0,0.0,0.0,0.0,0.0,0.0,0.0,0.0,0.0,0.0,0.0,0.0,0.0,0.0,0.0,0.0,0.0,0.0,0.0,0.0,0.0,0.0,0.0,0.0,0.0,0.0,0.0,0.0,0.0,0.0,0.0,0.0,0.0,0.0,0.0,0.0,0.0,0.0,0.0,0.0,0.0,0.0,0.0,0.0,0.0,0.0,0.0,0.0,0.0,0.0,0.0,0.0,0.0,-4.9741,-5.0508,-5.1004,-5.1069,-5.0128,-4.9243,0.0,0.0,0.0,0.0,0.0,0.0,0.0,0.0,0.0,0.0,0.0,0.0,0.0,0.0,0.0,0.0,0.0,0.0,0.0,0.0,0.0,0.0,0.0,0.0,0.0,0.0,0.0,0.0,0.0,0.0,0.0,0.0,0.0,0.0,0.0,0.0,0.0,0.0,0.0,0.0,0.0,0.0,0.0,0.0,0.0,0.0,0.0,0.0,0.0,0.0,0.0,0.0,0.0,0.0,0.0,0.0,0.0,0.0,0.0,0.0,0.0,0.0,0.0,0.0,0.0,0.0,0.0,0.0,0.0,0.0,0.0,0.0,0.0,0.0,0.0,0.0,0.0,0.0,0.0,0.0,0.0,0.0,0.0,0.0,0.0,0.0,0.0,0.0,0.0,0.0,0.0,0.0,0.0,0.0,0.0,0.0,0.0,0.0,0.0,0.0,0.0,0.0,0.0,0.0,0.0,0.0,0.0,0.0,0.0,-4.9905,0.0,-5.1094,-5.106,-4.9862,-4.8974,0.0,0.0,0.0,0.0,0.0,0.0,0.0,0.0,0.0,0.0,0.0,0.0,0.0,0.0,0.0,0.0,0.0,0.0,0.0,0.0,0.0,0.0,0.0,0.0,0.0,0.0,0.0,0.0,0.0,0.0,0.0,0.0,0.0,0.0,0.0,0.0,0.0,0.0,0.0,0.0,0.0,0.0,0.0,0.0,0.0,0.0,0.0,0.0,0.0,0.0,0.0,0.0,0.0,0.0,0.0,0.0,0.0,0.0,0.0,0.0,0.0,0.0,0.0,0.0,0.0,0.0,0.0,0.0,0.0,0.0,0.0,0.0,0.0,0.0,0.0,0.0,0.0,0.0,0.0,0.0,0.0,0.0,0.0,0.0,0.0,0.0,0.0,0.0,0.0,0.0,0.0,0.0,0.0,0.0,0.0,0.0,0.0,0.0,0.0,0.0,0.0,0.0,0.0,0.0,0.0,0.0,0.0,0.0,-4.9885,-5.0673,-5.092,-5.1059,-5.1094,-5.0461,-4.9651,0.0,0.0,0.0,0.0,0.0,0.0,0.0,0.0,0.0,0.0,0.0,0.0,0.0,0.0,0.0,0.0,0.0,0.0,0.0,0.0,0.0,0.0,0.0,0.0,0.0,0.0,0.0,0.0,0.0,0.0,0.0,0.0,0.0,0.0,0.0,0.0,0.0,0.0,0.0,0.0,0.0,0.0,0.0,0.0,0.0,0.0,0.0,0.0,0.0,0.0,0.0,0.0,0.0,0.0,0.0,0.0,0.0,0.0,0.0,0.0,0.0,0.0,0.0,0.0,0.0,0.0,0.0,0.0,0.0,0.0,0.0,0.0,0.0,0.0,0.0,0.0,0.0,0.0,0.0,0.0,0.0,0.0,0.0,0.0,0.0,0.0,0.0,0.0,0.0,0.0,0.0,0.0,0.0,0.0,0.0,0.0,0.0,0.0,0.0,0.0,0.0,0.0,0.0,0.0,0.0,0.0,0.0,0.0,0.0,-5.0654,-5.06,-5.071,-5.105,-5.0425,-4.9557,0.0,0.0,0.0,0.0,0.0,0.0,0.0,0.0,0.0,0.0,0.0,0.0,0.0,0.0,0.0,0.0,0.0,0.0,0.0,0.0,0.0,0.0,0.0,0.0,0.0,0.0,0.0,0.0,0.0,0.0,0.0,0.0,0.0,0.0,0.0,0.0,0.0,0.0,0.0,0.0,0.0,0.0,0.0,0.0,0.0,0.0,0.0,0.0,0.0,0.0,0.0,0.0,0.0,0.0,0.0,0.0,0.0,0.0,0.0,0.0,0.0,0.0,0.0,0.0,0.0,0.0,0.0,0.0,0.0,0.0,0.0,0.0,0.0,0.0,0.0,0.0,0.0,0.0,0.0,0.0,0.0,0.0,0.0,0.0,0.0,0.0,0.0,0.0,0.0,0.0,0.0,0.0,0.0,0.0,0.0,0.0,0.0,0.0,0.0,0.0,0.0,0.0,0.0,0.0,0.0,0.0,0.0,0.0,0.0,-5.1801,-5.1133,-5.1136,-5.1954,-5.0921,-4.9746,-4.8471,0.0,0.0,0.0,0.0,0.0,0.0,0.0,0.0,0.0,0.0,0.0,0.0,0.0,0.0,0.0,0.0,0.0,0.0,0.0,0.0,0.0,0.0,0.0,0.0,0.0,0.0,0.0,0.0,0.0,0.0,0.0,0.0,0.0,0.0,0.0,0.0,0.0,0.0,0.0,0.0,0.0,0.0,0.0,0.0,0.0,0.0,0.0,0.0,0.0,0.0,0.0,0.0,0.0,0.0,0.0,0.0,0.0,0.0,0.0,0.0,0.0,0.0,0.0,0.0,0.0,0.0,0.0,0.0,0.0,0.0,0.0,0.0,0.0,0.0,0.0,0.0,0.0,0.0,0.0,0.0,0.0,0.0,0.0,0.0,0.0,0.0,0.0,0.0,0.0,0.0,0.0,0.0,0.0,0.0,0.0,0.0,0.0,0.0,0.0,0.0,0.0,0.0,0.0,0.0,0.0,0.0,0.0,0.0,-5.4013,-5.2587,-5.2387,-5.3495,-5.2039,-5.0328,0.0,0.0,0.0,0.0,0.0,0.0,0.0,0.0,0.0,0.0,0.0,0.0,0.0,0.0,0.0,0.0,0.0,0.0,0.0,0.0,0.0,0.0,0.0,0.0,0.0,0.0,0.0,0.0,0.0,0.0,0.0,0.0,0.0,0.0,0.0,0.0,0.0,0.0,0.0,0.0,0.0,0.0,0.0,0.0,0.0,0.0,0.0,0.0,0.0,0.0,0.0,0.0,0.0,0.0,0.0,0.0,0.0,0.0,0.0,0.0,0.0,0.0,0.0,0.0,0.0,0.0,0.0,0.0,0.0,0.0,0.0,0.0,0.0,0.0,0.0,0.0,0.0,0.0,0.0,0.0,0.0,0.0,0.0,0.0,0.0,0.0,0.0,0.0,0.0,0.0,0.0,0.0,0.0,0.0,0.0,0.0,0.0,0.0,0.0,0.0,0.0,0.0,0.0,0.0,0.0,0.0,0.0,0.0,0.0,-5.5904,-5.575,-5.5454,-5.5236,-5.4262,-5.263,0.0,0.0,0.0,0.0,0.0,0.0,0.0,0.0,0.0,0.0,0.0,0.0,0.0,0.0,0.0,0.0,0.0,0.0,0.0,0.0,0.0,0.0,0.0,0.0,0.0,0.0,0.0,0.0,0.0,0.0,0.0,0.0,0.0,0.0,0.0,0.0,0.0,0.0,0.0,0.0,0.0,0.0,0.0,0.0,0.0,0.0,0.0,0.0,0.0,0.0,0.0,0.0,0.0,0.0,0.0,0.0,0.0,0.0,0.0,0.0,0.0,0.0,0.0,0.0,0.0,0.0,0.0,0.0,0.0,0.0,0.0,0.0,0.0,0.0,0.0,0.0,0.0,0.0,0.0,0.0,0.0,0.0,0.0,0.0,0.0,0.0,0.0,0.0,0.0,0.0,0.0,0.0,0.0,0.0,0.0,0.0,0.0,0.0,0.0,0.0,0.0,0.0,0.0,0.0,0.0,0.0,0.0,0.0,-5.321,-5.6082,-5.7716,-5.8098,-5.7137,-5.6174,-5.4137,0.0,0.0,0.0,0.0,0.0,0.0,0.0,0.0,0.0,0.0,0.0,0.0,0.0,0.0,0.0,0.0,0.0,0.0,0.0,0.0,0.0,0.0,0.0,0.0,0.0,0.0,0.0,0.0,0.0,0.0,0.0,0.0,0.0,0.0,0.0,0.0,0.0,0.0,0.0,0.0,0.0,0.0,0.0,0.0,0.0,0.0,0.0,0.0,0.0,0.0,0.0,0.0,0.0,0.0,0.0,0.0,0.0,0.0,0.0,0.0,0.0,0.0,0.0,0.0,0.0,0.0,0.0,0.0,0.0,0.0,0.0,0.0,0.0,0.0,0.0,0.0,0.0,0.0,0.0,0.0,0.0,0.0,0.0,0.0,0.0,0.0,0.0,0.0,0.0,0.0,0.0,0.0,0.0,0.0,0.0,0.0,0.0,0.0,0.0,0.0,0.0,0.0,0.0,0.0,0.0,0.0,0.0,0.0,-5.3918,-5.5416,-5.882,-6.0013,-5.8777,-5.7601,-5.5107,0.0,0.0,0.0,0.0,0.0,0.0,0.0,0.0,0.0,0.0,0.0,0.0,0.0,0.0,0.0,0.0,0.0,0.0,0.0,0.0,0.0,0.0,0.0,0.0,0.0,0.0,0.0,0.0,0.0,0.0,0.0,0.0,0.0,0.0,0.0,0.0,0.0,0.0,0.0,0.0,0.0,0.0,0.0,0.0,0.0,0.0,0.0,0.0,0.0,0.0,0.0,0.0,0.0,0.0,0.0,0.0,0.0,0.0,0.0,0.0,0.0,0.0,0.0,0.0,0.0,0.0,0.0,0.0,0.0,0.0,0.0,0.0,0.0,0.0,0.0,0.0,0.0,0.0,0.0,0.0,0.0,0.0,0.0,0.0,0.0,0.0,0.0,0.0,0.0,0.0,0.0,0.0,0.0,0.0,0.0,0.0,0.0,0.0,0.0,0.0,0.0,0.0,0.0,0.0,0.0,0.0,0.0,0.0,-5.4556,-5.7339,-5.9192,-5.9534,-5.8287,-5.7436,-5.5645,0.0,0.0,0.0,0.0,0.0,0.0,0.0,0.0,0.0,0.0,0.0,0.0,0.0,0.0,0.0,0.0,0.0,0.0,0.0,0.0,0.0,0.0,0.0,0.0,0.0,0.0,0.0,0.0,0.0,0.0,0.0,0.0,0.0,0.0,0.0,0.0,0.0,0.0,0.0,0.0,0.0,0.0,0.0,0.0,0.0,0.0,0.0,0.0,-4.7146,0.0,0.0,0.0,0.0,0.0,0.0,0.0,0.0,0.0,0.0,0.0,0.0,0.0,0.0,0.0,0.0,0.0,0.0,0.0,0.0,0.0,0.0,0.0,0.0,0.0,0.0,0.0,0.0,0.0,0.0,0.0,0.0,0.0,0.0,0.0,0.0,0.0,0.0,0.0,0.0,0.0,0.0,0.0,0.0,0.0,0.0,0.0,0.0,0.0,0.0,0.0,0.0,0.0,0.0,0.0,0.0,0.0,0.0,0.0,-5.4228,-5.6314,-5.8354,-5.8852,-5.781,-5.7225,-5.5676,0.0,0.0,0.0,0.0,0.0,0.0,0.0,0.0,0.0,0.0,0.0,0.0,0.0,0.0,0.0,0.0,0.0,0.0,0.0,0.0,0.0,0.0,0.0,0.0,0.0,0.0,0.0,0.0,0.0,0.0,0.0,0.0,0.0,0.0,0.0,0.0,0.0,0.0,0.0,0.0,0.0,0.0,0.0,0.0,0.0,0.0,0.0,0.0,0.0,0.0,0.0,0.0,0.0,0.0,0.0,0.0,0.0,0.0,0.0,0.0,0.0,0.0,0.0,0.0,0.0,0.0,0.0,0.0,0.0,0.0,0.0,0.0,0.0,0.0,0.0,0.0,0.0,0.0,0.0,0.0,0.0,0.0,0.0,0.0,0.0,0.0,0.0,0.0,0.0,0.0,0.0,0.0,0.0,0.0,0.0,0.0,0.0,0.0,0.0,0.0,0.0,0.0,0.0,0.0,0.0,0.0,0.0,-5.1573,-5.3463,-5.4712,-5.7124,-5.8041,-5.7247,-5.6836,-5.5328,-5.2732,0.0,0.0,0.0,0.0,0.0,0.0,0.0,0.0,0.0,0.0,0.0,0.0,0.0,0.0,0.0,0.0,0.0,0.0,0.0,0.0,0.0,0.0,0.0,0.0,0.0,0.0,0.0,0.0,0.0,0.0,0.0,0.0,0.0,0.0,0.0,0.0,0.0,0.0,-4.3299,-4.5462,0.0,0.0,0.0,0.0,0.0,0.0,0.0,0.0,-4.6358,0.0,0.0,0.0,0.0,0.0,0.0,0.0,0.0,0.0,0.0,0.0,0.0,0.0,0.0,0.0,0.0,0.0,0.0,0.0,0.0,0.0,0.0,0.0,0.0,0.0,0.0,0.0,0.0,0.0,0.0,0.0,0.0,0.0,0.0,0.0,0.0,0.0,0.0,0.0,0.0,0.0,0.0,0.0,0.0,0.0,0.0,0.0,0.0,0.0,0.0,0.0,0.0,0.0,0.0,0.0,0.0,-5.0661,-5.1193,-5.2756,-5.5431,-5.6619,-5.6951,-5.6485,-5.5723,-5.4464,-5.2701,0.0,0.0,0.0,0.0,0.0,0.0,0.0,0.0,0.0,0.0,0.0,0.0,0.0,0.0,0.0,0.0,0.0,0.0,0.0,0.0,0.0,0.0,0.0,0.0,0.0,0.0,0.0,0.0,0.0,0.0,0.0,0.0,0.0,0.0,0.0,0.0,0.0,0.0,0.0,-4.5633,-4.61,0.0,0.0,0.0,0.0,0.0,0.0,0.0,0.0,-4.5904,0.0,0.0,0.0,0.0,0.0,0.0,0.0,0.0,0.0,0.0,0.0,0.0,0.0,0.0,0.0,0.0,0.0,0.0,0.0,0.0,0.0,0.0,0.0,0.0,0.0,0.0,0.0,0.0,0.0,0.0,0.0,0.0,0.0,0.0,0.0,0.0,0.0,0.0,0.0,0.0,0.0,0.0,0.0,0.0,0.0,0.0,0.0,0.0,0.0,0.0,0.0,0.0,0.0,0.0,0.0,-5.0501,-5.2049,-5.3757,-5.5639,-5.6503,-5.6822,-5.6612,-5.5405,-5.428,0.0,0.0,0.0,0.0,0.0,0.0,0.0,0.0,0.0,0.0,0.0,0.0,0.0,0.0,0.0,0.0,0.0,0.0,0.0,0.0,0.0,0.0,0.0,0.0,0.0,0.0,0.0,0.0,0.0,0.0,0.0,0.0,0.0,0.0,0.0,0.0,0.0,0.0,0.0,0.0,-4.5174,-4.59,-4.5494,0.0,0.0,0.0,0.0,0.0,0.0,-4.4983,-4.4448,0.0,0.0,0.0,0.0,0.0,0.0,0.0,0.0,0.0,0.0,0.0,0.0,0.0,0.0,0.0,0.0,0.0,0.0,0.0,0.0,0.0,0.0,0.0,0.0,0.0,0.0,0.0,0.0,0.0,0.0,0.0,0.0,0.0,0.0,0.0,0.0,0.0,0.0,0.0,0.0,0.0,0.0,0.0,0.0,0.0,0.0,0.0,0.0,0.0,0.0,0.0,0.0,0.0,0.0,0.0,-5.0127,-5.2666,-5.4478,-5.5458,-5.6243,-5.6567,-5.6412,-5.486,-5.374,0.0,0.0,0.0,0.0,0.0,0.0,0.0,0.0,0.0,0.0,0.0,0.0,0.0,0.0,0.0,0.0,0.0,0.0,0.0,0.0,0.0,0.0,0.0,0.0,0.0,0.0,0.0,0.0,0.0,0.0,0.0,0.0,0.0,0.0,0.0,0.0,0.0,0.0,0.0,0.0,0.0,-4.565,-4.5791,-4.5265,0.0,0.0,0.0,0.0,-4.4883,-4.3908,0.0,0.0,0.0,0.0,0.0,0.0,0.0,0.0,0.0,0.0,0.0,0.0,0.0,0.0,0.0,0.0,0.0,0.0,0.0,0.0,0.0,0.0,0.0,0.0,0.0,0.0,0.0,0.0,0.0,0.0,0.0,0.0,0.0,0.0,0.0,0.0,0.0,0.0,0.0,0.0,0.0,0.0,0.0,0.0,0.0,0.0,0.0,0.0,0.0,0.0,0.0,0.0,0.0,0.0,0.0,0.0,-5.0065,-5.1732,-5.3259,-5.4669,-5.5464,-5.5508,-5.4861,-5.3184,-5.1927,0.0,0.0,0.0,0.0,0.0,0.0,0.0,0.0,0.0,0.0,0.0,0.0,0.0,0.0,0.0,0.0,0.0,0.0,0.0,0.0,0.0,0.0,0.0,0.0,0.0,0.0,0.0,0.0,0.0,0.0,0.0,0.0,0.0,0.0,0.0,0.0,0.0,0.0,0.0,0.0,0.0,-4.4836,-4.3638,-4.3215,-4.2775,0.0,0.0,-4.4373,-4.5136,-4.5753,0.0,0.0,0.0,0.0,0.0,0.0,0.0,0.0,0.0,0.0,0.0,0.0,0.0,0.0,0.0,0.0,0.0,0.0,0.0,0.0,0.0,0.0,0.0,0.0,0.0,0.0,0.0,0.0,0.0,0.0,0.0,0.0,0.0,0.0,0.0,0.0,0.0,0.0,0.0,0.0,0.0,0.0,0.0,0.0,0.0,0.0,0.0,0.0,0.0,0.0,0.0,0.0,0.0,0.0,0.0,-4.8308,-5.0118,-5.2824,-5.4549,-5.5209,-5.5519,-5.5355,-5.4624,-5.2155,-5.0835,0.0,0.0,0.0,0.0,0.0,0.0,0.0,0.0,0.0,0.0,0.0,0.0,0.0,0.0,0.0,0.0,0.0,0.0,0.0,0.0,0.0,0.0,0.0,0.0,0.0,0.0,0.0,0.0,0.0,0.0,0.0,0.0,0.0,0.0,0.0,0.0,0.0,0.0,0.0,0.0,0.0,0.0,-4.443,-4.3566,0.0,0.0,0.0,-4.2853,-4.2702,0.0,0.0,0.0,0.0,0.0,0.0,0.0,0.0,0.0,0.0,0.0,0.0,0.0,0.0,0.0,0.0,0.0,0.0,0.0,0.0,0.0,0.0,0.0,0.0,0.0,0.0,0.0,0.0,0.0,0.0,0.0,0.0,0.0,0.0,0.0,0.0,0.0,0.0,0.0,0.0,0.0,0.0,0.0,0.0,0.0,0.0,0.0,0.0,0.0,0.0,0.0,0.0,0.0,0.0,0.0,0.0,0.0,-4.9733,-5.2952,-5.4718,-5.4901,-5.4734,-5.4425,-5.389,-5.1291,0.0,0.0,0.0,0.0,0.0,0.0,0.0,0.0,0.0,0.0,0.0,0.0,0.0,0.0,0.0,0.0,0.0,0.0,0.0,0.0,0.0,0.0,0.0,0.0,0.0,0.0,0.0,-3.5166,0.0,0.0,0.0,0.0,0.0,0.0,0.0,0.0,0.0,0.0,0.0,0.0,0.0,0.0,-4.4042,-4.4383,-4.3451,-4.2724,0.0,0.0,-4.1707,-4.1103,-4.2475,-4.2843,0.0,0.0,0.0,0.0,0.0,0.0,0.0,0.0,0.0,0.0,0.0,0.0,0.0,0.0,0.0,0.0,0.0,0.0,0.0,0.0,0.0,0.0,0.0,0.0,0.0,0.0,0.0,0.0,0.0,0.0,0.0,0.0,0.0,0.0,0.0,0.0,0.0,0.0,0.0,0.0,0.0,0.0,0.0,0.0,0.0,0.0,0.0,0.0,0.0,0.0,0.0,0.0,0.0,0.0,0.0,-4.8607,-5.0702,-5.2136,-5.2668,-5.2112,-5.1864,-5.2032,-5.0442,-4.8988,0.0,0.0,0.0,0.0,0.0,0.0,0.0,0.0,0.0,0.0,0.0,0.0,0.0,0.0,0.0,0.0,0.0,0.0,0.0,0.0,0.0,0.0,0.0,0.0,0.0,0.0,0.0,0.0,0.0,0.0,0.0,0.0,0.0,0.0,0.0,0.0,0.0,0.0,0.0,0.0,0.0,-4.2563,-4.1953,-4.1666,-4.1751,0.0,-4.212,-4.1815,-4.1835,-4.3597,-4.367,-3.9598,0.0,0.0,0.0,0.0,0.0,0.0,0.0,0.0,0.0,0.0,0.0,0.0,0.0,0.0,0.0,0.0,0.0,0.0,0.0,0.0,0.0,0.0,0.0,0.0,0.0,0.0,0.0,0.0,0.0,0.0,0.0,0.0,0.0,0.0,0.0,0.0,0.0,0.0,0.0,0.0,0.0,0.0,0.0,0.0,0.0,0.0,0.0,0.0,0.0,0.0,0.0,0.0,0.0,-4.634,-4.7766,-5.0225,-5.1836,-5.2453,-5.1868,-5.1334,-5.0984,-4.9082,-4.7622,0.0,0.0,0.0,0.0,0.0,0.0,0.0,0.0,0.0,0.0,0.0,0.0,0.0,0.0,0.0,0.0,0.0,0.0,0.0,0.0,0.0,0.0,0.0,0.0,0.0,0.0,0.0,0.0,-3.6618,-3.628,-3.5444,0.0,0.0,0.0,0.0,0.0,0.0,0.0,0.0,0.0,0.0,-3.9757,-4.0613,-4.049,0.0,0.0,-4.1438,-4.141,-4.1025,-4.1794,-4.1297,-3.7921,-3.7716,0.0,0.0,0.0,0.0,0.0,0.0,0.0,0.0,0.0,0.0,0.0,0.0,0.0,0.0,0.0,0.0,0.0,0.0,0.0,0.0,0.0,0.0,0.0,0.0,0.0,0.0,0.0,0.0,0.0,0.0,0.0,0.0,0.0,0.0,0.0,0.0,0.0,0.0,0.0,0.0,0.0,0.0,0.0,0.0,0.0,0.0,0.0,0.0,0.0,0.0,0.0,0.0,-4.5438,-4.6833,-4.9095,-5.0589,-5.1224,-5.0564,-5.0143,-4.9876,-4.8238,-4.6972,0.0,0.0,0.0,0.0,0.0,0.0,0.0,0.0,0.0,0.0,0.0,0.0,0.0,0.0,0.0,0.0,0.0,0.0,0.0,0.0,0.0,0.0,0.0,0.0,0.0,0.0,0.0,0.0,-3.6691,-3.5961,-3.4928,0.0,0.0,0.0,0.0,0.0,0.0,0.0,0.0,0.0,0.0,-3.804,-3.9384,-3.9582,-3.9659,-3.9845,-4.0173,-4.0104,-3.9331,-3.9319,-3.8637,-3.6295,0.0,0.0,0.0,0.0,0.0,0.0,0.0,0.0,0.0,0.0,0.0,0.0,0.0,0.0,0.0,0.0,0.0,0.0,0.0,0.0,0.0,0.0,0.0,0.0,0.0,0.0,0.0,-4.5669,0.0,0.0,-4.4542,0.0,0.0,0.0,0.0,0.0,0.0,0.0,0.0,0.0,0.0,0.0,0.0,0.0,0.0,0.0,0.0,0.0,0.0,0.0,0.0,0.0,0.0,-4.4421,-4.5814,-4.6936,-4.7769,-4.8399,-4.774,-4.7892,-4.8769,-4.8072,-4.7153,-4.6039,0.0,0.0,0.0,0.0,0.0,0.0,0.0,0.0,0.0,0.0,0.0,0.0,0.0,0.0,0.0,0.0,0.0,0.0,0.0,0.0,0.0,0.0,0.0,0.0,0.0,0.0,-3.6072,-3.3913,-3.2691,0.0,0.0,0.0,0.0,0.0,0.0,0.0,0.0,0.0,0.0,-3.6811,-3.7924,-3.809,-3.8952,-3.9195,-3.8379,-3.82,-3.7749,-3.6755,-3.6515,-3.6039,0.0,0.0,0.0,0.0,0.0,0.0,0.0,0.0,0.0,0.0,0.0,0.0,0.0,0.0,0.0,0.0,0.0,0.0,0.0,0.0,0.0,0.0,0.0,0.0,0.0,0.0,0.0,-4.5177,-4.4577,0.0,0.0,0.0,0.0,0.0,0.0,0.0,0.0,0.0,0.0,0.0,-4.4871,-4.4847,0.0,0.0,0.0,0.0,0.0,0.0,0.0,0.0,0.0,0.0,0.0,0.0,-4.4122,-4.4962,-4.6486,-4.7623,-4.8252,-4.7638,-4.7467,-4.7807,-4.7099,-4.5563,-4.3078,0.0,0.0,0.0,0.0,0.0,0.0,0.0,0.0,0.0,0.0,0.0,0.0,0.0,0.0,0.0,0.0,0.0,0.0,0.0,0.0,0.0,0.0,0.0,0.0,0.0,-3.6881,0.0,0.0,0.0,0.0,0.0,0.0,0.0,0.0,0.0,0.0,0.0,-3.3059,-3.3522,-3.4241,-3.4851,-3.5241,-3.6612,-3.757,0.0,0.0,0.0,0.0,0.0,0.0,0.0,0.0,0.0,0.0,0.0,0.0,0.0,0.0,-3.4469,-3.4111,-3.3858,-3.3824,-3.3944,0.0,0.0,0.0,0.0,0.0,0.0,0.0,0.0,0.0,0.0,0.0,0.0,0.0,0.0,-4.6191,0.0,-4.5056,0.0,0.0,0.0,0.0,0.0,0.0,0.0,0.0,-4.3994,-4.4533,-4.456,-4.456,-4.4342,0.0,-4.4101,-4.2961,0.0,0.0,0.0,0.0,0.0,0.0,0.0,0.0,-4.393,-4.4601,-4.6362,-4.7519,-4.7893,-4.7519,-4.7309,-4.7279,-4.6426,-4.4861,-4.2535,-4.1917,-4.0362,0.0,0.0,0.0,0.0,0.0,0.0,0.0,0.0,0.0,0.0,0.0,0.0,0.0,0.0,0.0,0.0,0.0,0.0,0.0,0.0,0.0,0.0,0.0,-3.5421,0.0,0.0,0.0,0.0,0.0,0.0,0.0,0.0,0.0,-3.0264,-3.1228,-3.197,-3.2367,-3.328,-3.379,-3.3341,0.0,0.0,0.0,0.0,0.0,0.0,0.0,-3.1038,-3.0167,-2.9537,-2.9092,-2.8962,-3.0479,-3.1564,-3.1149,0.0,0.0,-3.3116,-3.3469,-3.3753,-3.3984,-3.4165,-3.4094,-3.3705,-3.3467,-3.3293,0.0,0.0,0.0,0.0,0.0,0.0,0.0,0.0,-4.934,-4.8993,0.0,-4.6817,0.0,0.0,0.0,0.0,0.0,-4.2693,0.0,0.0,-4.4566,-4.5082,-4.3444,-4.3451,-4.3328,-4.3259,-4.2255,-4.1315,-4.0694,-4.2728,0.0,0.0,0.0,0.0,0.0,0.0,-4.3824,-4.4617,-4.6392,-4.7309,-4.7324,-4.7309,-4.7309,-4.7279,-4.6037,-4.5082,-4.4434,-4.2607,-4.095,-3.9643,-3.7762,0.0,0.0,0.0,0.0,0.0,0.0,0.0,0.0,0.0,0.0,0.0,0.0,0.0,0.0,0.0,0.0,0.0,0.0,0.0,0.0,-3.483,0.0,0.0,0.0,0.0,0.0,0.0,0.0,0.0,0.0,0.0,-2.8179,-3.0139,-3.1675,-3.1746,0.0,0.0,0.0,0.0,-3.3191,-2.9988,-2.9908,-2.9921,-2.8958,-2.8656,-2.8556,-2.8556,0.0,0.0,-2.7844,-2.8566,-2.9001,-2.79,-2.9102,-3.1112,-3.408,-3.3394,-3.3133,-3.4582,-3.3337,-3.2523,-3.3704,-3.2883,-3.2166,-4.9586,0.0,0.0,0.0,0.0,-4.6228,-4.6867,-4.7801,-4.7458,-4.69,-4.6217,-4.5058,0.0,0.0,0.0,0.0,0.0,0.0,-4.2371,-4.3355,-4.4331,-4.5178,-4.5944,-4.5972,-4.5972,-4.593,-4.5123,-4.4228,-4.321,-4.3336,-4.2237,-3.9924,0.0,0.0,0.0,0.0,-4.3042,-4.4393,-4.6299,-4.7309,-4.7309,-4.7309,-4.7309,-4.7309,-4.6486,-4.5518,-4.4393,-4.3891,-4.2582,-4.0311,-3.974,0.0,0.0,0.0,0.0,0.0,0.0,0.0,0.0,0.0,0.0,0.0,0.0,0.0,0.0,0.0,0.0,0.0,0.0,0.0,-3.283,-3.261,-3.181,0.0,0.0,0.0,0.0,0.0,0.0,0.0,0.0,0.0,-2.645,-2.8562,-2.98,0.0,0.0,-3.065,-2.928,-3.0364,-3.095,-3.0107,-3.0043,0.0,-2.9756,-2.8407,-2.738,-2.738,-2.704,-2.6754,-2.6787,-2.7274,-2.7608,-2.7225,-2.8053,-2.9109,-2.9918,-3.0617,-3.1243,-3.2074,-3.1834,-3.1826,-3.3049,-3.2946,-3.2735,-4.9314,-4.6845,-4.6201,-4.6042,-4.6339,-4.6411,-4.7133,-4.8198,-4.7951,-4.7567,-4.7032,-4.5705,-4.4376,-4.2999,-4.1742,0.0,0.0,0.0,-4.2333,-4.3736,-4.3723,-4.4332,-4.5422,-4.5449,-4.5449,-4.5422,-4.4863,-4.4065,-4.3083,-4.2069,-4.0933,-3.9604,0.0,0.0,-4.0144,-4.1215,-4.2215,-4.3197,-4.4908,-4.6018,-4.655,-4.7019,-4.7309,-4.7294,-4.6148,-4.5151,-4.4356,-4.3956,-4.2818,-4.0891,-4.0642,-3.98,0.0,0.0,0.0,0.0,0.0,0.0,0.0,0.0,0.0,0.0,0.0,-3.4981,-3.2302,0.0,0.0,0.0,-3.1588,-3.1386,-3.0559,-3.0705,0.0,0.0,0.0,0.0,0.0,0.0,0.0,-2.6658,-2.602,-2.5554,-2.5496,-2.6907,-2.8,-2.8202,-2.9238,-2.9446,-2.7983,0.0,-2.9135,-2.8534,-2.8359,-2.8301,-2.8396,-2.729,-2.6441,-2.6441,-2.6008,-2.581,-2.6074,-2.6298,-2.6504,-2.6525,-2.6863,-2.7199,-2.7199,-2.7892,-2.8889,-3.0193,-3.0496,-3.0911,-3.2096,-3.2339,-3.2469,-4.8951,-4.8963,-4.8172,-4.8081,-4.8423,-4.7959,-4.8763,-5.031,-4.9734,-4.9789,-5.0132,-4.7793,-4.6417,-4.5694,-4.2766,0.0,-4.2241,-4.2202,-4.2457,-4.2974,-4.2986,-4.2986,-4.2986,-4.3042,-4.2986,-4.3017,-4.2476,-4.1869,-4.1279,-3.9824,-3.9192,-3.9468,-4.0011,-4.0021,-3.9536,-4.0639,-4.1315,-4.1448,-4.273,-4.3957,-4.5252,-4.6403,-4.7019,-4.6975,-4.5346,-4.4407,-4.4201,-4.3185,-4.2195,-4.1394,-4.0715,-3.9721,-3.8293,0.0,0.0,0.0,0.0,0.0,0.0,0.0,0.0,0.0,0.0,0.0,0.0,0.0,0.0,0.0,-3.1668,0.0,-2.9058,-2.9107,0.0,0.0,0.0,-2.665,-2.6572,-2.5823,-2.5471,-2.5747,0.0,0.0,-2.5174,-2.5508,-2.6447,-2.834,-2.9683,-2.977,-2.7689,-2.784,-2.7651,-2.6103,-2.5791,-2.5791,-2.6024,-2.581,-2.5781,-2.5781,-2.5684,-2.5693,-2.5703,-2.5713,-2.5703,-2.5742,-2.5684,-2.5742,-2.5732,-2.5859,-2.6438,-2.868,-2.9189,-2.9636,-3.0765,-3.1078,-3.1368,-5.0117,-5.1152,-5.0049,-4.8767,-4.7521,-4.7791,-4.7906,-4.7927,-4.7799,-4.7581,-4.7293,-4.6225,-4.5494,-4.4878,-4.3733,-4.3258,-4.3364,-4.3,-4.2861,-4.2974,-4.2986,-4.2986,-4.2986,-4.2986,-4.2986,-4.2936,-4.2476,-4.1882,-4.1263,-4.0526,-3.9498,-3.8421,-3.851,-3.8773,-3.9035,-3.9077,-3.9717,-4.0962,-4.1785,-4.2782,-4.3887,-4.4256,-4.441,-4.4396,-4.4927,-4.4476,-4.3036,-4.3617,-4.2978,-4.0972,-4.0251,-3.9073,-3.7349,-3.4961,0.0,0.0,0.0,0.0,0.0,0.0,0.0,0.0,0.0,-3.2457,-2.9558,0.0,-3.059,0.0,-2.8326,-2.836,-2.8636,-2.8282,0.0,0.0,-2.6668,-2.6256,-2.5589,-2.5558,-2.5417,-2.4832,-2.524,-2.5576,-2.5538,-2.5967,-2.6408,-2.6933,-2.695,-2.6635,-2.5837,-2.6366,-2.6606,-2.5908,-2.6006,-2.6113,-2.5752,-2.5684,-2.5684,-2.5684,-2.5684,-2.5684,-2.5684,-2.5684,-2.5684,-2.5684,-2.5684,-2.5684,-2.5684,-2.5684,-2.5868,-2.6514,-2.7352,-2.8412,-2.9533,-2.9806,-2.9909,-5.0142,-5.0826,-4.9961,-4.847,-4.6839,-4.8475,-4.8601,-4.7714,-4.7726,-4.7154,-4.6276,-4.5736,-4.5321,-4.4957,-4.4154,-4.379,-4.3752,-4.3225,-4.2986,-4.2986,-4.2986,-4.2986,-4.2986,-4.2986,-4.2986,-4.2961,-4.2476,-4.1882,-4.1288,-4.0777,-3.991,-3.8768,-3.8755,-3.8689,-3.845,-3.7815,-3.7926,-3.8825,-4.0224,-4.1503,-4.2622,-4.2957,-4.3012,-4.2782,-4.2643,-4.1984,-4.0675,-4.1025,-4.049,-3.8898,-3.8718,-3.8076,-3.6711,-3.4865,-3.3505,0.0,0.0,0.0,0.0,0.0,0.0,0.0,0.0,0.0,0.0,0.0,-2.8866,-2.7574,-2.7807,-2.8044,-2.805,-2.7729,-2.7257,-2.6622,-2.63,-2.6102,-2.5928,-2.582,-2.5625,-2.5342,-2.5508,-2.5684,-2.5693,-2.5947,-2.6094,-2.6094,-2.584,-2.5596,-2.5459,-2.581,-2.6006,-2.5752,-2.5888,-2.6025,-2.5713,-2.5684,-2.5684,-2.5684,-2.5684,-2.5684,-2.5674,-2.5518,-2.5498,-2.5635,-2.5576,-2.5518,-2.5645,-2.5684,-2.5684,-2.5781,-2.6235,-2.7163,-2.8319,-2.8598,-2.868,-4.9681,-4.9735,-4.9191,-4.8203,-4.7189,-4.9648,-4.9601,-4.7809,-4.7822,-4.7185,-4.6075,-4.5736,-4.5547,-4.5422,-4.438,-4.3865,-4.3765,-4.3225,-4.2986,-4.2986,-4.2986,-4.2986,-4.2986,-4.2986,-4.2986,-4.2949,-4.2401,-4.1806,-4.1329,-4.0714,-4.0099,-3.9496,-3.9471,-3.8919,-3.7801,-3.6883,-3.643,-3.642,-3.8541,-4.0145,-4.1094,-4.1619,-4.1663,-4.1082,-3.9744,-3.8714,-3.8088,-3.7664,-3.7091,-3.6437,-3.6887,-3.677,-3.598,-3.4623,-3.3801,0.0,-3.0871,0.0,0.0,0.0,0.0,0.0,0.0,0.0,0.0,-2.8107,-2.7292,-2.7646,-2.8391,-2.8463,-2.7413,-2.739,-2.7209,-2.6634,-2.6211,-2.622,-2.6904,-2.6249,-2.5937,-2.6269,-2.5967,-2.5684,-2.5684,-2.5684,-2.5684,-2.5713,-2.5703,-2.5674,-2.5674,-2.5693,-2.5703,-2.5684,-2.5684,-2.5703,-2.5596,-2.5577,-2.5596,-2.5528,-2.545,-2.5528,-2.5518,-2.5234,-2.5107,-2.542,-2.5283,-2.5215,-2.5538,-2.5635,-2.5684,-2.5684,-2.5781,-2.6149,-2.7078,-2.7363,-2.772,-5.0104,-5.0808,-5.0185,-5.0194,-5.071,-5.0697,-4.8125,-4.4028,-4.4015,-4.4377,-4.4982,-4.5799,-4.5912,-4.5447,-4.4769,-4.4229,-4.3777,-4.3225,-4.2986,-4.2986,-4.2986,-4.2986,-4.2986,-4.2986,-4.2986,-4.2924,-4.1969,-4.1388,-4.1263,-4.0337,-3.9333,-3.8354,-3.8329,-3.7776,-3.6769,0.0,0.0,0.0,-3.7693,-3.8485,-3.8637,-3.7986,-3.754,-3.7424,-3.8103,0.0,-3.6849,-3.7652,-3.737,-3.5816,-3.5787,0.0,0.0,0.0,0.0,0.0,0.0,0.0,0.0,0.0,0.0,0.0,-2.7478,-2.7238,-2.7967,-2.7616,-2.7509,-2.7846,-2.7327,-2.6973,-2.7081,-2.7437,-2.7582,-2.7454,-2.7395,-2.7236,-2.7041,-2.6562,-2.6172,-2.583,-2.5732,-2.5684,-2.5684,-2.5684,-2.5684,-2.5684,-2.5684,-2.5684,-2.5684,-2.5684,-2.5684,-2.5684,-2.5664,-2.5586,-2.5254,-2.5205,-2.5078,-2.4775,-2.4658,-2.4687,-2.4614,-2.4582,-2.4541,-2.466,-2.4883,-2.5068,-2.5233,-2.5488,-2.5625,-2.5674,-2.5674,-2.5781,-2.6014,-2.6052,-2.611,-4.9749,0.0,-4.9322,-4.8901,0.0,-4.7955,-4.5901,-4.3118,-4.4958,-4.5636,-4.5497,-4.6062,-4.6012,-4.5422,-4.4317,-4.3514,-4.2949,-4.1844,-4.1656,-4.2158,-4.217,-4.2459,-4.2986,-4.2986,-4.2986,-4.2936,-4.1802,-4.1275,-4.1225,-4.0224,-3.9408,-3.8843,-3.8843,-3.8567,-3.8015,-3.8052,-3.7739,-3.7211,-3.7739,-3.8278,-3.8781,-3.8027,-3.7385,-3.6832,-3.7164,0.0,0.0,0.0,0.0,0.0,0.0,0.0,0.0,0.0,0.0,-2.9628,-2.8056,-2.7278,-2.7636,-2.6991,-2.6864,-2.7517,-2.7311,-2.7051,-2.7004,-2.7115,-2.74,-2.7774,-2.7358,-2.7187,-2.7607,-2.7851,-2.7969,-2.7959,-2.7598,-2.7246,-2.7002,-2.6455,-2.5937,-2.5742,-2.5684,-2.5684,-2.5684,-2.5684,-2.5684,-2.5684,-2.5684,-2.5684,-2.5684,-2.5684,-2.5684,-2.5674,-2.5518,-2.5332,-2.5155,-2.491,-2.4687,-2.4473,-2.4424,-2.4137,-2.3616,-2.3344,-2.3269,-2.3448,-2.3579,-2.3766,-2.4614,-2.4941,-2.504,-2.5107,-2.5264,-2.54,-2.542,-2.5528,-2.5684,-4.9201,-4.8586,-4.8096,-4.7041,-4.5598,-4.5121,-4.4405,-4.379,0.0,0.0,0.0,-4.6213,-4.6012,-4.5397,-4.394,-4.2961,-4.2414,-4.0927,-4.0764,-4.1618,-4.1576,-4.2108,-4.2961,-4.2986,-4.2986,-4.2924,-4.1869,-4.1275,-4.1238,-4.0237,-3.9697,-3.9697,-3.9697,-3.9697,-3.9697,-3.9697,-3.9233,-3.8341,-3.8103,-3.8454,-3.9333,-3.8668,-3.7839,-3.6923,-3.6358,-3.5549,-3.4375,-3.4338,-3.3512,-3.1795,-3.1679,-3.1066,-2.9785,-2.9701,-2.9829,-2.9948,-2.8781,-2.8154,-2.8528,-2.7382,-2.6797,-2.7207,-2.7568,-2.7451,-2.667,-2.7002,-2.7383,-2.7796,-2.7826,-2.7973,-2.8262,-2.8291,-2.8301,-2.8291,-2.7529,-2.7021,-2.6963,-2.62,-2.5703,-2.5684,-2.5684,-2.5684,-2.5684,-2.5684,-2.5684,-2.5684,-2.5684,-2.5684,-2.5684,-2.5684,-2.5684,-2.5654,-2.541,-2.5116,-2.4959,-2.458,-2.4307,-2.4141,-2.3948,-2.3472,-2.263,-2.194,-2.1831,-2.2307,-2.2152,-2.2723,-2.3953,-2.4414,-2.4414,-2.4424,-2.4766,-2.5059,-2.5098,-2.542,-2.5674,-4.8987,-4.8033,-4.7945,-4.7242,-4.6188,-4.61,-4.5987,-4.5786,-4.5367,-4.5032,-4.492,-4.5886,-4.5999,-4.5447,-4.4719,-4.4091,-4.3539,-4.2836,-4.2597,-4.2735,-4.2748,-4.2823,-4.2974,-4.2986,-4.2986,-4.2886,-4.1856,-4.1275,-4.1163,-4.0237,-3.9697,-3.9697,-3.9697,-3.9697,-3.9697,-3.9697,-3.9609,-3.9446,-3.8504,-3.8078,-3.8228,-3.6737,-3.5897,-3.5721,-3.5278,-3.4317,-3.3037,-3.3002,-3.2324,-3.0965,-3.0869,-3.0281,-2.9084,-2.8936,-2.8533,-2.7582,-2.7299,-2.7355,-2.7831,-2.7623,-2.7666,-2.8066,-2.8174,-2.7998,-2.7549,-2.7871,-2.8144,-2.8203,-2.8184,-2.8223,-2.8291,-2.8301,-2.8291,-2.8223,-2.7519,-2.7012,-2.6973,-2.621,-2.5684,-2.5684,-2.5684,-2.5684,-2.5684,-2.5684,-2.5684,-2.5684,-2.5684,-2.5684,-2.5684,-2.5684,-2.5684,-2.5635,-2.5361,-2.4941,-2.456,-2.416,-2.3779,-2.3325,-2.2488,-2.1879,-2.1518,-2.0594,-2.034,-2.1302,-2.1634,-2.2382,-2.3606,-2.418,-2.4297,-2.4336,-2.4668,-2.5057,-2.5019,-2.5391,-2.5674,-4.8937,-4.7958,-4.7908,-4.7292,-4.6313,-4.6313,-4.6313,-4.6276,-4.5773,-4.5535,-4.5598,-4.6087,-4.5836,-4.497,-4.4116,-4.3275,-4.2434,-4.158,-4.1517,-4.2057,-4.2095,-4.2409,-4.2949,-4.2986,-4.2986,-4.2911,-4.217,-4.163,-4.1225,-4.0526,-3.9998,-3.9722,-3.9697,-3.9697,-3.9697,-3.9697,-3.9697,-3.9672,-3.9182,-3.8781,-3.8467,-3.7739,-3.7061,-3.6458,-3.6182,-3.5271,-3.372,-3.36,-3.2661,-3.0575,-3.0475,-2.988,-2.8643,-2.854,-2.8301,-2.7757,-2.7715,-2.7793,-2.7988,-2.8008,-2.8096,-2.8271,-2.8301,-2.8213,-2.8027,-2.8184,-2.8291,-2.8301,-2.8301,-2.8301,-2.8301,-2.8301,-2.8203,-2.7969,-2.7393,-2.6934,-2.665,-2.6143,-2.5693,-2.5684,-2.5684,-2.5684,-2.5684,-2.5684,-2.5684,-2.5684,-2.5684,-2.5684,-2.5674,-2.5527,-2.5381,-2.5332,-2.5,-2.457,-2.415,-2.3721,-2.3335,-2.311,-2.2076,-2.1114,-2.0486,-1.936,-1.9185,-2.0042,-2.0568,-2.1391,-2.2984,-2.3539,-2.3656,-2.3744,-2.4287,-2.4639,-2.4775,-2.5187,-2.5645,-4.8837,-4.7908,-4.7782,-4.7179,-4.6326,-4.6313,-4.6313,-4.6301,-4.6175,-4.6125,-4.6125,-4.6125,-4.556,-4.451,-4.3601,-4.271,-4.1831,-4.0877,-4.0915,-4.1589,-4.1652,-4.217,-4.2911,-4.2986,-4.2986,-4.2911,-4.2476,-4.1882,-4.1275,-4.0724,-4.0237,-3.9747,-3.9697,-3.9697,-3.9697,-3.9697,-3.9697,-3.9697,-3.9697,-3.9433,-3.8944,-3.8755,-3.8191,-3.7274,-3.6746,-3.5734,-3.4042,-3.3613,-3.2342,-3.0068,-2.9859,-2.9355,-2.8398,-2.8301,-2.8301,-2.8301,-2.8301,-2.8301,-2.8301,-2.8301,-2.8301,-2.8301,-2.8301,-2.8291,-2.8301,-2.8301,-2.8301,-2.8301,-2.8301,-2.8301,-2.8301,-2.8301,-2.8154,-2.7875,-2.7324,-2.6914,-2.6553,-2.6064,-2.5684,-2.5684,-2.5684,-2.5684,-2.5684,-2.5684,-2.5684,-2.5684,-2.5684,-2.5684,-2.5645,-2.542,-2.5205,-2.4883,-2.456,-2.4189,-2.3809,-2.3437,-2.3008,-2.2818,-2.1623,-2.044,-1.9351,-1.828,-1.828,-1.9314,-1.9861,-2.0701,-2.228,-2.2979,-2.2964,-2.2865,-2.3474,-2.4336,-2.4629,-2.5205,-2.5654,-4.8485,-4.787,-4.7405,-4.6805,-4.6313,-4.6301,-4.6288,-4.6213,-4.5773,-4.556,-4.5535,-4.556,-4.5196,-4.4606,-4.3966,-4.3601,-4.3426,-4.2936,-4.2685,-4.276,-4.2823,-4.2886,-4.2974,-4.2986,-4.2986,-4.2911,-4.2489,-4.1907,-4.1275,-4.0764,-4.0237,-3.9747,-3.9697,-3.9697,-3.9697,-3.9697,-3.9697,-3.9697,-3.9697,-3.9421,-3.8932,-3.8354,-3.7801,-3.7211,-3.5551,-3.3967,-3.2532,-3.1327,-3.0016,-2.8654,-2.8495,-2.8451,-2.8291,-2.8301,-2.8301,-2.8301,-2.8301,-2.8301,-2.8301,-2.8301,-2.8301,-2.8301,-2.8301,-2.8301,-2.8301,-2.8301,-2.8301,-2.8301,-2.8301,-2.8301,-2.8301,-2.8301,-2.8252,-2.8115,-2.7461,-2.6992,-2.6826,-2.623,-2.5684,-2.5684,-2.5684,-2.5684,-2.5684,-2.5684,-2.5684,-2.5684,-2.5684,-2.5684,-2.5674,-2.5567,-2.5273,-2.4648,-2.4131,-2.3877,-2.3711,-2.3374,-2.2813,-2.18,-2.0531,-1.9443,-1.8542,-1.8095,-1.8048,-1.8956,-2.026,-2.098,-2.1436,-2.2262,-2.2633,-2.2141,-2.2848,-2.4111,-2.4805,-2.5381,-2.5645,-4.8247,-4.7443,-4.7217,-4.6615,-4.5886,-4.5824,-4.5623,-4.5296,-4.5083,-4.4807,-4.4505,-4.4493,-4.4367,-4.4116,-4.389,-4.3639,-4.33,-4.3074,-4.2986,-4.2986,-4.2986,-4.2986,-4.2986,-4.2986,-4.2986,-4.2974,-4.2803,-4.2183,-4.1275,-4.0463,-3.991,-3.9722,-3.9697,-3.9697,-3.9697,-3.9697,-3.9697,-3.9697,-3.9697,-3.9433,-3.8868,-3.8304,-3.7232,-3.5685,-3.4786,-3.3315,-3.1378,-3.0566,-2.966,-2.8441,-2.8301,-2.8301,-2.8301,-2.8301,-2.8301,-2.8301,-2.8301,-2.8301,-2.8301,-2.8301,-2.8301,-2.8301,-2.8301,-2.8301,-2.8301,-2.8301,-2.8301,-2.8301,-2.8301,-2.8301,-2.8301,-2.8301,-2.8203,-2.791,-2.7373,-2.6924,-2.665,-2.6113,-2.5684,-2.5684,-2.5684,-2.5684,-2.5684,-2.5684,-2.5684,-2.5684,-2.5684,-2.5684,-2.5674,-2.5518,-2.5088,-2.4541,-2.4062,-2.3701,-2.3477,-2.3237,-2.2828,-2.2217,-2.0719,-1.9222,-1.8818,-1.8048,-1.7917,-1.8419,-1.9542,-2.026,-2.0215,-2.1159,-2.1854,-2.1723,-2.2845,-2.4355,-2.4961,-2.542,-2.5635,-4.7744,-4.7093,-4.6979,-4.6363,-4.5497,-4.5485,-4.5158,-4.4631,-4.4468,-4.4166,-4.3802,-4.3652,-4.3576,-4.3576,-4.3576,-4.335,-4.3024,-4.2986,-4.2986,-4.2986,-4.2986,-4.2986,-4.2986,-4.2986,-4.2986,-4.2986,-4.2974,-4.2409,-4.1263,-4.0237,-3.9697,-3.9697,-3.9697,-3.9697,-3.9697,-3.9697,-3.9697,-3.9697,-3.9697,-3.9421,-3.8894,-3.8078,-3.6675,-3.4744,-3.3732,-3.2303,-3.0421,-2.9964,-2.9303,-2.8335,-2.8301,-2.8301,-2.8301,-2.8301,-2.8301,-2.8301,-2.8301,-2.8301,-2.8301,-2.8301,-2.8301,-2.8301,-2.8301,-2.8301,-2.8301,-2.8301,-2.8301,-2.8301,-2.8301,-2.8301,-2.8301,-2.8301,-2.8154,-2.7851,-2.7373,-2.6885,-2.6602,-2.6103,-2.5684,-2.5684,-2.5684,-2.5684,-2.5684,-2.5684,-2.5684,-2.5684,-2.5684,-2.5684,-2.5654,-2.5459,-2.5088,-2.4521,-2.415,-2.376,-2.3227,-2.3101,-2.3047,-2.2227,-2.0728,-1.9405,-1.9139,-1.8141,-1.7684,-1.8141,-1.891,-1.9497,-1.9852,-2.0531,-2.1596,-2.2056,-2.3138,-2.4453,-2.4756,-2.5312,-2.5615,-4.669,-4.7016,-4.6552,-4.5962,-4.5472,-4.5434,-4.5121,-4.4468,-4.4053,-4.3815,-4.3689,-4.3263,-4.3024,-4.3049,-4.3074,-4.3011,-4.2986,-4.2986,-4.2986,-4.2986,-4.2986,-4.2986,-4.2986,-4.2986,-4.2986,-4.2974,-4.2911,-4.2346,-4.1225,-4.0237,-3.9697,-3.9697,-3.9697,-3.9697,-3.9697,-3.9697,-3.9697,-3.9697,-3.9697,-3.9446,-3.8792,-3.7482,-3.6236,-3.4943,-3.2192,-3.0546,-3.011,-2.9049,-2.8398,-2.8291,-2.8301,-2.8301,-2.8301,-2.8301,-2.8301,-2.8301,-2.8301,-2.8301,-2.8301,-2.8301,-2.8301,-2.8301,-2.8301,-2.8301,-2.8301,-2.8301,-2.8301,-2.8301,-2.8301,-2.8301,-2.8301,-2.8301,-2.8262,-2.8144,-2.748,-2.7051,-2.6943,-2.6182,-2.5742,-2.5684,-2.5684,-2.5684,-2.5684,-2.5684,-2.5684,-2.5684,-2.5684,-2.5684,-2.5674,-2.5645,-2.5255,-2.4687,-2.4326,-2.4092,-2.3305,-2.3101,-2.258,-2.1987,-2.0998,-1.9268,-1.8365,-1.7684,-1.7777,-1.8002,-1.9093,-1.9679,-1.977,-2.0512,-2.1731,-2.2589,-2.3489,-2.4414,-2.459,-2.5234,-2.5577,-4.6527,-4.6037,-4.5472,-4.4907,-4.443,-4.4405,-4.4091,-4.3564,-4.335,-4.3275,-4.3237,-4.3062,-4.2986,-4.2986,-4.2986,-4.2986,-4.2986,-4.2986,-4.2986,-4.2986,-4.2986,-4.2986,-4.2986,-4.2986,-4.2986,-4.2936,-4.2678,-4.1894,-4.084,-4.0049,-3.9697,-3.9697,-3.9697,-3.9697,-3.9697,-3.9697,-3.9697,-3.9697,-3.9697,-3.9597,-3.9141,-3.6765,-3.5145,-3.4685,-3.2195,-3.0212,-2.9069,-2.8548,-2.8301,-2.8301,-2.8301,-2.8301,-2.8301,-2.8301,-2.8301,-2.8301,-2.8301,-2.8301,-2.8301,-2.8301,-2.8301,-2.8301,-2.8301,-2.8301,-2.8301,-2.8301,-2.8301,-2.8301,-2.8301,-2.8301,-2.8301,-2.8301,-2.8174,-2.7871,-2.7383,-2.6914,-2.6592,-2.6094,-2.5684,-2.5684,-2.5684,-2.5684,-2.5684,-2.5684,-2.5684,-2.5684,-2.5684,-2.5684,-2.5684,-2.5684,-2.5382,-2.4641,-2.4394,-2.4075,-2.3227,-2.3101,-2.2862,-2.2359,-2.1489,-2.0314,-1.9314,-1.9314,-1.9451,-1.8095,-1.9001,-2.0007,-2.0195,-2.1118,-2.2223,-2.3172,-2.4092,-2.4346,-2.4424,-2.5118,-2.5518,-4.6062,-4.5208,-4.4782,-4.4317,-4.3815,-4.379,-4.3476,-4.3011,-4.2986,-4.2986,-4.2986,-4.2986,-4.2986,-4.2986,-4.2986,-4.2986,-4.2986,-4.2986,-4.2986,-4.2986,-4.2986,-4.2986,-4.2986,-4.2986,-4.2986,-4.2898,-4.2476,-4.1593,-4.0626,-4.0325,-4.0049,-3.9722,-3.986,-3.986,-3.9735,-3.9697,-3.9697,-3.9697,-3.9697,-3.9517,-3.8755,-3.627,-3.4478,-3.3671,-3.1831,-3.0059,-2.8569,-2.8369,-2.8301,-2.8301,-2.8301,-2.8301,-2.8301,-2.8301,-2.8301,-2.8301,-2.8301,-2.8301,-2.8301,-2.8301,-2.8301,-2.8301,-2.8301,-2.8301,-2.8301,-2.8301,-2.8301,-2.8301,-2.8301,-2.8301,-2.8301,-2.8301,-2.8125,-2.7705,-2.7275,-2.6846,-2.6435,-2.6016,-2.5723,-2.5684,-2.5684,-2.5684,-2.5684,-2.5684,-2.5684,-2.5684,-2.5684,-2.5684,-2.5684,-2.5654,-2.5372,-2.4629,-2.4434,-2.4023,-2.3354,-2.3101,-2.3101,-2.2677,-2.2031,-2.0989,-2.0395,-2.0576,-2.0079,-1.8734,-1.8813,-1.9904,-2.0922,-2.1833,-2.2748,-2.3667,-2.4092,-2.4394,-2.4707,-2.5099,-2.546,-4.5183,-4.4694,-4.4618,-4.4254,-4.3752,-4.3702,-4.3451,-4.3024,-4.2986,-4.2986,-4.2986,-4.2986,-4.2986,-4.2986,-4.2986,-4.2986,-4.2986,-4.2986,-4.2986,-4.2986,-4.2986,-4.2986,-4.2986,-4.2911,-4.2785,-4.271,-4.2414,-4.1568,-4.0576,-4.0849,-4.0714,-3.9998,-4.0237,-4.0174,-3.9697,-3.9697,-3.9697,-3.9697,-3.9697,-3.9089,-3.7571,-3.6117,-3.4472,-3.2802,-3.1125,-2.9829,-2.8955,-2.8545,-2.834,-2.8301,-2.8301,-2.8301,-2.8301,-2.8301,-2.8301,-2.8301,-2.8301,-2.8301,-2.8301,-2.8301,-2.8301,-2.8301,-2.8301,-2.8301,-2.8301,-2.8301,-2.8301,-2.8301,-2.8301,-2.8301,-2.8301,-2.8301,-2.8125,-2.7757,-2.7285,-2.6846,-2.6435,-2.6006,-2.5684,-2.5684,-2.5684,-2.5684,-2.5684,-2.5684,-2.5684,-2.5684,-2.5684,-2.5684,-2.5684,-2.5684,-2.5304,-2.4727,-2.4414,-2.4102,-2.3539,-2.3101,-2.3101,-2.296,-2.2217,-2.1391,-2.0845,-2.0755,-1.9997,-1.8888,-1.9291,-2.0408,-2.1786,-2.2676,-2.3415,-2.418,-2.4365,-2.4531,-2.4834,-2.5195,-2.5479,-4.5146,-4.4606,-4.4204,-4.374,-4.3263,-4.3237,-4.3112,-4.2986,-4.2986,-4.2986,-4.2986,-4.2986,-4.2986,-4.2986,-4.2986,-4.2986,-4.2986,-4.2986,-4.2986,-4.2986,-4.2986,-4.2986,-4.2911,-4.2665,-4.202,-4.1442,-4.1517,-4.1241,-4.0752,-4.1091,-4.0953,-4.0438,-4.0425,-4.0224,-3.9747,-3.9697,-3.9697,-3.9697,-3.9697,-3.9413,-3.8804,-3.6553,-3.499,-3.4229,-3.1733,-2.9922,-2.9394,-2.8955,-2.8594,-2.832,-2.8301,-2.8301,-2.8301,-2.8301,-2.8301,-2.8301,-2.8301,-2.8301,-2.8301,-2.8301,-2.8301,-2.8301,-2.8301,-2.8301,-2.8301,-2.8301,-2.8301,-2.8301,-2.8301,-2.8301,-2.8301,-2.8301,-2.8115,-2.7757,-2.7275,-2.6855,-2.6445,-2.6025,-2.5723,-2.5684,-2.5684,-2.5684,-2.5684,-2.5684,-2.5684,-2.5684,-2.5684,-2.5684,-2.5684,-2.5684,-2.5547,-2.498,-2.4658,-2.4268,-2.3818,-2.3335,-2.314,-2.3149,-2.2646,-2.2041,-2.1525,-2.0935,-2.0087,-1.9808,-2.0222,-2.1105,-2.2501,-2.3467,-2.4214,-2.457,-2.4775,-2.4883,-2.4932,-2.5205,-2.5538,-4.5158,-4.4581,-4.4028,-4.3489,-4.2999,-4.2986,-4.2986,-4.2986,-4.2986,-4.2986,-4.2986,-4.2986,-4.2986,-4.2986,-4.2986,-4.2986,-4.2986,-4.2986,-4.2986,-4.2986,-4.2986,-4.2986,-4.2949,-4.2647,-4.1894,-4.1153,-4.1593,-4.1543,-4.0837,-4.1543,-4.1568,-4.094,-4.0761,-4.0498,-4.0011,-3.9785,-3.9697,-3.9697,-3.9697,-3.9413,-3.8518,-3.6553,-3.5024,-3.4193,-3.1864,-3.027,-2.9675,-2.9297,-2.8887,-2.8408,-2.8301,-2.8301,-2.8301,-2.8301,-2.8301,-2.8301,-2.8301,-2.8301,-2.8301,-2.8301,-2.8301,-2.8301,-2.8301,-2.8301,-2.8301,-2.8301,-2.8301,-2.8301,-2.8301,-2.8301,-2.8301,-2.8301,-2.8164,-2.7992,-2.7363,-2.6865,-2.6445,-2.6152,-2.5957,-2.5977,-2.581,-2.5713,-2.5684,-2.5684,-2.5684,-2.5684,-2.5684,-2.5684,-2.5684,-2.5684,-2.5469,-2.5137,-2.4697,-2.4346,-2.4062,-2.3672,-2.3227,-2.3208,-2.3139,-2.269,-2.2262,-2.1721,-2.1006,-2.1051,-2.1311,-2.2317,-2.3598,-2.4278,-2.4893,-2.5049,-2.5107,-2.5086,-2.5106,-2.5391,-2.5654,-4.5183,-4.4581,-4.4066,-4.3526,-4.3024,-4.2986,-4.2986,-4.2986,-4.2986,-4.2986,-4.2986,-4.2986,-4.2986,-4.2986,-4.2986,-4.2986,-4.2986,-4.2986,-4.2986,-4.2986,-4.2974,-4.2949,-4.2891,-4.276,-4.2183,-4.1543,-4.2271,-4.2258,-4.1413,-4.2321,-4.2446,-4.1426,-4.1367,-4.1065,-4.0488,-3.9986,-3.9772,-3.971,-3.9697,-3.9077,-3.7861,-3.612,-3.4792,-3.3462,-3.1822,-3.0439,-2.9687,-2.9385,-2.9023,-2.8408,-2.8301,-2.8301,-2.8301,-2.8301,-2.8301,-2.8301,-2.8301,-2.8301,-2.8301,-2.8301,-2.8301,-2.8301,-2.8301,-2.8301,-2.8301,-2.8301,-2.8301,-2.8301,-2.8301,-2.8301,-2.8301,-2.8301,-2.8262,-2.8154,-2.7539,-2.6973,-2.6523,-2.6396,-2.6309,-2.626,-2.6016,-2.5684,-2.5684,-2.5684,-2.5684,-2.5684,-2.5684,-2.5684,-2.5684,-2.5635,-2.5518,-2.5205,-2.4863,-2.4629,-2.4414,-2.4033,-2.3637,-2.3656,-2.3608,-2.3328,-2.2936,-2.2363,-2.2034,-2.2105,-2.2378,-2.3448,-2.4231,-2.4708,-2.5129,-2.5264,-2.5225,-2.5174,-2.5264,-2.5586,-2.5654,-4.5522,-4.4631,-4.4468,-4.3865,-4.3049,-4.2986,-4.2986,-4.2986,-4.2986,-4.2986,-4.2986,-4.2986,-4.2986,-4.2986,-4.2986,-4.2986,-4.2986,-4.2986,-4.2986,-4.2986,-4.2986,-4.2778,-4.2502,-4.2439,-4.2045,-4.1555,-4.2095,-4.2263,-4.2007,-4.2647,-4.2597,-4.1969,-4.1894,-4.1442,-4.0626,-4.0375,-4.0074,-3.9747,-3.9697,-3.9581,-3.8804,-3.6553,-3.5178,-3.4581,-3.2197,-3.0535,-2.959,-2.8945,-2.8564,-2.834,-2.8301,-2.8301,-2.8301,-2.8301,-2.8301,-2.8301,-2.8301,-2.8301,-2.8301,-2.8301,-2.8301,-2.8301,-2.8301,-2.8301,-2.8301,-2.8301,-2.8301,-2.8301,-2.8301,-2.8301,-2.8301,-2.8301,-2.8174,-2.7861,-2.7637,-2.7324,-2.6924,-2.6572,-2.6387,-2.6338,-2.6016,-2.5762,-2.5684,-2.5684,-2.5684,-2.5684,-2.5684,-2.5684,-2.5684,-2.5674,-2.5557,-2.5508,-2.5254,-2.5039,-2.4775,-2.4394,-2.418,-2.4209,-2.415,-2.3968,-2.3508,-2.296,-2.2722,-2.2697,-2.3032,-2.3889,-2.4294,-2.4712,-2.5043,-2.5459,-2.5478,-2.5449,-2.5518,-2.5674,-2.5674,-4.566,-4.4618,-4.4618,-4.3991,-4.3037,-4.2986,-4.2986,-4.2986,-4.2986,-4.2986,-4.2986,-4.2986,-4.2986,-4.2986,-4.2986,-4.2986,-4.2986,-4.2986,-4.2986,-4.2986,-4.2986,-4.2728,-4.2389,-4.2389,-4.2221,-4.1794,-4.2233,-4.2484,-4.2602,-4.2891,-4.2773,-4.2552,-4.2326,-4.1706,-4.094,-4.0601,-4.0249,-3.9798,-3.9697,-3.9697,-3.9478,-3.6834,-3.5508,-3.4681,-3.2354,-3.0185,-2.9336,-2.8643,-2.8301,-2.8301,-2.8301,-2.8301,-2.8301,-2.8301,-2.8301,-2.8301,-2.8301,-2.8301,-2.8301,-2.8301,-2.8301,-2.8301,-2.8301,-2.8301,-2.8301,-2.8301,-2.8301,-2.8301,-2.8301,-2.8301,-2.8301,-2.8301,-2.8184,-2.8018,-2.7982,-2.7744,-2.7334,-2.71,-2.6855,-2.6631,-2.6299,-2.5918,-2.5781,-2.5693,-2.5684,-2.5684,-2.5684,-2.5684,-2.5684,-2.5684,-2.5664,-2.5615,-2.5478,-2.5234,-2.5059,-2.4746,-2.4609,-2.4639,-2.4658,-2.4531,-2.4173,-2.3662,-2.3739,-2.3737,-2.3926,-2.419,-2.4646,-2.502,-2.5333,-2.5606,-2.5674,-2.5684,-2.5684,-2.5684,-2.5684,-4.5648,-4.4618,-4.4618,-4.3978,-4.3062,-4.2986,-4.2986,-4.2986,-4.2986,-4.2986,-4.2986,-4.2986,-4.2986,-4.2986,-4.2986,-4.2986,-4.2986,-4.2986,-4.2986,-4.2986,-4.2949,-4.2735,-4.2489,-4.2753,-4.2635,-4.2346,-4.276,-4.2898,-4.2898,-4.2961,-4.2986,-4.2823,-4.2514,-4.1995,-4.143,-4.0927,-4.0337,-3.9923,-3.9735,-3.9697,-3.9193,-3.6942,-3.5398,-3.4836,-3.1917,-2.9888,-2.9082,-2.8535,-2.8301,-2.8301,-2.8301,-2.8301,-2.8301,-2.8301,-2.8301,-2.8301,-2.8301,-2.8301,-2.8301,-2.8301,-2.8301,-2.8301,-2.8301,-2.8301,-2.8301,-2.8301,-2.8301,-2.8301,-2.8301,-2.8301,-2.8301,-2.8301,-2.8281,-2.8213,-2.8252,-2.8096,-2.7832,-2.7748,-2.7562,-2.7109,-2.6699,-2.623,-2.5947,-2.5713,-2.5684,-2.5684,-2.5684,-2.5684,-2.5684,-2.5684,-2.5684,-2.5654,-2.5547,-2.5361,-2.5234,-2.505,-2.5059,-2.5059,-2.5117,-2.5039,-2.4863,-2.4589,-2.4742,-2.4887,-2.4814,-2.4938,-2.5305,-2.5577,-2.5684,-2.5684,-2.5684,-2.5684,-2.5684,-2.5684,-2.5684,-4.5648,-4.4618,-4.4618,-4.3991,-4.3074,-4.2986,-4.2986,-4.2986,-4.2986,-4.2986,-4.2986,-4.2986,-4.2986,-4.2986,-4.2986,-4.2986,-4.2986,-4.2986,-4.2986,-4.2986,-4.2986,-4.2936,-4.2798,-4.2936,-4.2898,-4.2811,-4.2942,-4.2974,-4.2986,-4.2986,-4.2986,-4.2936,-4.2811,-4.2564,-4.1919,-4.1342,-4.0837,-4.035,-3.9923,-3.9697,-3.9141,-3.6888,-3.5222,-3.4737,-3.1634,-2.9639,-2.8965,-2.8516,-2.831,-2.8301,-2.8301,-2.8301,-2.8301,-2.8301,-2.8301,-2.8301,-2.8301,-2.8301,-2.8301,-2.8301,-2.8301,-2.8301,-2.8301,-2.8301,-2.8301,-2.8301,-2.8301,-2.8301,-2.8301,-2.8301,-2.8301,-2.8301,-2.8301,-2.8301,-2.8291,-2.8262,-2.8125,-2.7924,-2.7656,-2.7402,-2.6865,-2.6357,-2.623,-2.583,-2.5742,-2.5703,-2.5684,-2.5684,-2.5684,-2.5684,-2.5684,-2.5684,-2.5615,-2.5518,-2.5478,-2.5343,-2.5323,-2.5352,-2.541,-2.5449,-2.5273,-2.5196,-2.5293,-2.542,-2.5538,-2.5664,-2.5684,-2.5684,-2.5684,-2.5684,-2.5684,-2.5684,-2.5684,-2.5684,-2.5771,-4.5422,-4.4618,-4.4355,-4.3752,-4.3049,-4.2986,-4.2986,-4.2986,-4.2986,-4.2986,-4.2986,-4.2986,-4.2986,-4.2986,-4.2986,-4.2986,-4.2986,-4.2986,-4.2986,-4.2986,-4.2986,-4.2986,-4.2986,-4.2986,-4.2986,-4.2986,-4.2986,-4.2986,-4.2986,-4.2986,-4.2986,-4.2986,-4.2986,-4.2459,-4.1882,-4.148,-4.0824,-4.0199,-3.9873,-3.9697,-3.9258,-3.6888,-3.4195,-3.3069,-3.0771,-2.9365,-2.8935,-2.8516,-2.833,-2.8301,-2.8301,-2.8301,-2.8301,-2.8301,-2.8301,-2.8301,-2.8301,-2.8301,-2.8301,-2.8301,-2.8301,-2.8301,-2.8301,-2.8301,-2.8301,-2.8301,-2.8301,-2.8301,-2.8301,-2.8301,-2.8301,-2.8301,-2.8301,-2.8301,-2.8301,-2.8301,-2.8252,-2.8086,-2.7861,-2.7627,-2.71,-2.668,-2.6367,-2.6055,-2.5762,-2.5693,-2.5684,-2.5684,-2.5684,-2.5684,-2.5684,-2.5684,-2.5684,-2.5654,-2.5645,-2.5615,-2.5586,-2.5567,-2.5605,-2.5635,-2.5508,-2.5557,-2.5625,-2.5674,-2.5664,-2.5664,-2.5684,-2.5684,-2.5684,-2.5684,-2.5684,-2.5684,-2.5693,-2.5713,-2.5869,-4.5158,-4.4581,-4.4028,-4.3489,-4.3024,-4.2986,-4.2986,-4.2986,-4.2986,-4.2986,-4.2986,-4.2986,-4.2986,-4.2986,-4.2986,-4.2986,-4.2986,-4.2986,-4.2986,-4.2986,-4.2986,-4.2986,-4.2986,-4.2986,-4.2986,-4.2986,-4.2986,-4.2986,-4.2986,-4.2986,-4.2986,-4.2986,-4.2986,-4.2522,-4.1718,-4.1275,-4.0915,-4.0099,-3.981,-3.9413,-3.8921,-3.6595,-3.382,-3.0963,-3.001,-2.9277,-2.8838,-2.8476,-2.8301,-2.8301,-2.8301,-2.8301,-2.8301,-2.8301,-2.8301,-2.8301,-2.8301,-2.8301,-2.8301,-2.8301,-2.8301,-2.8301,-2.8301,-2.8301,-2.8301,-2.8301,-2.8301,-2.8301,-2.8301,-2.8301,-2.8301,-2.8301,-2.8301,-2.8301,-2.8301,-2.8301,-2.8301,-2.8291,-2.8096,-2.7885,-2.7432,-2.7041,-2.6602,-2.623,-2.5967,-2.5703,-2.5693,-2.5684,-2.5684,-2.5684,-2.5684,-2.5684,-2.5684,-2.5684,-2.5684,-2.5684,-2.5684,-2.5684,-2.5684,-2.5684,-2.5684,-2.5684,-2.5684,-2.5684,-2.5684,-2.5684,-2.5684,-2.5684,-2.5684,-2.5684,-2.5684,-2.5684,-2.5713,-2.5742,-2.6035,-4.5146,-4.4568,-4.4028,-4.3476,-4.3024,-4.2986,-4.2986,-4.2986,-4.2986,-4.2986,-4.2986,-4.2986,-4.2986,-4.2986,-4.2986,-4.2986,-4.2986,-4.2986,-4.2986,-4.2986,-4.2986,-4.2986,-4.2986,-4.2986,-4.2986,-4.2986,-4.2986,-4.2986,-4.2986,-4.2986,-4.2986,-4.2986,-4.2986,-4.2572,-4.1957,-4.1568,-4.1003,-4.0224,-3.9821,-3.9258,-3.7873,-3.6008,-3.3533,-3.0307,-2.9697,-2.9238,-2.8643,-2.8379,-2.8301,-2.8301,-2.8301,-2.8301,-2.8301,-2.8301,-2.8301,-2.8301,-2.8301,-2.8301,-2.8301,-2.8301,-2.8301,-2.8301,-2.8301,-2.8301,-2.8301,-2.8301,-2.8301,-2.8301,-2.8301,-2.8301,-2.8301,-2.8301,-2.8301,-2.8301,-2.8301,-2.8301,-2.8301,-2.8281,-2.8271,-2.8086,-2.7744,-2.7344,-2.6855,-2.6396,-2.6074,-2.584,-2.5684,-2.5684,-2.5684,-2.5684,-2.5684,-2.5684,-2.5684,-2.5684,-2.5684,-2.5684,-2.5684,-2.5684,-2.5684,-2.5684,-2.5684,-2.5684,-2.5684,-2.5684,-2.5684,-2.5684,-2.5684,-2.5684,-2.5684,-2.5684,-2.5684,-2.5684,-2.582,-2.5966,-2.6269,-4.4982,-4.4179,-4.3903,-4.3489,-4.3037,-4.2986,-4.2986,-4.2986,-4.2986,-4.2986,-4.2986,-4.2986,-4.2986,-4.2986,-4.2986,-4.2986,-4.2999,-4.2986,-4.2986,-4.2986,-4.2986,-4.2986,-4.2999,-4.2999,-4.2986,-4.2986,-4.2986,-4.2986,-4.2986,-4.2986,-4.2986,-4.2986,-4.2974,-4.2572,-4.1882,-4.1401,-4.0824,-4.0262,-3.9796,-3.8973,-3.7358,-3.5387,-3.265,-3.1014,-2.9795,-2.9365,-2.9023,-2.8437,-2.831,-2.8301,-2.8301,-2.8301,-2.8301,-2.8301,-2.8301,-2.8301,-2.8301,-2.8301,-2.8301,-2.8301,-2.8301,-2.8301,-2.8301,-2.8301,-2.8301,-2.8301,-2.8301,-2.8301,-2.8301,-2.8301,-2.8301,-2.8301,-2.8301,-2.8301,-2.8301,-2.8301,-2.8301,-2.8301,-2.8301,-2.8262,-2.7891,-2.7461,-2.7031,-2.6592,-2.6201,-2.5957,-2.5732,-2.5693,-2.5693,-2.5684,-2.5684,-2.5684,-2.5684,-2.5684,-2.5684,-2.5684,-2.5684,-2.5684,-2.5684,-2.5684,-2.5684,-2.5684,-2.5684,-2.5684,-2.5684,-2.5684,-2.5684,-2.5684,-2.5684,-2.5684,-2.5684,-2.5742,-2.6035,-2.6269,-2.6533,-4.4782,-4.3953,-4.3727,-4.3388,-4.3024,-4.2986,-4.2986,-4.2986,-4.2986,-4.2986,-4.2986,-4.2986,-4.2986,-4.2986,-4.2999,-4.3024,-4.3099,-4.3074,-4.3049,-4.32,-4.32,-4.3175,-4.315,-4.3124,-4.3124,-4.2986,-4.2986,-4.2986,-4.2986,-4.2986,-4.2986,-4.2986,-4.2974,-4.2522,-4.1756,-4.1401,-4.0714,-4.0162,-3.9671,-3.8856,-3.6811,-3.4236,-3.2078,-3.0906,-3.0059,-2.9724,-2.9414,-2.8838,-2.8516,-2.8437,-2.8369,-2.8301,-2.8301,-2.8301,-2.8301,-2.8301,-2.8301,-2.8301,-2.8301,-2.8301,-2.8301,-2.8301,-2.8301,-2.8301,-2.8301,-2.8301,-2.8301,-2.8301,-2.8301,-2.8301,-2.8301,-2.8301,-2.8301,-2.8301,-2.8301,-2.8301,-2.8301,-2.8301,-2.8301,-2.8174,-2.792,-2.7646,-2.7285,-2.707,-2.6728,-2.6211,-2.6025,-2.5781,-2.5771,-2.5693,-2.5684,-2.5684,-2.5684,-2.5684,-2.5684,-2.5684,-2.5684,-2.5684,-2.5684,-2.5684,-2.5684,-2.5684,-2.5703,-2.5742,-2.5684,-2.5684,-2.5684,-2.5693,-2.5684,-2.5684,-2.5684,-2.583,-2.6152,-2.6494,-2.6816,-4.4656,-4.443,-4.3476,-4.3049,-4.2986,-4.2986,-4.2986,-4.2986,-4.2986,-4.2986,-4.2986,-4.2986,-4.2986,-4.2986,-4.2986,-4.325,-4.3388,-4.32,-4.3212,-4.3526,-4.3551,-4.3551,-4.3652,-4.3702,-4.3288,-4.3049,-4.2986,-4.2986,-4.2986,-4.2986,-4.2986,-4.2986,-4.2936,-4.2703,-4.1995,-4.1489,-4.1028,-4.0425,-3.9884,-3.8267,-3.5672,-3.2815,-3.1184,-3.0535,-3.0166,-2.9941,-2.9685,-2.9131,-2.8848,-2.876,-2.8476,-2.832,-2.8301,-2.8301,-2.8301,-2.8301,-2.8301,-2.8301,-2.8301,-2.8301,-2.8301,-2.8301,-2.8301,-2.8301,-2.8301,-2.8301,-2.8301,-2.8301,-2.8301,-2.8301,-2.8301,-2.8301,-2.8301,-2.8301,-2.8301,-2.8301,-2.8301,-2.8301,-2.8301,-2.8291,-2.8105,-2.793,-2.7666,-2.749,-2.7317,-2.6728,-2.6269,-2.6094,-2.5947,-2.5928,-2.5947,-2.6015,-2.5771,-2.5723,-2.5781,-2.5771,-2.5693,-2.5684,-2.5693,-2.5713,-2.5869,-2.5908,-2.581,-2.583,-2.581,-2.5859,-2.5957,-2.5927,-2.5762,-2.582,-2.6005,-2.6182,-2.6309,-2.668,-2.7119,-4.3966,-4.3677,-4.3501,-4.3263,-4.2999,-4.2986,-4.2986,-4.2986,-4.2986,-4.2986,-4.2986,-4.2986,-4.2986,-4.2999,-4.2986,-4.3099,-4.325,-4.3087,-4.3288,-4.3614,-4.3576,-4.3539,-4.3639,-4.3489,-4.3137,-4.3074,-4.2986,-4.2986,-4.2986,-4.2986,-4.2986,-4.2986,-4.2949,-4.2753,-4.2263,-4.1618,-4.1012,-4.0,-3.8464,-3.663,-3.4858,-3.2587,-3.0791,-3.0586,-3.0342,-3.0117,-2.9883,-2.9521,-2.915,-2.8984,-2.8701,-2.8525,-2.8359,-2.8301,-2.8301,-2.8301,-2.8301,-2.8301,-2.8301,-2.8301,-2.8301,-2.8301,-2.8301,-2.8301,-2.8301,-2.8301,-2.8301,-2.8301,-2.8301,-2.8301,-2.8301,-2.8301,-2.8301,-2.8301,-2.8301,-2.8301,-2.8301,-2.8301,-2.8301,-2.8301,-2.8281,-2.8115,-2.7939,-2.7816,-2.75,-2.7041,-2.6728,-2.6631,-2.6455,-2.6328,-2.6426,-2.6553,-2.6201,-2.5791,-2.5918,-2.5967,-2.5742,-2.5703,-2.5713,-2.585,-2.6094,-2.6143,-2.6162,-2.6328,-2.6514,-2.6514,-2.6416,-2.6299,-2.6201,-2.6318,-2.6465,-2.6631,-2.6807,-2.7119,-2.7539,-4.3689,-4.3225,-4.3489,-4.335,-4.2986,-4.2986,-4.2986,-4.2986,-4.2986,-4.2986,-4.2986,-4.2986,-4.3037,-4.3112,-4.3087,-4.3087,-4.32,-4.3049,-4.3338,-4.3501,-4.3589,-4.3614,-4.3714,-4.3476,-4.3313,-4.2986,-4.2986,-4.2986,-4.2986,-4.2986,-4.2986,-4.2986,-4.2986,-4.2773,-4.2346,-4.1802,-4.1168,-3.9766,-3.7228,-3.5601,-3.4432,-3.2268,-3.118,-3.0781,-3.0586,-3.0371,-3.0303,-2.9951,-2.9531,-2.918,-2.8935,-2.8691,-2.8379,-2.8301,-2.8301,-2.8301,-2.8301,-2.8301,-2.8301,-2.8301,-2.8301,-2.8301,-2.8301,-2.8301,-2.8301,-2.8301,-2.8301,-2.8301,-2.8301,-2.8301,-2.8301,-2.8301,-2.8301,-2.8301,-2.8301,-2.8301,-2.8301,-2.8301,-2.8301,-2.8301,-2.8301,-2.8301,-2.8135,-2.8022,-2.7685,-2.7314,-2.7158,-2.7139,-2.6953,-2.6738,-2.6758,-2.6875,-2.6641,-2.6171,-2.6123,-2.6113,-2.5879,-2.581,-2.582,-2.5986,-2.6269,-2.6494,-2.6611,-2.6826,-2.707,-2.707,-2.6943,-2.6777,-2.6621,-2.668,-2.6797,-2.7139,-2.7393,-2.7656,-2.7851,-4.4254,-4.3702,-4.325,-4.3049,-4.2986,-4.2986,-4.2986,-4.2986,-4.2986,-4.2986,-4.2986,-4.2999,-4.3237,-4.3476,-4.3275,-4.3288,-4.3664,-4.32,-4.3426,-4.3853,-4.4204,-4.4041,-4.3966,-4.3878,-4.379,-4.3112,-4.2986,-4.2986,-4.2986,-4.2986,-4.2986,-4.2986,-4.2986,-4.2961,-4.2753,-4.2221,-4.0935,-3.9333,-3.7002,-3.5263,-3.3883,-3.2135,-3.0986,-3.0898,-3.0859,-3.084,-3.081,-3.0391,-2.9961,-2.9531,-2.9189,-2.8818,-2.8506,-2.833,-2.8301,-2.8301,-2.8301,-2.8301,-2.8301,-2.8301,-2.8301,-2.8301,-2.8301,-2.8301,-2.8301,-2.8301,-2.8301,-2.8301,-2.8301,-2.8301,-2.8301,-2.8301,-2.8301,-2.8301,-2.8301,-2.8301,-2.8301,-2.8301,-2.8301,-2.8301,-2.8301,-2.8301,-2.8291,-2.8125,-2.8027,-2.7676,-2.7607,-2.7578,-2.7324,-2.7129,-2.709,-2.709,-2.7002,-2.6738,-2.6455,-2.6357,-2.6299,-2.626,-2.625,-2.6348,-2.6514,-2.6728,-2.7031,-2.7187,-2.7383,-2.7432,-2.7471,-2.7334,-2.7187,-2.7041,-2.7148,-2.751,-2.7744,-2.793,-2.8076,-4.3677,-4.3765,-4.3564,-4.3288,-4.2986,-4.2986,-4.2986,-4.2986,-4.2986,-4.2986,-4.2986,-4.2999,-4.3099,-4.3263,-4.3526,-4.3376,-4.3413,-4.3903,-4.384,-4.3827,-4.3966,-4.3966,-4.384,-4.3627,-4.3325,-4.3049,-4.2986,-4.2986,-4.2986,-4.2986,-4.2986,-4.2986,-4.2862,-4.2974,-4.2798,-4.2238,-4.0869,-3.9054,-3.7234,-3.5613,-3.3739,-3.2222,-3.1152,-3.0898,-3.0898,-3.0898,-3.0859,-3.0723,-3.0371,-2.9961,-2.9531,-2.9101,-2.8672,-2.8457,-2.833,-2.8301,-2.8301,-2.8301,-2.8301,-2.8301,-2.8301,-2.8301,-2.8301,-2.8301,-2.8301,-2.8301,-2.8301,-2.8301,-2.8301,-2.8301,-2.8301,-2.8301,-2.8301,-2.8301,-2.8301,-2.8301,-2.8301,-2.8301,-2.8301,-2.8301,-2.8301,-2.8301,-2.8301,-2.8281,-2.8193,-2.8076,-2.8047,-2.7969,-2.7715,-2.7549,-2.751,-2.7451,-2.7373,-2.7275,-2.7012,-2.6855,-2.6719,-2.666,-2.6621,-2.6787,-2.6934,-2.7197,-2.7471,-2.7598,-2.7725,-2.7832,-2.7891,-2.7871,-2.7773,-2.7627,-2.7695,-2.792,-2.8096,-2.8184,-2.8232,-4.3451,-4.3815,-4.3978,-4.3827,-4.3489,-4.3463,-4.3376,-4.3225,-4.3237,-4.3112,-4.2986,-4.2986,-4.2986,-4.3099,-4.33,-4.335,-4.325,-4.3601,-4.3727,-4.3727,-4.3702,-4.3677,-4.3514,-4.3401,-4.3313,-4.3062,-4.2986,-4.2986,-4.2986,-4.2986,-4.2625,-4.2319,-4.225,-4.2194,-4.212,-4.1836,-4.0711,-3.8868,-3.7554,-3.558,-3.3537,-3.2107,-3.1289,-3.0957,-3.0898,-3.0898,-3.0898,-3.081,-3.0605,-3.0234,-2.9863,-2.9463,-2.9033,-2.8662,-2.8437,-2.834,-2.8301,-2.8301,-2.8301,-2.8301,-2.8301,-2.8301,-2.8301,-2.8301,-2.8301,-2.8301,-2.8301,-2.8301,-2.8301,-2.8301,-2.8301,-2.8301,-2.8301,-2.8301,-2.8301,-2.8301,-2.8301,-2.8301,-2.8301,-2.8301,-2.8301,-2.8301,-2.8301,-2.8301,-2.8262,-2.8203,-2.8184,-2.8164,-2.8096,-2.7969,-2.7959,-2.7881,-2.7803,-2.7695,-2.7588,-2.7363,-2.7139,-2.6934,-2.6973,-2.7256,-2.7451,-2.7738,-2.7851,-2.7969,-2.8096,-2.8252,-2.8223,-2.8096,-2.8154,-2.8223,-2.8223,-2.8164,-2.8193,-2.8252,-2.8262,-4.3752,-4.3865,-4.4355,-4.4568,-4.4518,-4.4568,-4.4229,-4.3714,-4.3652,-4.3388,-4.3011,-4.2986,-4.2986,-4.3011,-4.3162,-4.315,-4.3087,-4.3212,-4.3237,-4.3263,-4.3589,-4.3463,-4.335,-4.3288,-4.3275,-4.3049,-4.2986,-4.2986,-4.2986,-4.2625,-4.1968,-4.1007,-4.058,-4.0407,-4.058,-4.0695,-3.9768,-3.8326,-3.7593,-3.5655,-3.3085,-3.1868,-3.1406,-3.0996,-3.0898,-3.0898,-3.0898,-3.0898,-3.0693,-3.0381,-3.0185,-2.9756,-2.9199,-2.8935,-2.8682,-2.8398,-2.832,-2.8301,-2.8301,-2.8301,-2.8301,-2.8301,-2.8301,-2.8301,-2.8301,-2.8301,-2.8301,-2.8301,-2.8301,-2.8301,-2.8301,-2.8301,-2.8301,-2.8301,-2.8301,-2.8301,-2.8301,-2.8301,-2.8301,-2.8301,-2.8301,-2.8301,-2.8301,-2.8301,-2.8301,-2.8281,-2.8291,-2.8291,-2.8281,-2.8262,-2.8193,-2.8154,-2.8057,-2.7988,-2.7861,-2.7754,-2.7559,-2.7334,-2.7344,-2.7627,-2.7822,-2.7959,-2.8125,-2.8281,-2.8301,-2.8301,-2.8301,-2.8271,-2.8301,-2.8301,-2.8301,-2.8262,-2.8291,-2.8301,-2.8301,-4.3463,-4.3853,-4.4392,-4.4844,-4.5121,-4.4769,-4.4317,-4.3802,-4.3426,-4.315,-4.3024,-4.2986,-4.2986,-4.3062,-4.3275,-4.3288,-4.3112,-4.389,-4.389,-4.3074,-4.3514,-4.3376,-4.3212,-4.3137,-4.3175,-4.3037,-4.2986,-4.2986,-4.2986,-4.2206,-4.1362,-4.0407,-3.8557,-3.8141,-3.9041,-3.9581,-3.9452,-3.7341,-3.7014,-3.621,-3.2722,-3.1982,-3.1611,-3.0957,-3.0898,-3.0898,-3.0898,-3.0898,-3.0771,-3.0576,-3.043,-3.0039,-2.959,-2.9355,-2.8867,-2.8633,-2.8516,-2.8301,-2.8301,-2.8301,-2.8301,-2.8301,-2.8301,-2.8301,-2.8301,-2.8301,-2.8301,-2.8301,-2.8301,-2.8301,-2.8301,-2.8301,-2.8301,-2.8301,-2.8301,-2.8301,-2.8301,-2.8301,-2.8301,-2.8301,-2.8301,-2.8301,-2.8301,-2.8301,-2.8301,-2.8301,-2.8301,-2.8301,-2.8291,-2.8291,-2.8262,-2.8262,-2.8213,-2.8184,-2.8115,-2.7998,-2.7969,-2.7832,-2.7851,-2.8037,-2.8184,-2.8203,-2.8232,-2.8291,-2.8301,-2.8301,-2.8301,-2.8301,-2.8301,-2.8301,-2.8301,-2.8301,-2.8301,-2.8301,-2.8301,-4.3187,-4.3564,-4.4104,-4.4543,-4.4907,-4.5108,-4.4794,-4.4041,-4.3325,-4.2986,-4.2986,-4.2986,-4.2986,-4.3087,-4.3275,-4.3401,-4.3074,-4.3614,-4.389,-4.3049,-4.33,-4.3225,-4.3062,-4.2986,-4.3024,-4.2986,-4.2986,-4.2986,-4.2918,-4.1374,-3.9931,-3.832,-3.6406,-3.5878,-3.666,-3.7435,-3.7903,-3.6456,-3.646,-3.5575,-3.3114,-3.2031,-3.1728,-3.1143,-3.0898,-3.0898,-3.0898,-3.0898,-3.0889,-3.0781,-3.0615,-3.0342,-3.0039,-2.9609,-2.9101,-2.8877,-2.8555,-2.833,-2.8301,-2.8301,-2.8301,-2.8301,-2.8301,-2.8301,-2.8301,-2.8301,-2.8301,-2.8301,-2.8301,-2.8301,-2.8301,-2.8301,-2.8301,-2.8301,-2.8301,-2.8301,-2.8301,-2.8301,-2.8301,-2.8301,-2.8301,-2.8301,-2.8301,-2.8301,-2.8301,-2.8301,-2.8301,-2.8301,-2.8301,-2.8301,-2.8301,-2.8301,-2.8301,-2.8252,-2.8242,-2.8223,-2.8223,-2.8281,-2.8291,-2.8291,-2.8281,-2.8252,-2.8281,-2.8301,-2.8301,-2.8301,-2.8301,-2.8301,-2.8301,-2.8301,-2.8301,-2.8301,-2.8301,-2.8301,-2.8301,-4.2986,-4.3062,-4.3576,-4.3827,-4.4091,-4.5347,-4.5422,-4.4468,-4.3426,-4.2986,-4.2986,-4.2986,-4.2986,-4.2986,-4.3011,-4.3011,-4.3055,-4.3099,-4.3074,-4.3024,-4.3099,-4.3011,-4.3011,-4.2986,-4.2986,-4.2986,-4.2986,-4.2986,-4.2793,-4.0892,-3.8746,-3.6284,-3.4622,-3.4205,-3.4684,-3.5283,-3.5806,-3.5499,-3.5753,-3.4655,-3.2761,-3.2199,-3.168,-3.1172,-3.0898,-3.0898,-3.0898,-3.0898,-3.0898,-3.0869,-3.085,-3.0596,-3.0254,-2.9814,-2.9375,-2.8916,-2.8467,-2.835,-2.8301,-2.8301,-2.8301,-2.8301,-2.8301,-2.8301,-2.8301,-2.8301,-2.8301,-2.8301,-2.8301,-2.8301,-2.8301,-2.8301,-2.8301,-2.8301,-2.8301,-2.8301,-2.8301,-2.8301,-2.8301,-2.8301,-2.8301,-2.8301,-2.8301,-2.8301,-2.8301,-2.8301,-2.8301,-2.8301,-2.8301,-2.8301,-2.8301,-2.8301,-2.8301,-2.8301,-2.8301,-2.8301,-2.8301,-2.8301,-2.8301,-2.8291,-2.8291,-2.8301,-2.8301,-2.8301,-2.8301,-2.8301,-2.8301,-2.8301,-2.8301,-2.8301,-2.8301,-2.8301,-2.8301,-2.8301,-2.832,-4.2986,-4.3037,-4.3564,-4.379,-4.3865,-4.433,-4.4317,-4.394,-4.3263,-4.2986,-4.2986,-4.2986,-4.2986,-4.2986,-4.2986,-4.2986,-4.2986,-4.2986,-4.2999,-4.2986,-4.2986,-4.2986,-4.2986,-4.2986,-4.2986,-4.2986,-4.2986,-4.2862,-4.2263,-4.0476,-3.7254,-3.4445,-3.3723,-3.3418,-3.3534,-3.3902,-3.4133,-3.4487,-3.515,-3.4085,-3.28,-3.2229,-3.1621,-3.1143,-3.0898,-3.0898,-3.0898,-3.0898,-3.0898,-3.0898,-3.0898,-3.0762,-3.0713,-2.999,-2.9307,-2.8564,-2.834,-2.8301,-2.8301,-2.8301,-2.8301,-2.8301,-2.8301,-2.8301,-2.8301,-2.8301,-2.8301,-2.8301,-2.8301,-2.8301,-2.8301,-2.8301,-2.8301,-2.8301,-2.8301,-2.8301,-2.8301,-2.8301,-2.8301,-2.8301,-2.8301,-2.8301,-2.8301,-2.8301,-2.8301,-2.8301,-2.8301,-2.8301,-2.8301,-2.8301,-2.8301,-2.8301,-2.8301,-2.8301,-2.8301,-2.8301,-2.8301,-2.8301,-2.8301,-2.8301,-2.8301,-2.8301,-2.8301,-2.8301,-2.8301,-2.8301,-2.8301,-2.8301,-2.8301,-2.8301,-2.8301,-2.8301,-2.8301,-2.8369,-2.8516,-4.2986,-4.3024,-4.3325,-4.3476,-4.3476,-4.3476,-4.3476,-4.3413,-4.3168,-4.2986,-4.2986,-4.2986,-4.2986,-4.2986,-4.2986,-4.2986,-4.2986,-4.2986,-4.2986,-4.2986,-4.2986,-4.2986,-4.2986,-4.2986,-4.2986,-4.2986,-4.2862,-4.2613,-4.1419,-3.8853,-3.5755,-3.3776,-3.3418,-3.3418,-3.3418,-3.3534,-3.3481,-3.3776,-3.396,-3.3593,-3.2909,-3.2139,-3.1631,-3.1084,-3.0908,-3.0898,-3.0898,-3.0898,-3.0898,-3.0898,-3.0898,-3.0889,-3.0742,-3.0049,-2.9189,-2.8516,-2.831,-2.8301,-2.8301,-2.8301,-2.8301,-2.8301,-2.8301,-2.8301,-2.8301,-2.8301,-2.8301,-2.8301,-2.8301,-2.8301,-2.8301,-2.8301,-2.8301,-2.8301,-2.8301,-2.8301,-2.8301,-2.8301,-2.8301,-2.8301,-2.8301,-2.8301,-2.8301,-2.8301,-2.8301,-2.8301,-2.8301,-2.8301,-2.8301,-2.8301,-2.8301,-2.8301,-2.8301,-2.8301,-2.8301,-2.8301,-2.8301,-2.8301,-2.8301,-2.8301,-2.8301,-2.8301,-2.8301,-2.8301,-2.8301,-2.8301,-2.8301,-2.8301,-2.8301,-2.8301,-2.834,-2.8428,-2.8506,-2.8623,-2.8818,-4.2986,-4.2986,-4.2986,-4.3024,-4.2986,-4.3011,-4.3011,-4.2986,-4.2986,-4.2986,-4.2986,-4.2986,-4.2986,-4.2986,-4.2986,-4.2986,-4.2986,-4.2986,-4.2986,-4.2986,-4.2986,-4.2986,-4.2986,-4.2986,-4.2986,-4.2986,-4.2444,-4.1419,-3.9628,-3.7484,-3.5324,-3.3471,-3.3418,-3.3418,-3.3418,-3.3418,-3.3418,-3.3471,-3.3499,-3.3204,-3.2586,-3.206,-3.1787,-3.1064,-3.0898,-3.0898,-3.0898,-3.0898,-3.0898,-3.0898,-3.0898,-3.0898,-3.0508,-3.0039,-2.9189,-2.8652,-2.8379,-2.8301,-2.8301,-2.8301,-2.8301,-2.8301,-2.8301,-2.8301,-2.8301,-2.8301,-2.8301,-2.8301,-2.8301,-2.8301,-2.8301,-2.8301,-2.8301,-2.8301,-2.8301,-2.8301,-2.8301,-2.8301,-2.8301,-2.8301,-2.8301,-2.8301,-2.8301,-2.8301,-2.8301,-2.8301,-2.8301,-2.8301,-2.8301,-2.8301,-2.8301,-2.8301,-2.8301,-2.8301,-2.8301,-2.8301,-2.8301,-2.8301,-2.8301,-2.8301,-2.8301,-2.8301,-2.8301,-2.8301,-2.8301,-2.8301,-2.8301,-2.8301,-2.8301,-2.8301,-2.8379,-2.8555,-2.8701,-2.8896,-2.9189,-4.2986,-4.2986,-4.2986,-4.2986,-4.2986,-4.2986,-4.2986,-4.2986,-4.2986,-4.2986,-4.2986,-4.2986,-4.2986,-4.2986,-4.2986,-4.2986,-4.2986,-4.2986,-4.2986,-4.2986,-4.2986,-4.2986,-4.2986,-4.2986,-4.2918,-4.2557,-4.1647,-3.9686,-3.7653,-3.6101,-3.4964,-3.3597,-3.3418,-3.3418,-3.3418,-3.3418,-3.3418,-3.3418,-3.3291,-3.2949,-3.2295,-3.206,-3.1787,-3.1182,-3.0898,-3.0898,-3.0898,-3.0898,-3.0898,-3.0898,-3.0898,-3.0713,-3.0351,-2.9844,-2.9336,-2.8838,-2.8437,-2.833,-2.8301,-2.8301,-2.8301,-2.8301,-2.8301,-2.8301,-2.8301,-2.8301,-2.8301,-2.8301,-2.8301,-2.8301,-2.8301,-2.8301,-2.8301,-2.8301,-2.8301,-2.8301,-2.8301,-2.8301,-2.8301,-2.8301,-2.8301,-2.8301,-2.8301,-2.8301,-2.8301,-2.8301,-2.8301,-2.8301,-2.8301,-2.8301,-2.8301,-2.8301,-2.8301,-2.8301,-2.8301,-2.8301,-2.8301,-2.8301,-2.8301,-2.8301,-2.8301,-2.8301,-2.8301,-2.8301,-2.8301,-2.8301,-2.8301,-2.8301,-2.8301,-2.8301,-2.8389,-2.8555,-2.9023,-2.9297,-2.9619,-4.2986,-4.2986,-4.2986,-4.2986,-4.2986,-4.2986,-4.2986,-4.2986,-4.2986,-4.2986,-4.2986,-4.2986,-4.2986,-4.2986,-4.2986,-4.2986,-4.2986,-4.2986,-4.2986,-4.2986,-4.2986,-4.2986,-4.2986,-4.2918,-4.2263,-4.1728,-3.9452,-3.7303,-3.5795,-3.485,-3.4017,-3.3471,-3.3418,-3.3418,-3.3418,-3.3418,-3.3418,-3.3408,-3.3281,-3.2822,-3.2236,-3.2141,-3.1865,-3.1328,-3.1016,-3.0947,-3.0898,-3.0898,-3.0898,-3.0898,-3.0898,-3.0459,-3.0088,-2.9697,-2.9238,-2.876,-2.8408,-2.8301,-2.8301,-2.8301,-2.8301,-2.8301,-2.8301,-2.8301,-2.8301,-2.8301,-2.8301,-2.8301,-2.8301,-2.8301,-2.8301,-2.8301,-2.8301,-2.8301,-2.8301,-2.8301,-2.8301,-2.8301,-2.8301,-2.8301,-2.8301,-2.8301,-2.8301,-2.8301,-2.8301,-2.8301,-2.8301,-2.8301,-2.8301,-2.8301,-2.8301,-2.8301,-2.8301,-2.8301,-2.8301,-2.8301,-2.8301,-2.8301,-2.8301,-2.8301,-2.8301,-2.8301,-2.8301,-2.8301,-2.8301,-2.8301,-2.8301,-2.8301,-2.8301,-2.8301,-2.8408,-2.8555,-2.9092,-2.9619,-2.9912,-4.2986,-4.2986,-4.2986,-4.2986,-4.2986,-4.2986,-4.2986,-4.2986,-4.2986,-4.2986,-4.2986,-4.2986,-4.2986,-4.2986,-4.2986,-4.2986,-4.2986,-4.2986,-4.2986,-4.2986,-4.2986,-4.2986,-4.2862,-4.2613,-4.1305,-3.9569,-3.7424,-3.6284,-3.5201,-3.432,-3.366,-3.3418,-3.3418,-3.3418,-3.3418,-3.3418,-3.3418,-3.335,-3.3154,-3.2744,-3.2402,-3.217,-3.1758,-3.1406,-3.1123,-3.0918,-3.0898,-3.0898,-3.0898,-3.0898,-3.0859,-3.0459,-3.001,-2.9658,-2.916,-2.8711,-2.8389,-2.831,-2.8301,-2.8301,-2.8301,-2.8301,-2.8301,-2.8301,-2.8301,-2.8301,-2.8301,-2.8301,-2.8301,-2.8301,-2.8301,-2.8301,-2.8301,-2.8301,-2.8301,-2.8301,-2.8301,-2.8301,-2.8301,-2.8301,-2.8301,-2.8301,-2.8301,-2.8301,-2.8301,-2.8301,-2.8301,-2.8301,-2.8301,-2.8301,-2.8301,-2.8301,-2.8301,-2.8301,-2.8301,-2.8301,-2.8301,-2.8301,-2.8301,-2.8301,-2.8301,-2.8301,-2.8301,-2.8301,-2.8301,-2.8301,-2.8301,-2.8301,-2.8301,-2.8301,-2.8359,-2.8545,-2.918,-2.9687,-3.0078,-4.2986,-4.2986,-4.2986,-4.2986,-4.2986,-4.2986,-4.2986,-4.2986,-4.2986,-4.2986,-4.2986,-4.2986,-4.2986,-4.2986,-4.2986,-4.2986,-4.2986,-4.2986,-4.2986,-4.2986,-4.2986,-4.2986,-4.2557,-4.1545,-3.9323,-3.7593,-3.6162,-3.5211,-3.4487,-3.3776,-3.3418,-3.3418,-3.3418,-3.3418,-3.3418,-3.3418,-3.3408,-3.334,-3.3213,-3.2891,-3.2461,-3.2041,-3.1426,-3.1133,-3.0937,-3.0898,-3.0898,-3.0898,-3.0898,-3.0898,-3.085,-3.0518,-3.0098,-2.9678,-2.9219,-2.873,-2.8408,-2.832,-2.8301,-2.8301,-2.8301,-2.8301,-2.8301,-2.8301,-2.8301,-2.8301,-2.8301,-2.8301,-2.8301,-2.8301,-2.8301,-2.8301,-2.8301,-2.8301,-2.8301,-2.8301,-2.8301,-2.8301,-2.8301,-2.8301,-2.8301,-2.8301,-2.8301,-2.8301,-2.8301,-2.8301,-2.8301,-2.8301,-2.8301,-2.8301,-2.8301,-2.8301,-2.8301,-2.8301,-2.8301,-2.8301,-2.8301,-2.8301,-2.8301,-2.8301,-2.8301,-2.8301,-2.8301,-2.8301,-2.8301,-2.8301,-2.8301,-2.8301,-2.8301,-2.8301,-2.8301,-2.8525,-2.9199,-2.9707,-3.0049]},{"header":{"parameterUnit":"m.s-1","parameterCategory":1,"la1":31.0,"la2":29.5877,"lo1":-88.7671,"lo2":-86.6584,"dy":0.0162,"dx":0.0185,"nx":115,"ny":88,"refTime":"2026-04-01T12:00:00:Z","depth":0,"parameterNumber":3,"parameterNumberName":"V-component_of_WINDS"},"data":[0.0,0.0,0.0,0.0,0.0,0.0,0.0,0.0,0.0,0.0,0.0,0.0,0.0,0.0,0.0,0.0,0.0,0.0,0.0,0.0,0.0,0.0,0.0,0.0,0.0,0.0,0.0,0.0,0.0,0.0,0.0,0.0,0.0,0.0,0.0,0.0,0.0,0.0,0.0,0.0,0.0,0.0,0.0,0.0,0.0,0.0,0.0,0.0,0.0,0.0,0.0,0.0,0.0,0.0,0.0,0.0,0.0,0.0,0.0,0.0,0.0,0.0,0.0,0.0,0.0,0.0,0.0,0.0,0.0,0.0,0.0,0.0,0.0,0.0,0.0,0.0,0.0,0.0,0.0,0.0,0.0,0.0,0.0,0.0,0.0,0.0,0.0,0.0,0.0,0.0,0.0,0.0,0.0,0.0,0.0,0.0,0.0,0.0,0.0,0.0,0.0,0.0,0.0,0.0,0.0,0.0,0.0,0.0,0.0,0.0,0.0,0.0,0.0,0.0,0.0,0.0,0.0,0.0,0.0,0.0,0.0,0.0,0.0,0.0,0.0,0.0,0.0,0.0,0.0,0.0,0.0,0.0,0.0,0.0,0.0,0.0,0.0,0.0,0.0,0.0,0.0,0.0,0.0,0.0,0.0,0.0,0.0,0.0,0.0,0.0,0.0,0.0,0.0,0.0,0.0,0.0,0.0,0.0,0.0,0.0,0.0,0.0,0.0,0.0,0.0,0.0,0.0,0.0,0.0,0.0,0.0,0.0,0.0,0.0,0.0,0.0,0.0,0.0,0.0,0.0,0.0,0.0,0.0,0.0,0.0,0.0,0.0,0.0,0.0,0.0,0.0,0.0,0.0,0.0,0.0,0.0,0.0,0.0,0.0,0.0,0.0,0.0,0.0,0.0,0.0,0.0,0.0,0.0,0.0,0.0,0.0,0.0,0.0,0.0,0.0,0.0,0.0,0.0,0.0,0.0,0.0,0.0,0.0,0.0,0.0,0.0,0.0,0.0,0.0,0.0,0.0,0.0,0.0,0.0,0.0,0.0,0.0,0.0,0.0,0.0,0.0,0.0,0.0,0.0,0.0,0.0,0.0,0.0,0.0,0.0,0.0,0.0,0.0,0.0,0.0,0.0,0.0,0.0,0.0,0.0,0.0,0.0,0.0,0.0,0.0,0.0,0.0,0.0,0.0,0.0,0.0,0.0,0.0,0.0,0.0,0.0,0.0,0.0,0.0,0.0,0.0,0.0,0.0,0.0,0.0,0.0,0.0,0.0,0.0,0.0,0.0,0.0,0.0,0.0,0.0,0.0,0.0,0.0,0.0,0.0,0.0,0.0,0.0,0.0,0.0,0.0,0.0,0.0,0.0,0.0,0.0,0.0,0.0,0.0,0.0,0.0,0.0,0.0,0.0,0.0,0.0,0.0,0.0,0.0,0.0,0.0,0.0,0.0,0.0,0.0,0.0,0.0,0.0,0.0,0.0,0.0,0.0,0.0,0.0,0.0,0.0,0.0,0.0,0.0,0.0,0.0,0.0,0.0,0.0,0.0,0.0,0.0,0.0,0.0,0.0,0.0,0.0,0.0,0.0,0.0,0.0,0.0,0.0,0.0,0.0,0.0,0.0,0.0,0.0,0.0,0.0,0.0,0.0,0.0,0.0,0.0,0.0,0.0,0.0,0.0,0.0,0.0,0.0,0.0,0.0,0.0,0.0,0.0,0.0,0.0,0.0,0.0,0.0,0.0,0.0,0.0,0.0,0.0,0.0,0.0,0.0,0.0,0.0,0.0,0.0,0.0,0.0,0.0,0.0,0.0,0.0,0.0,0.0,0.0,0.0,0.0,0.0,0.0,0.0,0.0,0.0,0.0,0.0,0.0,0.0,0.0,0.0,0.0,0.0,0.0,0.0,0.0,0.0,0.0,0.0,0.0,0.0,0.0,0.0,0.0,0.0,0.0,0.0,0.0,0.0,0.0,0.0,0.0,0.0,0.0,0.0,0.0,0.0,0.0,0.0,0.0,0.0,0.0,0.0,0.0,0.0,0.0,0.0,0.0,0.0,0.0,0.0,0.0,0.0,0.0,0.0,0.0,0.0,0.0,0.0,0.0,0.0,0.0,0.0,0.0,0.0,0.0,0.0,0.0,0.0,0.0,0.0,0.0,0.0,0.0,0.0,0.0,0.0,0.0,0.0,0.0,0.0,0.0,0.0,0.0,0.0,0.0,0.0,0.0,0.0,0.0,0.0,0.0,0.0,0.0,0.0,0.0,0.0,0.0,0.0,0.0,0.0,0.0,0.0,0.0,0.0,0.0,0.0,0.0,0.0,0.0,0.0,0.0,0.0,0.0,0.0,0.0,0.0,0.0,0.0,0.0,0.0,0.0,0.0,0.0,0.0,0.0,0.0,0.0,0.0,0.0,0.0,0.0,0.0,0.0,0.0,0.0,0.0,0.0,0.0,0.0,0.0,0.0,0.0,0.0,0.0,0.0,0.0,0.0,0.0,0.0,0.0,0.0,0.0,0.0,0.0,0.0,0.0,0.0,0.0,0.0,0.0,0.0,0.0,0.0,0.0,0.0,0.0,0.0,0.0,0.0,0.0,0.0,0.0,0.0,0.0,0.0,0.0,0.0,0.0,0.0,0.0,0.0,0.0,0.0,0.0,0.0,0.0,0.0,0.0,0.0,0.0,0.0,0.0,0.0,0.0,0.0,0.0,0.0,0.0,0.0,0.0,0.0,0.0,0.0,0.0,0.0,0.0,0.0,0.0,0.0,0.0,0.0,0.0,0.0,0.0,0.0,0.0,0.0,0.0,0.0,0.0,0.0,0.0,0.0,0.0,0.0,0.0,0.0,0.0,0.0,0.0,0.0,0.0,0.0,0.0,0.0,0.0,0.0,0.0,0.0,0.0,0.0,0.0,0.0,0.0,0.0,0.0,0.0,0.0,0.0,0.0,0.0,0.0,0.0,0.0,0.0,0.0,0.0,0.0,0.0,0.0,0.0,0.0,0.0,0.0,0.0,0.0,0.0,0.0,0.0,0.0,0.0,0.0,0.0,0.0,0.0,0.0,0.0,0.0,0.0,0.0,0.0,0.0,0.0,0.0,0.0,0.0,0.0,0.0,0.0,0.0,0.0,0.0,0.0,0.0,0.0,0.0,0.0,0.0,0.0,0.0,0.0,0.0,0.0,0.0,0.0,0.0,0.0,0.0,0.0,0.0,0.0,0.0,0.0,0.0,0.0,0.0,0.0,0.0,0.0,0.0,0.0,0.0,0.0,0.0,0.0,0.0,0.0,0.0,0.0,0.0,0.0,0.0,0.0,0.0,0.0,0.0,0.0,0.0,0.0,0.0,0.0,0.0,0.0,0.0,0.0,0.0,0.0,0.0,0.0,0.0,0.0,0.0,0.0,0.0,0.0,0.0,0.0,0.0,0.0,0.0,0.0,0.0,0.0,0.0,0.0,0.0,0.0,0.0,0.0,0.0,0.0,0.0,0.0,0.0,0.0,0.0,0.0,0.0,0.0,0.0,0.0,0.0,0.0,0.0,0.0,0.0,0.0,0.0,0.0,0.0,0.0,0.0,0.0,0.0,0.0,0.0,0.0,0.0,0.0,0.0,0.0,0.0,0.0,0.0,0.0,0.0,0.0,0.0,0.0,0.0,0.0,0.0,0.0,0.0,0.0,0.0,0.0,0.0,0.0,0.0,0.0,0.0,0.0,0.0,0.0,0.0,0.0,0.0,0.0,0.0,0.0,0.0,0.0,0.0,0.0,0.0,0.0,0.0,0.0,0.0,0.0,0.0,0.0,0.0,0.0,0.0,0.0,0.0,0.0,0.0,0.0,0.0,0.0,0.0,0.0,0.0,0.0,0.0,0.0,0.0,0.0,0.0,0.0,0.0,0.0,0.0,0.0,0.0,0.0,0.0,0.0,0.0,0.0,0.0,0.0,0.0,0.0,0.0,0.0,0.0,0.0,0.0,0.0,0.0,0.0,0.0,0.0,0.0,0.0,0.0,0.0,0.0,0.0,0.0,0.0,0.0,0.0,0.0,0.0,0.0,0.0,0.0,0.0,0.0,0.0,0.0,0.0,0.0,0.0,0.0,0.0,0.0,0.0,0.0,0.0,0.0,0.0,0.0,0.0,0.0,0.0,0.0,0.0,0.0,0.0,0.0,0.0,0.0,0.0,0.0,0.0,0.0,0.0,0.0,0.0,0.0,0.0,0.0,0.0,0.0,0.0,0.0,0.0,0.0,0.0,0.0,0.0,0.0,0.0,0.6697,0.0,0.0,0.0,0.0,0.0,0.0,0.0,0.0,0.0,0.0,0.0,0.0,0.0,0.0,0.0,0.0,0.0,0.0,0.0,0.0,0.0,0.0,0.0,0.0,0.0,0.0,0.0,0.0,0.0,0.0,0.0,0.0,0.0,0.0,0.0,0.0,0.0,0.0,0.0,0.0,0.0,0.0,0.0,0.0,0.0,0.0,0.0,0.0,0.0,0.0,0.0,0.0,0.0,0.0,0.0,0.0,0.0,0.0,0.0,0.0,0.0,0.0,0.0,0.0,0.0,0.0,0.0,0.0,0.0,0.0,0.0,0.0,0.0,0.0,0.0,0.0,0.0,0.0,0.0,0.0,0.0,0.0,0.0,0.0,0.0,0.0,0.0,0.0,0.0,0.0,0.0,0.0,0.0,0.0,0.0,0.0,0.0,0.0,0.0,0.0,0.0,0.0,0.0,0.0,0.0,0.0,0.0,0.0,0.0,0.0,0.8491,0.7709,0.7038,0.6311,0.5579,0.0,0.0,0.0,0.0,0.0,0.0,0.0,0.0,0.0,0.0,0.0,0.0,0.0,0.0,0.0,0.0,0.0,0.0,0.0,0.0,0.0,0.0,0.0,0.0,0.0,0.0,0.0,0.0,0.0,0.0,0.0,0.0,0.0,0.0,0.0,0.0,0.0,0.0,0.0,0.0,0.0,0.0,0.0,0.0,0.0,0.0,0.0,0.0,0.0,0.0,0.0,0.0,0.0,0.0,0.0,0.0,0.0,0.0,0.0,0.0,0.0,0.0,0.0,0.0,0.0,0.0,0.0,0.0,0.0,0.0,0.0,0.0,0.0,0.0,0.0,0.0,0.0,0.0,0.0,0.0,0.0,0.0,0.0,0.0,0.0,0.0,0.0,0.0,0.0,0.0,0.0,0.0,0.0,0.0,0.0,0.0,0.0,0.0,0.0,0.0,0.0,0.0,0.0,0.0,0.0,0.0,0.0,0.0,0.0,0.0,0.0,0.0,0.6364,0.562,0.4472,0.0,0.0,0.0,0.0,0.0,0.0,0.0,0.0,0.0,0.0,0.0,0.0,0.0,0.0,0.0,0.0,0.0,0.0,0.0,0.0,0.0,0.0,0.0,0.0,0.0,0.0,0.0,0.0,0.0,0.0,0.0,0.0,0.0,0.0,0.0,0.0,0.0,0.0,0.0,0.0,0.0,0.0,0.0,0.0,0.0,0.0,0.0,0.0,0.0,0.0,0.0,0.0,0.0,0.0,0.0,0.0,0.0,0.0,0.0,0.0,0.0,0.0,0.0,0.0,0.0,0.0,0.0,0.0,0.0,0.0,0.0,0.0,0.0,0.0,0.0,0.0,0.0,0.0,0.0,0.0,0.0,0.0,0.0,0.0,0.0,0.0,0.0,0.0,0.0,0.0,0.0,0.0,0.0,0.0,0.0,0.0,0.0,0.0,0.0,0.0,0.0,0.0,0.0,0.0,0.0,0.0,0.0,0.0,0.0,0.0,0.8211,0.6758,0.5419,0.0,0.4166,0.0,0.0,0.0,0.0,0.0,0.0,0.0,0.0,0.0,0.0,0.0,0.0,0.0,0.0,0.0,0.0,0.0,0.0,0.0,0.0,0.0,0.0,0.0,0.0,0.0,0.0,0.0,0.0,0.0,0.0,0.0,0.0,0.0,0.0,0.0,0.0,0.0,0.0,0.0,0.0,0.0,0.0,0.0,0.0,0.0,0.0,0.0,0.0,0.0,0.0,0.0,0.0,0.0,0.0,0.0,0.0,0.0,0.0,0.0,0.0,0.0,0.0,0.0,0.0,0.0,0.0,0.0,0.0,0.0,0.0,0.0,0.0,0.0,0.0,0.0,0.0,0.0,0.0,0.0,0.0,0.0,0.0,0.0,0.0,0.0,0.0,0.0,0.0,0.0,0.0,0.0,0.0,0.0,0.0,0.0,0.0,0.0,0.0,0.0,0.0,0.0,0.0,0.0,0.0,0.0,0.0,0.0,0.0,0.0,0.0,0.7762,0.5472,0.4704,0.4242,0.0,0.0,0.0,0.0,0.0,0.0,0.0,0.0,0.0,0.0,0.0,0.0,0.0,0.0,0.0,0.0,0.0,0.0,0.0,0.0,0.0,0.0,0.0,0.0,0.0,0.0,0.0,0.0,0.0,0.0,0.0,0.0,0.0,0.0,0.0,0.0,0.0,0.0,0.0,0.0,0.0,0.0,0.0,0.0,0.0,0.0,0.0,0.0,0.0,0.0,0.0,0.0,0.0,0.0,0.0,0.0,0.0,0.0,0.0,0.0,0.0,0.0,0.0,0.0,0.0,0.0,0.0,0.0,0.0,0.0,0.0,0.0,0.0,0.0,0.0,0.0,0.0,0.0,0.0,0.0,0.0,0.0,0.0,0.0,0.0,0.0,0.0,0.0,0.0,0.0,0.0,0.0,0.0,0.0,0.0,0.0,0.0,0.0,0.0,0.0,0.0,0.0,0.0,0.0,0.0,0.0,0.0,0.0,0.0,0.0,0.9644,0.7482,0.4691,0.3975,0.3745,0.4032,0.0,0.0,0.0,0.0,0.0,0.0,0.0,0.0,0.0,0.0,0.0,0.0,0.0,0.0,0.0,0.0,0.0,0.0,0.0,0.0,0.0,0.0,0.0,0.0,0.0,0.0,0.0,0.0,0.0,0.0,0.0,0.0,0.0,0.0,0.0,0.0,0.0,0.0,0.0,0.0,0.0,0.0,0.0,0.0,0.0,0.0,0.0,0.0,0.0,0.0,0.0,0.0,0.0,0.0,0.0,0.0,0.0,0.0,0.0,0.0,0.0,0.0,0.0,0.0,0.0,0.0,0.0,0.0,0.0,0.0,0.0,0.0,0.0,0.0,0.0,0.0,0.0,0.0,0.0,0.0,0.0,0.0,0.0,0.0,0.0,0.0,0.0,0.0,0.0,0.0,0.0,0.0,0.0,0.0,0.0,0.0,0.0,0.0,0.0,0.0,0.0,0.0,0.0,0.0,0.0,0.0,0.0,0.0,1.1109,0.9644,0.7485,0.4582,0.3071,0.2857,0.0,0.0,0.0,0.0,0.0,0.0,0.0,0.0,0.0,0.0,0.0,0.0,0.0,0.0,0.0,0.0,0.0,0.0,0.0,0.0,0.0,0.0,0.0,0.0,0.0,0.0,0.0,0.0,0.0,0.0,0.0,0.0,0.0,0.0,0.0,0.0,0.0,0.0,0.0,0.0,0.0,0.0,0.0,0.0,0.0,0.0,0.0,0.0,0.0,0.0,0.0,0.0,0.0,0.0,0.0,0.0,0.0,0.0,0.0,0.0,0.0,0.0,0.0,0.0,0.0,0.0,0.0,0.0,0.0,0.0,0.0,0.0,0.0,0.0,0.0,0.0,0.0,0.0,0.0,0.0,0.0,0.0,0.0,0.0,0.0,0.0,0.0,0.0,0.0,0.0,0.0,0.0,0.0,0.0,0.0,0.0,0.0,0.0,0.0,0.0,0.0,0.0,0.0,0.0,0.0,0.0,0.0,0.0,0.0,1.2344,0.8339,0.5586,0.4524,0.2956,0.2688,0.0,0.0,0.0,0.0,0.0,0.0,0.0,0.0,0.0,0.0,0.0,0.0,0.0,0.0,0.0,0.0,0.0,0.0,0.0,0.0,0.0,0.0,0.0,0.0,0.0,0.0,0.0,0.0,0.0,0.0,0.0,0.0,0.0,0.0,0.0,0.0,0.0,0.0,0.0,0.0,0.0,0.0,0.0,0.0,0.0,0.0,0.0,0.0,0.0,0.0,0.0,0.0,0.0,0.0,0.0,0.0,0.0,0.0,0.0,0.0,0.0,0.0,0.0,0.0,0.0,0.0,0.0,0.0,0.0,0.0,0.0,0.0,0.0,0.0,0.0,0.0,0.0,0.0,0.0,0.0,0.0,0.0,0.0,0.0,0.0,0.0,0.0,0.0,0.0,0.0,0.0,0.0,0.0,0.0,0.0,0.0,0.0,0.0,0.0,0.0,0.0,0.0,0.0,0.0,0.0,0.0,0.0,0.0,0.0,1.1751,0.0,0.447,0.4411,0.245,0.2192,0.0,0.0,0.0,0.0,0.0,0.0,0.0,0.0,0.0,0.0,0.0,0.0,0.0,0.0,0.0,0.0,0.0,0.0,0.0,0.0,0.0,0.0,0.0,0.0,0.0,0.0,0.0,0.0,0.0,0.0,0.0,0.0,0.0,0.0,0.0,0.0,0.0,0.0,0.0,0.0,0.0,0.0,0.0,0.0,0.0,0.0,0.0,0.0,0.0,0.0,0.0,0.0,0.0,0.0,0.0,0.0,0.0,0.0,0.0,0.0,0.0,0.0,0.0,0.0,0.0,0.0,0.0,0.0,0.0,0.0,0.0,0.0,0.0,0.0,0.0,0.0,0.0,0.0,0.0,0.0,0.0,0.0,0.0,0.0,0.0,0.0,0.0,0.0,0.0,0.0,0.0,0.0,0.0,0.0,0.0,0.0,0.0,0.0,0.0,0.0,0.0,0.0,0.0,0.0,0.0,0.0,0.0,0.0,1.1919,0.8992,0.6139,0.4636,0.447,0.1652,0.13,0.0,0.0,0.0,0.0,0.0,0.0,0.0,0.0,0.0,0.0,0.0,0.0,0.0,0.0,0.0,0.0,0.0,0.0,0.0,0.0,0.0,0.0,0.0,0.0,0.0,0.0,0.0,0.0,0.0,0.0,0.0,0.0,0.0,0.0,0.0,0.0,0.0,0.0,0.0,0.0,0.0,0.0,0.0,0.0,0.0,0.0,0.0,0.0,0.0,0.0,0.0,0.0,0.0,0.0,0.0,0.0,0.0,0.0,0.0,0.0,0.0,0.0,0.0,0.0,0.0,0.0,0.0,0.0,0.0,0.0,0.0,0.0,0.0,0.0,0.0,0.0,0.0,0.0,0.0,0.0,0.0,0.0,0.0,0.0,0.0,0.0,0.0,0.0,0.0,0.0,0.0,0.0,0.0,0.0,0.0,0.0,0.0,0.0,0.0,0.0,0.0,0.0,0.0,0.0,0.0,0.0,0.0,0.0,0.0,0.8989,0.8014,0.6564,0.4522,0.2532,0.2272,0.0,0.0,0.0,0.0,0.0,0.0,0.0,0.0,0.0,0.0,0.0,0.0,0.0,0.0,0.0,0.0,0.0,0.0,0.0,0.0,0.0,0.0,0.0,0.0,0.0,0.0,0.0,0.0,0.0,0.0,0.0,0.0,0.0,0.0,0.0,0.0,0.0,0.0,0.0,0.0,0.0,0.0,0.0,0.0,0.0,0.0,0.0,0.0,0.0,0.0,0.0,0.0,0.0,0.0,0.0,0.0,0.0,0.0,0.0,0.0,0.0,0.0,0.0,0.0,0.0,0.0,0.0,0.0,0.0,0.0,0.0,0.0,0.0,0.0,0.0,0.0,0.0,0.0,0.0,0.0,0.0,0.0,0.0,0.0,0.0,0.0,0.0,0.0,0.0,0.0,0.0,0.0,0.0,0.0,0.0,0.0,0.0,0.0,0.0,0.0,0.0,0.0,0.0,0.0,0.0,0.0,0.0,0.0,0.0,1.0186,0.9304,0.7871,0.5518,0.3952,0.3697,0.4827,0.0,0.0,0.0,0.0,0.0,0.0,0.0,0.0,0.0,0.0,0.0,0.0,0.0,0.0,0.0,0.0,0.0,0.0,0.0,0.0,0.0,0.0,0.0,0.0,0.0,0.0,0.0,0.0,0.0,0.0,0.0,0.0,0.0,0.0,0.0,0.0,0.0,0.0,0.0,0.0,0.0,0.0,0.0,0.0,0.0,0.0,0.0,0.0,0.0,0.0,0.0,0.0,0.0,0.0,0.0,0.0,0.0,0.0,0.0,0.0,0.0,0.0,0.0,0.0,0.0,0.0,0.0,0.0,0.0,0.0,0.0,0.0,0.0,0.0,0.0,0.0,0.0,0.0,0.0,0.0,0.0,0.0,0.0,0.0,0.0,0.0,0.0,0.0,0.0,0.0,0.0,0.0,0.0,0.0,0.0,0.0,0.0,0.0,0.0,0.0,0.0,0.0,0.0,0.0,0.0,0.0,0.0,0.0,1.2098,1.0341,0.8708,0.7102,0.5642,0.529,0.0,0.0,0.0,0.0,0.0,0.0,0.0,0.0,0.0,0.0,0.0,0.0,0.0,0.0,0.0,0.0,0.0,0.0,0.0,0.0,0.0,0.0,0.0,0.0,0.0,0.0,0.0,0.0,0.0,0.0,0.0,0.0,0.0,0.0,0.0,0.0,0.0,0.0,0.0,0.0,0.0,0.0,0.0,0.0,0.0,0.0,0.0,0.0,0.0,0.0,0.0,0.0,0.0,0.0,0.0,0.0,0.0,0.0,0.0,0.0,0.0,0.0,0.0,0.0,0.0,0.0,0.0,0.0,0.0,0.0,0.0,0.0,0.0,0.0,0.0,0.0,0.0,0.0,0.0,0.0,0.0,0.0,0.0,0.0,0.0,0.0,0.0,0.0,0.0,0.0,0.0,0.0,0.0,0.0,0.0,0.0,0.0,0.0,0.0,0.0,0.0,0.0,0.0,0.0,0.0,0.0,0.0,0.0,0.0,1.4653,1.3835,1.1534,0.764,0.6963,0.6637,0.0,0.0,0.0,0.0,0.0,0.0,0.0,0.0,0.0,0.0,0.0,0.0,0.0,0.0,0.0,0.0,0.0,0.0,0.0,0.0,0.0,0.0,0.0,0.0,0.0,0.0,0.0,0.0,0.0,0.0,0.0,0.0,0.0,0.0,0.0,0.0,0.0,0.0,0.0,0.0,0.0,0.0,0.0,0.0,0.0,0.0,0.0,0.0,0.0,0.0,0.0,0.0,0.0,0.0,0.0,0.0,0.0,0.0,0.0,0.0,0.0,0.0,0.0,0.0,0.0,0.0,0.0,0.0,0.0,0.0,0.0,0.0,0.0,0.0,0.0,0.0,0.0,0.0,0.0,0.0,0.0,0.0,0.0,0.0,0.0,0.0,0.0,0.0,0.0,0.0,0.0,0.0,0.0,0.0,0.0,0.0,0.0,0.0,0.0,0.0,0.0,0.0,0.0,0.0,0.0,0.0,0.0,0.0,1.7998,1.6214,1.5668,1.368,1.0011,0.9023,0.8272,0.0,0.0,0.0,0.0,0.0,0.0,0.0,0.0,0.0,0.0,0.0,0.0,0.0,0.0,0.0,0.0,0.0,0.0,0.0,0.0,0.0,0.0,0.0,0.0,0.0,0.0,0.0,0.0,0.0,0.0,0.0,0.0,0.0,0.0,0.0,0.0,0.0,0.0,0.0,0.0,0.0,0.0,0.0,0.0,0.0,0.0,0.0,0.0,0.0,0.0,0.0,0.0,0.0,0.0,0.0,0.0,0.0,0.0,0.0,0.0,0.0,0.0,0.0,0.0,0.0,0.0,0.0,0.0,0.0,0.0,0.0,0.0,0.0,0.0,0.0,0.0,0.0,0.0,0.0,0.0,0.0,0.0,0.0,0.0,0.0,0.0,0.0,0.0,0.0,0.0,0.0,0.0,0.0,0.0,0.0,0.0,0.0,0.0,0.0,0.0,0.0,0.0,0.0,0.0,0.0,0.0,0.0,0.0,1.8763,1.7473,1.6728,1.5381,1.3435,1.1262,0.9717,0.0,0.0,0.0,0.0,0.0,0.0,0.0,0.0,0.0,0.0,0.0,0.0,0.0,0.0,0.0,0.0,0.0,0.0,0.0,0.0,0.0,0.0,0.0,0.0,0.0,0.0,0.0,0.0,0.0,0.0,0.0,0.0,0.0,0.0,0.0,0.0,0.0,0.0,0.0,0.0,0.0,0.0,0.0,0.0,0.0,0.0,0.0,0.0,0.0,0.0,0.0,0.0,0.0,0.0,0.0,0.0,0.0,0.0,0.0,0.0,0.0,0.0,0.0,0.0,0.0,0.0,0.0,0.0,0.0,0.0,0.0,0.0,0.0,0.0,0.0,0.0,0.0,0.0,0.0,0.0,0.0,0.0,0.0,0.0,0.0,0.0,0.0,0.0,0.0,0.0,0.0,0.0,0.0,0.0,0.0,0.0,0.0,0.0,0.0,0.0,0.0,0.0,0.0,0.0,0.0,0.0,0.0,0.0,1.9655,2.0164,1.8876,1.7212,1.5346,1.1881,0.9812,0.0,0.0,0.0,0.0,0.0,0.0,0.0,0.0,0.0,0.0,0.0,0.0,0.0,0.0,0.0,0.0,0.0,0.0,0.0,0.0,0.0,0.0,0.0,0.0,0.0,0.0,0.0,0.0,0.0,0.0,0.0,0.0,0.0,0.0,0.0,0.0,0.0,0.0,0.0,0.0,0.0,0.0,0.0,0.0,0.0,0.0,0.0,0.0,0.7837,0.0,0.0,0.0,0.0,0.0,0.0,0.0,0.0,0.0,0.0,0.0,0.0,0.0,0.0,0.0,0.0,0.0,0.0,0.0,0.0,0.0,0.0,0.0,0.0,0.0,0.0,0.0,0.0,0.0,0.0,0.0,0.0,0.0,0.0,0.0,0.0,0.0,0.0,0.0,0.0,0.0,0.0,0.0,0.0,0.0,0.0,0.0,0.0,0.0,0.0,0.0,0.0,0.0,0.0,0.0,0.0,0.0,0.0,0.0,2.0208,2.1758,1.9737,1.8133,1.6987,1.4135,1.1898,0.0,0.0,0.0,0.0,0.0,0.0,0.0,0.0,0.0,0.0,0.0,0.0,0.0,0.0,0.0,0.0,0.0,0.0,0.0,0.0,0.0,0.0,0.0,0.0,0.0,0.0,0.0,0.0,0.0,0.0,0.0,0.0,0.0,0.0,0.0,0.0,0.0,0.0,0.0,0.0,0.0,0.0,0.0,0.0,0.0,0.0,0.0,0.0,0.0,0.0,0.0,0.0,0.0,0.0,0.0,0.0,0.0,0.0,0.0,0.0,0.0,0.0,0.0,0.0,0.0,0.0,0.0,0.0,0.0,0.0,0.0,0.0,0.0,0.0,0.0,0.0,0.0,0.0,0.0,0.0,0.0,0.0,0.0,0.0,0.0,0.0,0.0,0.0,0.0,0.0,0.0,0.0,0.0,0.0,0.0,0.0,0.0,0.0,0.0,0.0,0.0,0.0,0.0,0.0,0.0,0.0,0.0,2.1099,2.1059,2.3013,2.065,1.9069,1.867,1.6768,1.4696,1.2356,0.0,0.0,0.0,0.0,0.0,0.0,0.0,0.0,0.0,0.0,0.0,0.0,0.0,0.0,0.0,0.0,0.0,0.0,0.0,0.0,0.0,0.0,0.0,0.0,0.0,0.0,0.0,0.0,0.0,0.0,0.0,0.0,0.0,0.0,0.0,0.0,0.0,0.0,2.2781,2.1139,0.0,0.0,0.0,0.0,0.0,0.0,0.0,0.0,0.9801,0.0,0.0,0.0,0.0,0.0,0.0,0.0,0.0,0.0,0.0,0.0,0.0,0.0,0.0,0.0,0.0,0.0,0.0,0.0,0.0,0.0,0.0,0.0,0.0,0.0,0.0,0.0,0.0,0.0,0.0,0.0,0.0,0.0,0.0,0.0,0.0,0.0,0.0,0.0,0.0,0.0,0.0,0.0,0.0,0.0,0.0,0.0,0.0,0.0,0.0,0.0,0.0,0.0,0.0,0.0,0.0,2.3624,2.3263,2.3834,2.5408,2.367,2.2004,2.035,1.824,1.6651,1.5736,0.0,0.0,0.0,0.0,0.0,0.0,0.0,0.0,0.0,0.0,0.0,0.0,0.0,0.0,0.0,0.0,0.0,0.0,0.0,0.0,0.0,0.0,0.0,0.0,0.0,0.0,0.0,0.0,0.0,0.0,0.0,0.0,0.0,0.0,0.0,0.0,0.0,0.0,0.0,2.2939,2.1619,0.0,0.0,0.0,0.0,0.0,0.0,0.0,0.0,1.118,0.0,0.0,0.0,0.0,0.0,0.0,0.0,0.0,0.0,0.0,0.0,0.0,0.0,0.0,0.0,0.0,0.0,0.0,0.0,0.0,0.0,0.0,0.0,0.0,0.0,0.0,0.0,0.0,0.0,0.0,0.0,0.0,0.0,0.0,0.0,0.0,0.0,0.0,0.0,0.0,0.0,0.0,0.0,0.0,0.0,0.0,0.0,0.0,0.0,0.0,0.0,0.0,0.0,0.0,0.0,2.6289,2.5386,2.5713,2.7514,2.5974,2.4193,2.2229,2.0853,1.9089,0.0,0.0,0.0,0.0,0.0,0.0,0.0,0.0,0.0,0.0,0.0,0.0,0.0,0.0,0.0,0.0,0.0,0.0,0.0,0.0,0.0,0.0,0.0,0.0,0.0,0.0,0.0,0.0,0.0,0.0,0.0,0.0,0.0,0.0,0.0,0.0,0.0,0.0,0.0,0.0,2.4655,2.4085,2.3935,0.0,0.0,0.0,0.0,0.0,0.0,1.5379,1.4388,0.0,0.0,0.0,0.0,0.0,0.0,0.0,0.0,0.0,0.0,0.0,0.0,0.0,0.0,0.0,0.0,0.0,0.0,0.0,0.0,0.0,0.0,0.0,0.0,0.0,0.0,0.0,0.0,0.0,0.0,0.0,0.0,0.0,0.0,0.0,0.0,0.0,0.0,0.0,0.0,0.0,0.0,0.0,0.0,0.0,0.0,0.0,0.0,0.0,0.0,0.0,0.0,0.0,0.0,0.0,2.8723,2.7416,2.7608,2.941,2.7965,2.6302,2.4602,2.3216,2.1101,0.0,0.0,0.0,0.0,0.0,0.0,0.0,0.0,0.0,0.0,0.0,0.0,0.0,0.0,0.0,0.0,0.0,0.0,0.0,0.0,0.0,0.0,0.0,0.0,0.0,0.0,0.0,0.0,0.0,0.0,0.0,0.0,0.0,0.0,0.0,0.0,0.0,0.0,0.0,0.0,0.0,2.6556,2.5317,2.4897,0.0,0.0,0.0,0.0,1.8878,1.8525,0.0,0.0,0.0,0.0,0.0,0.0,0.0,0.0,0.0,0.0,0.0,0.0,0.0,0.0,0.0,0.0,0.0,0.0,0.0,0.0,0.0,0.0,0.0,0.0,0.0,0.0,0.0,0.0,0.0,0.0,0.0,0.0,0.0,0.0,0.0,0.0,0.0,0.0,0.0,0.0,0.0,0.0,0.0,0.0,0.0,0.0,0.0,0.0,0.0,0.0,0.0,0.0,0.0,0.0,0.0,0.0,2.8832,2.9418,3.0209,3.1088,2.9646,2.8512,2.7803,2.4027,2.1575,0.0,0.0,0.0,0.0,0.0,0.0,0.0,0.0,0.0,0.0,0.0,0.0,0.0,0.0,0.0,0.0,0.0,0.0,0.0,0.0,0.0,0.0,0.0,0.0,0.0,0.0,0.0,0.0,0.0,0.0,0.0,0.0,0.0,0.0,0.0,0.0,0.0,0.0,0.0,0.0,0.0,2.8495,2.7467,2.7332,2.6599,0.0,0.0,2.2184,2.0868,2.0311,0.0,0.0,0.0,0.0,0.0,0.0,0.0,0.0,0.0,0.0,0.0,0.0,0.0,0.0,0.0,0.0,0.0,0.0,0.0,0.0,0.0,0.0,0.0,0.0,0.0,0.0,0.0,0.0,0.0,0.0,0.0,0.0,0.0,0.0,0.0,0.0,0.0,0.0,0.0,0.0,0.0,0.0,0.0,0.0,0.0,0.0,0.0,0.0,0.0,0.0,0.0,0.0,0.0,0.0,0.0,2.7891,2.8935,3.0498,3.1494,3.1875,3.1252,3.0055,2.8435,2.5791,2.3435,0.0,0.0,0.0,0.0,0.0,0.0,0.0,0.0,0.0,0.0,0.0,0.0,0.0,0.0,0.0,0.0,0.0,0.0,0.0,0.0,0.0,0.0,0.0,0.0,0.0,0.0,0.0,0.0,0.0,0.0,0.0,0.0,0.0,0.0,0.0,0.0,0.0,0.0,0.0,0.0,0.0,0.0,2.8442,2.8767,0.0,0.0,0.0,2.6325,2.5595,0.0,0.0,0.0,0.0,0.0,0.0,0.0,0.0,0.0,0.0,0.0,0.0,0.0,0.0,0.0,0.0,0.0,0.0,0.0,0.0,0.0,0.0,0.0,0.0,0.0,0.0,0.0,0.0,0.0,0.0,0.0,0.0,0.0,0.0,0.0,0.0,0.0,0.0,0.0,0.0,0.0,0.0,0.0,0.0,0.0,0.0,0.0,0.0,0.0,0.0,0.0,0.0,0.0,0.0,0.0,0.0,0.0,2.9515,3.1896,3.3203,3.3315,3.3214,3.1979,2.9641,2.7921,0.0,0.0,0.0,0.0,0.0,0.0,0.0,0.0,0.0,0.0,0.0,0.0,0.0,0.0,0.0,0.0,0.0,0.0,0.0,0.0,0.0,0.0,0.0,0.0,0.0,0.0,0.0,2.0457,0.0,0.0,0.0,0.0,0.0,0.0,0.0,0.0,0.0,0.0,0.0,0.0,0.0,0.0,2.9567,2.9796,3.0566,3.1112,0.0,0.0,2.9818,2.9184,2.8852,2.7624,0.0,0.0,0.0,0.0,0.0,0.0,0.0,0.0,0.0,0.0,0.0,0.0,0.0,0.0,0.0,0.0,0.0,0.0,0.0,0.0,0.0,0.0,0.0,0.0,0.0,0.0,0.0,0.0,0.0,0.0,0.0,0.0,0.0,0.0,0.0,0.0,0.0,0.0,0.0,0.0,0.0,0.0,0.0,0.0,0.0,0.0,0.0,0.0,0.0,0.0,0.0,0.0,0.0,0.0,0.0,3.119,3.4119,3.5832,3.6367,3.59,3.4736,3.283,3.0234,2.7645,0.0,0.0,0.0,0.0,0.0,0.0,0.0,0.0,0.0,0.0,0.0,0.0,0.0,0.0,0.0,0.0,0.0,0.0,0.0,0.0,0.0,0.0,0.0,0.0,0.0,0.0,0.0,0.0,0.0,0.0,0.0,0.0,0.0,0.0,0.0,0.0,0.0,0.0,0.0,0.0,0.0,3.2439,3.2047,3.3366,3.4036,0.0,3.2247,3.1225,2.9772,3.0527,2.9804,2.5592,0.0,0.0,0.0,0.0,0.0,0.0,0.0,0.0,0.0,0.0,0.0,0.0,0.0,0.0,0.0,0.0,0.0,0.0,0.0,0.0,0.0,0.0,0.0,0.0,0.0,0.0,0.0,0.0,0.0,0.0,0.0,0.0,0.0,0.0,0.0,0.0,0.0,0.0,0.0,0.0,0.0,0.0,0.0,0.0,0.0,0.0,0.0,0.0,0.0,0.0,0.0,0.0,0.0,2.995,3.0945,3.4197,3.6128,3.6643,3.615,3.5446,3.447,3.2641,3.0047,0.0,0.0,0.0,0.0,0.0,0.0,0.0,0.0,0.0,0.0,0.0,0.0,0.0,0.0,0.0,0.0,0.0,0.0,0.0,0.0,0.0,0.0,0.0,0.0,0.0,0.0,0.0,0.0,2.3328,2.3673,2.4531,0.0,0.0,0.0,0.0,0.0,0.0,0.0,0.0,0.0,0.0,3.4257,3.5149,3.5587,0.0,0.0,3.454,3.331,3.2414,3.1709,3.035,2.7488,2.6225,0.0,0.0,0.0,0.0,0.0,0.0,0.0,0.0,0.0,0.0,0.0,0.0,0.0,0.0,0.0,0.0,0.0,0.0,0.0,0.0,0.0,0.0,0.0,0.0,0.0,0.0,0.0,0.0,0.0,0.0,0.0,0.0,0.0,0.0,0.0,0.0,0.0,0.0,0.0,0.0,0.0,0.0,0.0,0.0,0.0,0.0,0.0,0.0,0.0,0.0,0.0,0.0,3.0361,3.1367,3.51,3.7264,3.7818,3.733,3.6683,3.5988,3.4886,3.2585,0.0,0.0,0.0,0.0,0.0,0.0,0.0,0.0,0.0,0.0,0.0,0.0,0.0,0.0,0.0,0.0,0.0,0.0,0.0,0.0,0.0,0.0,0.0,0.0,0.0,0.0,0.0,0.0,2.4749,2.5122,2.5493,0.0,0.0,0.0,0.0,0.0,0.0,0.0,0.0,0.0,0.0,3.6098,3.7292,3.691,3.6741,3.7401,3.5856,3.4632,3.4568,3.3508,3.1921,2.9787,0.0,0.0,0.0,0.0,0.0,0.0,0.0,0.0,0.0,0.0,0.0,0.0,0.0,0.0,0.0,0.0,0.0,0.0,0.0,0.0,0.0,0.0,0.0,0.0,0.0,0.0,0.0,2.6367,0.0,0.0,2.5781,0.0,0.0,0.0,0.0,0.0,0.0,0.0,0.0,0.0,0.0,0.0,0.0,0.0,0.0,0.0,0.0,0.0,0.0,0.0,0.0,0.0,0.0,3.1831,3.2905,3.7251,3.9817,4.0342,3.9882,3.8868,3.7506,3.697,3.5371,3.2387,0.0,0.0,0.0,0.0,0.0,0.0,0.0,0.0,0.0,0.0,0.0,0.0,0.0,0.0,0.0,0.0,0.0,0.0,0.0,0.0,0.0,0.0,0.0,0.0,0.0,0.0,2.4791,2.6258,2.7189,0.0,0.0,0.0,0.0,0.0,0.0,0.0,0.0,0.0,0.0,3.5938,3.809,3.809,3.7207,3.6952,3.7798,3.6014,3.4895,3.5884,3.5961,3.5108,0.0,0.0,0.0,0.0,0.0,0.0,0.0,0.0,0.0,0.0,0.0,0.0,0.0,0.0,0.0,0.0,0.0,0.0,0.0,0.0,0.0,0.0,0.0,0.0,0.0,0.0,0.0,2.9338,2.9435,0.0,0.0,0.0,0.0,0.0,0.0,0.0,0.0,0.0,0.0,0.0,3.5612,3.5673,0.0,0.0,0.0,0.0,0.0,0.0,0.0,0.0,0.0,0.0,0.0,0.0,3.2278,3.419,3.7811,3.9961,4.0488,3.9973,3.9478,3.8973,3.8481,3.6405,3.2536,0.0,0.0,0.0,0.0,0.0,0.0,0.0,0.0,0.0,0.0,0.0,0.0,0.0,0.0,0.0,0.0,0.0,0.0,0.0,0.0,0.0,0.0,0.0,0.0,0.0,2.5407,0.0,0.0,0.0,0.0,0.0,0.0,0.0,0.0,0.0,0.0,0.0,3.3862,3.5018,3.7368,3.9133,3.9571,3.9005,3.882,0.0,0.0,0.0,0.0,0.0,0.0,0.0,0.0,0.0,0.0,0.0,0.0,0.0,0.0,3.4695,3.1463,3.0553,3.0123,2.9572,0.0,0.0,0.0,0.0,0.0,0.0,0.0,0.0,0.0,0.0,0.0,0.0,0.0,0.0,3.2948,0.0,3.1916,0.0,0.0,0.0,0.0,0.0,0.0,0.0,0.0,3.7658,3.8797,4.0034,4.0034,3.9838,0.0,3.8252,3.6128,0.0,0.0,0.0,0.0,0.0,0.0,0.0,0.0,3.3028,3.469,3.7963,3.9873,4.0187,3.9873,3.9697,3.9672,3.8956,3.6898,3.3306,2.9487,2.6778,0.0,0.0,0.0,0.0,0.0,0.0,0.0,0.0,0.0,0.0,0.0,0.0,0.0,0.0,0.0,0.0,0.0,0.0,0.0,0.0,0.0,0.0,0.0,2.7118,0.0,0.0,0.0,0.0,0.0,0.0,0.0,0.0,0.0,3.3908,3.5297,3.6777,3.7981,3.9486,4.0537,4.0807,0.0,0.0,0.0,0.0,0.0,0.0,0.0,3.7237,3.6514,3.705,3.7573,3.7575,3.9365,4.0674,4.0229,0.0,0.0,3.5669,3.4282,3.3532,3.2962,3.2492,3.2283,3.2548,3.3321,3.3879,0.0,0.0,0.0,0.0,0.0,0.0,0.0,0.0,3.6095,3.6005,0.0,3.4249,0.0,0.0,0.0,0.0,0.0,3.8779,0.0,0.0,4.4761,4.5378,4.3921,4.3832,4.3899,4.3829,4.2625,4.1768,4.0872,3.4755,0.0,0.0,0.0,0.0,0.0,0.0,3.4162,3.4702,3.7988,3.9697,3.971,3.9697,3.9697,3.9672,3.863,3.6998,3.4872,3.3214,3.1139,2.8539,2.6873,0.0,0.0,0.0,0.0,0.0,0.0,0.0,0.0,0.0,0.0,0.0,0.0,0.0,0.0,0.0,0.0,0.0,0.0,0.0,0.0,2.8648,0.0,0.0,0.0,0.0,0.0,0.0,0.0,0.0,0.0,0.0,3.7995,3.8317,3.9291,4.1372,0.0,0.0,0.0,0.0,4.1355,4.1945,4.0604,3.9888,4.088,4.1021,4.0972,4.0972,0.0,0.0,4.0419,4.1274,4.1804,4.05,4.1853,4.2142,3.9291,3.758,3.6317,3.5733,3.5516,3.526,3.4978,3.6122,3.684,4.7055,0.0,0.0,0.0,0.0,4.3014,4.3704,4.4477,4.4158,4.3639,4.291,4.1834,0.0,0.0,0.0,0.0,0.0,0.0,4.2371,4.3926,4.4719,4.5475,4.6145,4.6173,4.6173,4.6131,4.5419,4.4519,4.3493,4.1214,3.7533,3.2692,0.0,0.0,0.0,0.0,3.5481,3.6514,3.8592,3.9697,3.9697,3.9697,3.9697,3.9697,3.9007,3.7941,3.6514,3.4835,3.2896,3.0722,2.9005,0.0,0.0,0.0,0.0,0.0,0.0,0.0,0.0,0.0,0.0,0.0,0.0,0.0,0.0,0.0,0.0,0.0,0.0,0.0,3.0748,3.0811,3.1191,0.0,0.0,0.0,0.0,0.0,0.0,0.0,0.0,0.0,4.2431,4.1656,4.0828,0.0,0.0,4.1706,4.0578,4.1601,4.26,4.2699,4.2314,0.0,4.2397,4.2116,4.186,4.186,4.296,4.3873,4.4035,4.4836,4.5273,4.4866,4.4354,4.3668,4.2927,4.1852,4.0625,3.952,3.9137,3.8866,3.8271,3.8489,3.8668,5.3464,5.1011,4.8052,4.6955,4.7155,4.7331,4.7963,4.8833,4.8583,4.8194,4.7652,4.6409,4.5059,4.3756,4.2663,0.0,0.0,0.0,4.51,4.721,4.7196,4.7749,4.8709,4.8738,4.8738,4.8709,4.8109,4.7357,4.6404,4.5213,4.2388,3.7995,0.0,0.0,3.4974,3.6948,3.8346,3.9066,4.0435,4.0982,4.0465,3.9981,3.9697,3.9685,3.9676,3.9336,3.8643,3.7129,3.569,3.4311,3.2111,3.0265,0.0,0.0,0.0,0.0,0.0,0.0,0.0,0.0,0.0,0.0,0.0,2.9745,2.9535,0.0,0.0,0.0,3.2568,3.3437,3.4089,3.3509,0.0,0.0,0.0,0.0,0.0,0.0,0.0,3.9337,4.104,4.2635,4.3939,4.3481,4.2808,4.2207,4.2542,4.2446,4.1389,0.0,4.3603,4.3626,4.367,4.3684,4.3622,4.3357,4.3148,4.3148,4.3933,4.4705,4.5162,4.5664,4.5906,4.5826,4.5152,4.4493,4.4493,4.3993,4.3133,4.1557,4.1213,4.0927,4.008,3.9935,3.9829,5.808,5.7455,5.1432,4.9249,4.9707,4.9232,4.9839,5.1085,5.061,5.0666,5.0904,4.8848,4.7544,4.6803,4.4093,0.0,4.7119,4.7076,4.8519,5.1214,5.1229,5.1229,5.1229,5.1182,5.1229,5.1152,5.051,4.9898,4.9194,4.7355,4.5585,4.3834,4.2162,4.0904,4.0232,4.1174,4.1768,4.172,4.273,4.2821,4.1739,4.0605,3.9981,4.0032,4.0562,4.087,4.0949,3.9832,3.9004,3.8432,3.5863,3.385,3.2634,0.0,0.0,0.0,0.0,0.0,0.0,0.0,0.0,0.0,0.0,0.0,0.0,0.0,0.0,0.0,3.456,0.0,3.7698,3.6593,0.0,0.0,0.0,3.7105,3.9302,4.0146,4.0763,4.1304,0.0,0.0,4.3494,4.4181,4.4899,4.5464,4.474,4.3929,4.3358,4.3911,4.4467,4.4535,4.4671,4.4671,4.4513,4.448,4.4429,4.4429,4.4598,4.4615,4.4632,4.4649,4.4632,4.4699,4.4598,4.4587,4.457,4.4564,4.4109,4.252,4.2173,4.1836,4.1013,4.0777,4.0603,5.8164,5.681,5.438,5.3806,5.4547,5.4856,5.4988,5.4892,5.4745,5.4495,5.4046,5.3059,5.222,5.1513,5.0309,5.0203,5.0885,5.0347,5.0517,5.1214,5.1229,5.1229,5.1229,5.1229,5.1229,5.1169,5.051,4.9912,4.9284,4.8297,4.6864,4.4986,4.4497,4.2592,3.9463,4.0731,4.1308,4.0962,4.1603,4.2318,4.3033,4.2738,4.2606,4.2593,4.1803,4.1656,4.2199,4.1031,4.0341,4.0175,3.9125,3.7815,3.6225,3.3835,0.0,0.0,0.0,0.0,0.0,0.0,0.0,0.0,0.0,3.2315,3.0944,0.0,3.3825,0.0,3.6832,3.859,4.0054,3.9467,0.0,0.0,4.1065,4.1214,4.2273,4.3065,4.3149,4.2156,4.3388,4.4299,4.4344,4.4976,4.551,4.561,4.4964,4.4219,4.3536,4.4539,4.5168,4.4761,4.5043,4.5229,4.4716,4.4598,4.4598,4.4598,4.4598,4.4598,4.4598,4.4598,4.4598,4.4598,4.4598,4.4598,4.4598,4.4598,4.4468,4.4018,4.3456,4.2724,4.1885,4.1691,4.1642,5.858,5.7701,5.672,5.6128,5.5696,5.4671,5.4453,5.4767,5.4782,5.4967,5.5149,5.4506,5.4012,5.3578,5.2621,5.2187,5.2142,5.1513,5.1229,5.1229,5.1229,5.1229,5.1229,5.1229,5.1229,5.1199,5.051,4.9912,4.9314,4.8596,4.7563,4.6202,4.6187,4.4704,4.1961,4.209,4.2121,4.1909,4.2202,4.2978,4.4232,4.3523,4.2918,4.2595,4.2181,4.1984,4.2121,4.1204,4.0578,4.028,3.9228,3.8076,3.6872,3.5017,3.3725,0.0,0.0,0.0,0.0,0.0,0.0,0.0,0.0,0.0,0.0,0.0,3.6535,3.752,3.9255,4.0804,4.1979,4.1794,4.2173,4.3656,4.3554,4.3764,4.4795,4.4722,4.4384,4.3893,4.4293,4.4598,4.4615,4.4942,4.5196,4.5196,4.4869,4.4445,4.4096,4.4705,4.5043,4.4716,4.4953,4.5077,4.4649,4.4598,4.4598,4.4598,4.4598,4.4598,4.4581,4.431,4.4164,4.4513,4.4299,4.4198,4.453,4.4598,4.4598,4.4542,4.4207,4.3575,4.2785,4.2599,4.252,5.8946,5.8619,5.7979,5.6563,5.4525,5.1863,5.1476,5.2749,5.2764,5.3568,5.491,5.4506,5.4281,5.4132,5.289,5.2276,5.2157,5.1513,5.1229,5.1229,5.1229,5.1229,5.1229,5.1229,5.1229,5.1184,5.042,4.9823,4.9254,4.8521,4.7788,4.707,4.704,4.6381,4.505,4.3858,4.3319,4.3404,4.3562,4.4196,4.534,4.3571,4.2304,4.1806,4.2065,4.2064,4.1657,4.1013,4.0478,3.9939,3.8448,3.7418,3.6934,3.5775,3.5156,0.0,3.4361,0.0,0.0,0.0,0.0,0.0,0.0,0.0,0.0,3.8509,3.9803,4.0603,4.1796,4.2901,4.3764,4.3939,4.451,4.5785,4.5399,4.5529,4.6599,4.5579,4.4925,4.55,4.4976,4.4598,4.4598,4.4598,4.4598,4.4649,4.4632,4.4581,4.4581,4.4615,4.4632,4.4598,4.4598,4.4632,4.4445,4.4412,4.4333,4.4327,4.4192,4.4327,4.4198,4.3707,4.3487,4.4028,4.3792,4.3673,4.4344,4.4513,4.4598,4.4598,4.4542,4.4281,4.3651,4.3472,4.3199,5.802,5.6304,5.5736,5.43,5.2169,5.1142,5.1047,5.155,5.1535,5.2304,5.3608,5.4581,5.4715,5.4162,5.3354,5.271,5.2172,5.1513,5.1229,5.1229,5.1229,5.1229,5.1229,5.1229,5.1229,5.1154,5.0017,4.9434,4.9284,4.8072,4.6875,4.5708,4.5678,4.502,4.3723,0.0,0.0,0.0,4.4426,4.506,4.5238,4.3891,4.3089,4.2957,4.204,0.0,4.286,4.1816,4.1413,4.1843,4.1533,0.0,0.0,0.0,0.0,0.0,0.0,0.0,0.0,0.0,0.0,0.0,4.0834,4.0478,3.9572,4.133,4.287,4.3605,4.4484,4.5337,4.609,4.6696,4.7177,4.7432,4.7331,4.7175,4.6836,4.6007,4.5331,4.4852,4.4682,4.4598,4.4598,4.4598,4.4598,4.4598,4.4598,4.4598,4.4598,4.4598,4.4598,4.4598,4.4564,4.4316,4.3741,4.3656,4.3436,4.2912,4.2709,4.276,4.2848,4.2685,4.2506,4.2821,4.3098,4.342,4.3595,4.4147,4.4496,4.4581,4.4581,4.4542,4.4384,4.4338,4.4327,5.8248,0.0,5.6241,5.4788,0.0,5.2219,5.1654,5.1272,5.1832,5.2847,5.4221,5.4895,5.4835,5.4132,5.2815,5.1858,5.1184,4.9868,4.9643,5.0242,5.0257,5.0601,5.1229,5.1229,5.1229,5.1169,4.9928,4.9299,4.9239,4.7938,4.6965,4.6292,4.6292,4.5963,4.5304,4.5248,4.4975,4.4347,4.4975,4.5618,4.6217,4.5319,4.4456,4.3798,4.2847,0.0,0.0,0.0,0.0,0.0,0.0,0.0,0.0,0.0,0.0,4.251,4.1693,4.1507,4.2253,4.2367,4.2886,4.3929,4.4677,4.4469,4.3006,4.4247,4.5377,4.6109,4.6561,4.709,4.7817,4.824,4.8443,4.8426,4.78,4.7192,4.6769,4.5821,4.5038,4.4699,4.4598,4.4598,4.4598,4.4598,4.4598,4.4598,4.4598,4.4598,4.4598,4.4598,4.4598,4.4581,4.4198,4.3876,4.346,4.3037,4.276,4.2388,4.2303,4.2445,4.2715,4.2441,4.2304,4.2629,4.2757,4.2765,4.2848,4.32,4.3481,4.3487,4.3758,4.3995,4.4028,4.4327,4.4598,5.8635,5.7902,5.7319,5.6062,5.4341,5.3773,5.292,5.1957,0.0,0.0,0.0,5.5074,5.4835,5.4102,5.2366,5.1199,5.0435,4.8775,4.8581,4.9598,4.9659,5.0182,5.1199,5.1229,5.1229,5.1154,4.9898,4.9299,4.9254,4.7952,4.7309,4.7309,4.7309,4.7309,4.7309,4.7309,4.6756,4.5693,4.5409,4.5828,4.6875,4.6082,4.5095,4.4003,4.3329,4.2554,4.1701,4.1656,4.1849,4.2193,4.2231,4.2661,4.3541,4.3622,4.3913,4.461,4.4746,4.5166,4.5877,4.6025,4.6413,4.7124,4.775,4.7547,4.6194,4.6769,4.7428,4.8024,4.8075,4.8328,4.8951,4.9001,4.9018,4.9001,4.7682,4.6802,4.6701,4.5495,4.4632,4.4598,4.4598,4.4598,4.4598,4.4598,4.4598,4.4598,4.4598,4.4598,4.4598,4.4598,4.4598,4.4547,4.4012,4.3392,4.3122,4.2574,4.21,4.1813,4.1901,4.2236,4.2561,4.2371,4.2274,4.2511,4.2327,4.2179,4.2123,4.2286,4.2286,4.2303,4.2895,4.3403,4.347,4.4028,4.4581,5.8381,5.7244,5.7139,5.6301,5.5044,5.494,5.4805,5.4566,5.359,5.3311,5.3533,5.4685,5.482,5.4162,5.3294,5.2546,5.1887,5.105,5.0765,5.093,5.0945,5.1035,5.1214,5.1229,5.1229,5.1109,4.9883,4.9299,4.9164,4.7952,4.7309,4.7309,4.7309,4.7309,4.7309,4.7309,4.7204,4.701,4.5888,4.5379,4.5559,4.3878,4.2875,4.2665,4.2043,4.2002,4.2572,4.2623,4.2993,4.3815,4.3882,4.4266,4.5108,4.5203,4.5551,4.6361,4.646,4.6789,4.7484,4.7605,4.7919,4.8612,4.8798,4.8494,4.7716,4.8274,4.8748,4.8849,4.8815,4.8883,4.9001,4.9018,4.9001,4.8883,4.7665,4.6786,4.6718,4.5512,4.4598,4.4598,4.4598,4.4598,4.4598,4.4598,4.4598,4.4598,4.4598,4.4598,4.4598,4.4598,4.4598,4.4513,4.3927,4.32,4.254,4.1847,4.1187,4.0502,4.0884,4.1257,4.1446,4.1761,4.182,4.136,4.1782,4.1874,4.1511,4.188,4.2083,4.2151,4.2726,4.3291,4.3335,4.3978,4.4581,5.8321,5.7154,5.7094,5.6361,5.5194,5.5194,5.5194,5.5149,5.4551,5.4266,5.4341,5.4925,5.4625,5.3593,5.2576,5.1573,5.0571,4.9553,4.9479,5.0122,5.0167,5.0541,5.1184,5.1229,5.1229,5.1139,5.0257,4.9613,4.9239,4.8297,4.7668,4.7339,4.7309,4.7309,4.7309,4.7309,4.7309,4.7279,4.6696,4.6217,4.5843,4.4975,4.4167,4.3449,4.312,4.3265,4.3845,4.3888,4.4543,4.5976,4.6043,4.6454,4.7318,4.7381,4.7569,4.7956,4.8003,4.8139,4.8477,4.8511,4.8663,4.8968,4.9018,4.8866,4.8545,4.8815,4.9001,4.9018,4.9018,4.9018,4.9018,4.9018,4.8849,4.8443,4.7445,4.665,4.616,4.528,4.4615,4.4598,4.4598,4.4598,4.4598,4.4598,4.4598,4.4598,4.4598,4.4598,4.4581,4.4215,4.3961,4.3876,4.3301,4.2557,4.183,4.1085,4.0519,4.013,4.0552,4.0995,4.1313,4.1874,4.1976,4.1552,4.1708,4.1534,4.0831,4.0874,4.1077,4.123,4.2066,4.2675,4.2912,4.3735,4.453,5.8201,5.7094,5.6944,5.6226,5.5209,5.5194,5.5194,5.5179,5.5029,5.497,5.497,5.497,5.4296,5.3163,5.1962,5.09,4.9853,4.8716,4.876,4.9674,4.9748,5.0257,5.1139,5.1229,5.1229,5.1139,5.051,4.9912,4.9299,4.864,4.7952,4.7369,4.7309,4.7309,4.7309,4.7309,4.7309,4.7309,4.7309,4.6995,4.6309,4.6187,4.5514,4.4421,4.4379,4.4623,4.5073,4.5322,4.6189,4.777,4.7901,4.8257,4.894,4.9018,4.9018,4.9018,4.9018,4.9018,4.9018,4.9018,4.9018,4.9018,4.9018,4.9001,4.9018,4.9018,4.9018,4.9018,4.9018,4.9018,4.9018,4.9018,4.8765,4.8159,4.7327,4.6616,4.5991,4.5145,4.4598,4.4598,4.4598,4.4598,4.4598,4.4598,4.4598,4.4598,4.4598,4.4598,4.453,4.4028,4.3656,4.3098,4.254,4.1897,4.1238,4.0595,4.0256,4.0229,4.0774,4.1335,4.1856,4.242,4.242,4.1895,4.1639,4.1293,4.0507,4.0205,4.0281,4.0517,4.1384,4.2151,4.2658,4.3656,4.4547,5.7782,5.7049,5.6496,5.5903,5.5194,5.5179,5.5164,5.5074,5.4551,5.4296,5.4266,5.4296,5.3862,5.3159,5.2396,5.1962,5.1753,5.1169,5.087,5.096,5.1035,5.1109,5.1214,5.1229,5.1229,5.1139,5.0524,4.9942,4.9299,4.8581,4.7952,4.7369,4.7309,4.7309,4.7309,4.7309,4.7309,4.7309,4.7309,4.698,4.6294,4.5708,4.505,4.4347,4.4594,4.5179,4.6032,4.6884,4.7803,4.8767,4.8861,4.8909,4.9001,4.9018,4.9018,4.9018,4.9018,4.9018,4.9018,4.9018,4.9018,4.9018,4.9018,4.9018,4.9018,4.9018,4.9018,4.9018,4.9018,4.9018,4.9018,4.9018,4.8934,4.8697,4.7564,4.6752,4.6464,4.5432,4.4598,4.4598,4.4598,4.4598,4.4598,4.4598,4.4598,4.4598,4.4598,4.4598,4.4581,4.4395,4.3775,4.2692,4.1796,4.1356,4.1068,4.0587,4.0322,4.0679,4.1291,4.1814,4.2264,4.25,4.2519,4.208,4.1424,4.1064,4.085,4.0473,4.0311,4.0673,4.122,4.1762,4.2963,4.3961,4.453,5.7498,5.6541,5.6271,5.5553,5.4685,5.461,5.4371,5.3982,5.3728,5.3399,5.3039,5.3025,5.2875,5.2576,5.2306,5.2007,5.1603,5.1334,5.1229,5.1229,5.1229,5.1229,5.1229,5.1229,5.1229,5.1214,5.0898,5.0272,4.9299,4.8222,4.7563,4.7339,4.7309,4.7309,4.7309,4.7309,4.7309,4.7309,4.7309,4.6995,4.6322,4.5648,4.5066,4.4662,4.4725,4.5541,4.685,4.7406,4.8047,4.8892,4.9018,4.9018,4.9018,4.9018,4.9018,4.9018,4.9018,4.9018,4.9018,4.9018,4.9018,4.9018,4.9018,4.9018,4.9018,4.9018,4.9018,4.9018,4.9018,4.9018,4.9018,4.9018,4.8849,4.8342,4.7411,4.6633,4.616,4.5229,4.4598,4.4598,4.4598,4.4598,4.4598,4.4598,4.4598,4.4598,4.4598,4.4598,4.4581,4.4198,4.3453,4.2506,4.1677,4.1052,4.0663,4.035,4.0246,4.0497,4.1218,4.1937,4.2142,4.2519,4.2596,4.236,4.1789,4.1424,4.1446,4.0972,4.0672,4.0963,4.1534,4.2185,4.3234,4.4028,4.4513,5.69,5.6248,5.5987,5.5254,5.4221,5.4206,5.3817,5.3189,5.2995,5.2636,5.2202,5.2022,5.1932,5.1932,5.1932,5.1663,5.1274,5.1229,5.1229,5.1229,5.1229,5.1229,5.1229,5.1229,5.1229,5.1229,5.1214,5.0541,4.9284,4.7952,4.7309,4.7309,4.7309,4.7309,4.7309,4.7309,4.7309,4.7309,4.7309,4.698,4.6352,4.609,4.5696,4.5177,4.5379,4.624,4.7523,4.7836,4.8289,4.8954,4.9018,4.9018,4.9018,4.9018,4.9018,4.9018,4.9018,4.9018,4.9018,4.9018,4.9018,4.9018,4.9018,4.9018,4.9018,4.9018,4.9018,4.9018,4.9018,4.9018,4.9018,4.9018,4.8765,4.824,4.7411,4.6566,4.6075,4.5213,4.4598,4.4598,4.4598,4.4598,4.4598,4.4598,4.4598,4.4598,4.4598,4.4598,4.4547,4.4096,4.3453,4.2472,4.183,4.1153,4.0333,4.0113,4.0121,4.0514,4.1236,4.1853,4.1997,4.248,4.2693,4.248,4.2101,4.181,4.1621,4.1291,4.0832,4.0941,4.1528,4.2354,4.2878,4.3842,4.4479,5.5643,5.6032,5.5478,5.4775,5.4192,5.4147,5.3773,5.2995,5.2501,5.2217,5.2067,5.1558,5.1274,5.1304,5.1334,5.1259,5.1229,5.1229,5.1229,5.1229,5.1229,5.1229,5.1229,5.1229,5.1229,5.1214,5.1139,5.0466,4.9239,4.7952,4.7309,4.7309,4.7309,4.7309,4.7309,4.7309,4.7309,4.7309,4.7309,4.701,4.6539,4.7227,4.7011,4.6057,4.684,4.7489,4.7721,4.8465,4.894,4.9001,4.9018,4.9018,4.9018,4.9018,4.9018,4.9018,4.9018,4.9018,4.9018,4.9018,4.9018,4.9018,4.9018,4.9018,4.9018,4.9018,4.9018,4.9018,4.9018,4.9018,4.9018,4.9018,4.8951,4.8748,4.7597,4.6853,4.6667,4.5348,4.4699,4.4598,4.4598,4.4598,4.4598,4.4598,4.4598,4.4598,4.4598,4.4598,4.4581,4.453,4.3853,4.276,4.2134,4.1728,4.0468,4.0113,4.0319,4.0601,4.1099,4.1916,4.2362,4.2693,4.2655,4.2539,4.2018,4.1725,4.1682,4.1366,4.0871,4.0962,4.1622,4.2286,4.2591,4.3707,4.4412,5.5448,5.4865,5.4192,5.3518,5.295,5.292,5.2546,5.1917,5.1663,5.1573,5.1528,5.1319,5.1229,5.1229,5.1229,5.1229,5.1229,5.1229,5.1229,5.1229,5.1229,5.1229,5.1229,5.1229,5.1229,5.1169,5.0749,4.9927,4.8671,4.7728,4.7309,4.7309,4.7309,4.7309,4.7309,4.7309,4.7309,4.7309,4.7309,4.7189,4.7061,4.8131,4.8484,4.807,4.8183,4.8349,4.8498,4.8829,4.9018,4.9018,4.9018,4.9018,4.9018,4.9018,4.9018,4.9018,4.9018,4.9018,4.9018,4.9018,4.9018,4.9018,4.9018,4.9018,4.9018,4.9018,4.9018,4.9018,4.9018,4.9018,4.9018,4.9018,4.8798,4.8274,4.7428,4.6616,4.6058,4.5196,4.4598,4.4598,4.4598,4.4598,4.4598,4.4598,4.4598,4.4598,4.4598,4.4598,4.4598,4.4598,4.4073,4.2787,4.2252,4.1805,4.0333,4.0113,4.0204,4.0441,4.0844,4.142,4.1895,4.1895,4.1832,4.25,4.2059,4.1828,4.1868,4.1783,4.125,4.1061,4.1728,4.2168,4.2303,4.3616,4.431,5.4895,5.3877,5.3369,5.2815,5.2217,5.2187,5.1813,5.1259,5.1229,5.1229,5.1229,5.1229,5.1229,5.1229,5.1229,5.1229,5.1229,5.1229,5.1229,5.1229,5.1229,5.1229,5.1229,5.1229,5.1229,5.1124,5.051,4.9568,4.8416,4.8057,4.7728,4.7339,4.7504,4.7504,4.7354,4.7309,4.7309,4.7309,4.7309,4.7409,4.7858,4.9016,4.97,4.9803,4.9844,4.9658,4.9359,4.9137,4.9018,4.9018,4.9018,4.9018,4.9018,4.9018,4.9018,4.9018,4.9018,4.9018,4.9018,4.9018,4.9018,4.9018,4.9018,4.9018,4.9018,4.9018,4.9018,4.9018,4.9018,4.9018,4.9018,4.9018,4.8714,4.7986,4.7242,4.6498,4.5788,4.506,4.4666,4.4598,4.4598,4.4598,4.4598,4.4598,4.4598,4.4598,4.4598,4.4598,4.4598,4.4547,4.4056,4.2658,4.232,4.161,4.0553,4.0113,4.0113,4.0286,4.0577,4.1082,4.1358,4.1268,4.1512,4.22,4.2379,4.2202,4.2078,4.2053,4.1788,4.1409,4.1728,4.2252,4.2794,4.3582,4.4209,5.3847,5.3264,5.3174,5.274,5.2142,5.2082,5.1783,5.1274,5.1229,5.1229,5.1229,5.1229,5.1229,5.1229,5.1229,5.1229,5.1229,5.1229,5.1229,5.1229,5.1229,5.1229,5.1229,5.1139,5.099,5.09,5.0435,4.9538,4.8356,4.879,4.8521,4.7668,4.7952,4.7878,4.7309,4.7309,4.7309,4.7309,4.7309,4.7737,4.8743,4.971,5.0392,5.0752,5.1546,5.1406,5.0152,4.9441,4.9086,4.9018,4.9018,4.9018,4.9018,4.9018,4.9018,4.9018,4.9018,4.9018,4.9018,4.9018,4.9018,4.9018,4.9018,4.9018,4.9018,4.9018,4.9018,4.9018,4.9018,4.9018,4.9018,4.9018,4.8714,4.7956,4.7259,4.6498,4.5788,4.5043,4.4598,4.4598,4.4598,4.4598,4.4598,4.4598,4.4598,4.4598,4.4598,4.4598,4.4598,4.4598,4.3938,4.2828,4.2286,4.1745,4.0874,4.0113,4.0113,4.0171,4.0497,4.0874,4.1133,4.1178,4.1573,4.2175,4.27,4.2546,4.2758,4.2647,4.2134,4.188,4.2202,4.2489,4.3014,4.3639,4.4242,5.3803,5.3159,5.268,5.2127,5.1558,5.1528,5.1379,5.1229,5.1229,5.1229,5.1229,5.1229,5.1229,5.1229,5.1229,5.1229,5.1229,5.1229,5.1229,5.1229,5.1229,5.1229,5.1139,5.0734,5.0077,4.9389,4.9479,4.9149,4.8566,4.897,4.8805,4.8192,4.8177,4.7938,4.7369,4.7309,4.7309,4.7309,4.7309,4.7495,4.7919,4.9512,5.0438,5.0628,5.1657,5.1826,5.0913,5.0152,4.9526,4.9052,4.9018,4.9018,4.9018,4.9018,4.9018,4.9018,4.9018,4.9018,4.9018,4.9018,4.9018,4.9018,4.9018,4.9018,4.9018,4.9018,4.9018,4.9018,4.9018,4.9018,4.9018,4.9018,4.8697,4.7956,4.7242,4.6515,4.5805,4.5077,4.4666,4.4598,4.4598,4.4598,4.4598,4.4598,4.4598,4.4598,4.4598,4.4598,4.4598,4.4598,4.4248,4.3267,4.2709,4.2033,4.1255,4.0519,4.018,4.0197,4.0438,4.0594,4.0803,4.1087,4.153,4.2118,4.2635,4.3033,4.3224,4.3108,4.2581,4.2557,4.2912,4.3098,4.3183,4.3656,4.4344,5.3817,5.3129,5.2471,5.1828,5.1244,5.1229,5.1229,5.1229,5.1229,5.1229,5.1229,5.1229,5.1229,5.1229,5.1229,5.1229,5.1229,5.1229,5.1229,5.1229,5.1229,5.1229,5.1184,5.0825,4.9927,4.9045,4.9568,4.9508,4.8775,4.9508,4.9538,4.879,4.8685,4.8371,4.7683,4.7414,4.7309,4.7309,4.7309,4.7495,4.8099,4.9512,5.0605,5.1053,5.2126,5.2166,5.1269,5.0744,5.0033,4.9204,4.9018,4.9018,4.9018,4.9018,4.9018,4.9018,4.9018,4.9018,4.9018,4.9018,4.9018,4.9018,4.9018,4.9018,4.9018,4.9018,4.9018,4.9018,4.9018,4.9018,4.9018,4.9018,4.8781,4.8362,4.7394,4.6532,4.5805,4.5297,4.5072,4.4993,4.4818,4.4649,4.4598,4.4598,4.4598,4.4598,4.4598,4.4598,4.4598,4.4598,4.4113,4.3538,4.2777,4.2168,4.1677,4.1001,4.0333,4.0299,4.0383,4.0413,4.0473,4.0744,4.1116,4.1992,4.2626,4.31,4.3349,4.3352,4.3115,4.3386,4.3487,4.3341,4.3375,4.3978,4.4547,5.3847,5.3129,5.2516,5.1872,5.1274,5.1229,5.1229,5.1229,5.1229,5.1229,5.1229,5.1229,5.1229,5.1229,5.1229,5.1229,5.1229,5.1229,5.1229,5.1229,5.1214,5.1184,5.1003,5.096,5.0272,4.9508,5.0376,5.0361,4.9464,5.0436,5.0586,4.9479,4.9299,4.894,4.8252,4.7653,4.7399,4.7324,4.7309,4.7722,4.8569,4.9829,5.0741,5.1651,5.27,5.2723,5.142,5.0896,5.027,4.9204,4.9018,4.9018,4.9018,4.9018,4.9018,4.9018,4.9018,4.9018,4.9018,4.9018,4.9018,4.9018,4.9018,4.9018,4.9018,4.9018,4.9018,4.9018,4.9018,4.9018,4.9018,4.9018,4.8951,4.8765,4.7699,4.6718,4.594,4.572,4.5568,4.5483,4.506,4.4598,4.4598,4.4598,4.4598,4.4598,4.4598,4.4598,4.4598,4.4513,4.4198,4.3656,4.3064,4.2658,4.2286,4.1627,4.1044,4.1077,4.0993,4.0815,4.0746,4.0974,4.155,4.2351,4.276,4.3186,4.3602,4.3783,4.3745,4.3758,4.369,4.3494,4.3758,4.4316,4.4547,5.4251,5.3189,5.2995,5.2276,5.1304,5.1229,5.1229,5.1229,5.1229,5.1229,5.1229,5.1229,5.1229,5.1229,5.1229,5.1229,5.1229,5.1229,5.1229,5.1229,5.1229,5.0868,5.0539,5.0465,5.0107,4.9523,5.0167,5.0255,5.0062,5.0825,5.0765,5.0017,4.9927,4.9389,4.8416,4.8117,4.7758,4.7369,4.7309,4.7381,4.7919,4.9512,5.0474,5.0908,5.254,5.2622,5.1251,5.0135,4.9475,4.9086,4.9018,4.9018,4.9018,4.9018,4.9018,4.9018,4.9018,4.9018,4.9018,4.9018,4.9018,4.9018,4.9018,4.9018,4.9018,4.9018,4.9018,4.9018,4.9018,4.9018,4.9018,4.9018,4.8798,4.8257,4.7868,4.7327,4.6633,4.6024,4.5703,4.5618,4.506,4.4733,4.4598,4.4598,4.4598,4.4598,4.4598,4.4598,4.4598,4.4581,4.4378,4.4181,4.3741,4.3369,4.2912,4.2252,4.188,4.1931,4.183,4.1619,4.1656,4.185,4.2733,4.3717,4.3431,4.3657,4.4281,4.4697,4.449,4.4096,4.413,4.4079,4.4198,4.4581,4.4581,5.4416,5.3174,5.3174,5.2426,5.1289,5.1229,5.1229,5.1229,5.1229,5.1229,5.1229,5.1229,5.1229,5.1229,5.1229,5.1229,5.1229,5.1229,5.1229,5.1229,5.1229,5.0808,5.0405,5.0405,5.0316,4.9808,5.0331,5.0631,5.0659,5.1003,5.0975,5.0599,5.033,4.9703,4.879,4.8386,4.7967,4.7429,4.7309,4.7309,4.7467,4.9327,5.0242,5.0698,5.203,5.2283,5.0811,4.961,4.9018,4.9018,4.9018,4.9018,4.9018,4.9018,4.9018,4.9018,4.9018,4.9018,4.9018,4.9018,4.9018,4.9018,4.9018,4.9018,4.9018,4.9018,4.9018,4.9018,4.9018,4.9018,4.9018,4.9018,4.8815,4.8528,4.8345,4.8054,4.7344,4.6938,4.6515,4.6126,4.5551,4.4891,4.4654,4.4615,4.4598,4.4598,4.4598,4.4598,4.4598,4.4598,4.4564,4.4367,4.413,4.3707,4.3403,4.2861,4.2625,4.2675,4.2709,4.2489,4.2402,4.2578,4.3048,4.3718,4.3837,4.4093,4.4578,4.4906,4.4663,4.4462,4.4581,4.4598,4.4598,4.4598,4.4598,5.4401,5.3174,5.3174,5.2411,5.1319,5.1229,5.1229,5.1229,5.1229,5.1229,5.1229,5.1229,5.1229,5.1229,5.1229,5.1229,5.1229,5.1229,5.1229,5.1229,5.1184,5.093,5.0524,5.0838,5.081,5.0466,5.096,5.1124,5.1124,5.1199,5.1229,5.1035,5.0554,5.0047,4.9374,4.8775,4.8072,4.7578,4.7354,4.7309,4.7651,4.9247,5.032,5.0568,5.1451,5.1507,5.0371,4.9424,4.9018,4.9018,4.9018,4.9018,4.9018,4.9018,4.9018,4.9018,4.9018,4.9018,4.9018,4.9018,4.9018,4.9018,4.9018,4.9018,4.9018,4.9018,4.9018,4.9018,4.9018,4.9018,4.9018,4.9018,4.8984,4.8866,4.8934,4.8663,4.8206,4.7939,4.7618,4.6955,4.6244,4.5432,4.4942,4.4649,4.4598,4.4598,4.4598,4.4598,4.4598,4.4598,4.4598,4.4547,4.4248,4.3927,4.3707,4.3498,4.3403,4.3403,4.3504,4.3369,4.3064,4.3131,4.3179,4.3434,4.397,4.4303,4.45,4.4637,4.4598,4.4598,4.4598,4.4598,4.4598,4.4598,4.4598,5.4401,5.3174,5.3174,5.2426,5.1334,5.1229,5.1229,5.1229,5.1229,5.1229,5.1229,5.1229,5.1229,5.1229,5.1229,5.1229,5.1229,5.1229,5.1229,5.1229,5.1229,5.1169,5.1005,5.1169,5.1124,5.102,5.1063,5.1214,5.1229,5.1229,5.1229,5.1169,5.102,5.0614,4.9957,4.9269,4.8775,4.8087,4.7578,4.7309,4.7694,4.9287,5.0419,5.0542,5.1121,5.0951,5.0168,4.939,4.9035,4.9018,4.9018,4.9018,4.9018,4.9018,4.9018,4.9018,4.9018,4.9018,4.9018,4.9018,4.9018,4.9018,4.9018,4.9018,4.9018,4.9018,4.9018,4.9018,4.9018,4.9018,4.9018,4.9018,4.9018,4.9018,4.9001,4.8951,4.8714,4.8244,4.7902,4.7462,4.6532,4.5652,4.5432,4.4852,4.4699,4.4632,4.4598,4.4598,4.4598,4.4598,4.4598,4.4598,4.4479,4.4198,4.413,4.4005,4.3972,4.391,4.4012,4.4079,4.3775,4.3752,4.3809,4.4028,4.4344,4.4564,4.4598,4.4598,4.4598,4.4598,4.4598,4.4598,4.4598,4.4598,4.475,5.4132,5.3174,5.286,5.2142,5.1304,5.1229,5.1229,5.1229,5.1229,5.1229,5.1229,5.1229,5.1229,5.1229,5.1229,5.1229,5.1229,5.1229,5.1229,5.1229,5.1229,5.1229,5.1229,5.1229,5.1229,5.1229,5.1229,5.1229,5.1229,5.1229,5.1229,5.1229,5.1229,5.0601,4.9912,4.9434,4.876,4.7908,4.7519,4.7309,4.7624,4.9287,5.0816,5.1044,5.1212,5.0862,5.0118,4.939,4.9069,4.9018,4.9018,4.9018,4.9018,4.9018,4.9018,4.9018,4.9018,4.9018,4.9018,4.9018,4.9018,4.9018,4.9018,4.9018,4.9018,4.9018,4.9018,4.9018,4.9018,4.9018,4.9018,4.9018,4.9018,4.9018,4.9018,4.9018,4.8934,4.8646,4.8257,4.7851,4.6938,4.621,4.5669,4.5128,4.4733,4.4615,4.4598,4.4598,4.4598,4.4598,4.4598,4.4598,4.4598,4.4547,4.453,4.4479,4.4429,4.4395,4.435,4.4401,4.4293,4.4378,4.4496,4.4581,4.4564,4.4564,4.4598,4.4598,4.4598,4.4598,4.4598,4.4598,4.4615,4.4649,4.4919,5.3817,5.3129,5.2471,5.1828,5.1274,5.1229,5.1229,5.1229,5.1229,5.1229,5.1229,5.1229,5.1229,5.1229,5.1229,5.1229,5.1229,5.1229,5.1229,5.1229,5.1229,5.1229,5.1229,5.1229,5.1229,5.1229,5.1229,5.1229,5.1229,5.1229,5.1229,5.1229,5.1229,5.0676,4.9718,4.9299,4.876,4.7788,4.7444,4.7495,4.7849,4.9456,5.0855,5.153,5.1459,5.071,4.9949,4.9323,4.9018,4.9018,4.9018,4.9018,4.9018,4.9018,4.9018,4.9018,4.9018,4.9018,4.9018,4.9018,4.9018,4.9018,4.9018,4.9018,4.9018,4.9018,4.9018,4.9018,4.9018,4.9018,4.9018,4.9018,4.9018,4.9018,4.9018,4.9018,4.9018,4.9001,4.8663,4.8176,4.7513,4.6836,4.6075,4.5432,4.4976,4.4632,4.4615,4.4598,4.4598,4.4598,4.4598,4.4598,4.4598,4.4598,4.4598,4.4598,4.4598,4.4598,4.4598,4.4598,4.4598,4.4598,4.4598,4.4598,4.4598,4.4598,4.4598,4.4598,4.4598,4.4598,4.4598,4.4598,4.4649,4.4699,4.5094,5.3803,5.3114,5.2471,5.1813,5.1274,5.1229,5.1229,5.1229,5.1229,5.1229,5.1229,5.1229,5.1229,5.1229,5.1229,5.1229,5.1229,5.1229,5.1229,5.1229,5.1229,5.1229,5.1229,5.1229,5.1229,5.1229,5.1229,5.1229,5.1229,5.1229,5.1229,5.1229,5.1229,5.0735,5.0002,4.9538,4.8865,4.7938,4.7562,4.7624,4.8584,4.9789,5.0904,5.1579,5.1437,5.0642,4.961,4.9154,4.9018,4.9018,4.9018,4.9018,4.9018,4.9018,4.9018,4.9018,4.9018,4.9018,4.9018,4.9018,4.9018,4.9018,4.9018,4.9018,4.9018,4.9018,4.9018,4.9018,4.9018,4.9018,4.9018,4.9018,4.9018,4.9018,4.9018,4.9018,4.9018,4.8984,4.8968,4.8646,4.8054,4.7361,4.6515,4.572,4.5162,4.4756,4.4598,4.4598,4.4598,4.4598,4.4598,4.4598,4.4598,4.4598,4.4598,4.4598,4.4598,4.4598,4.4598,4.4598,4.4598,4.4598,4.4598,4.4598,4.4598,4.4598,4.4598,4.4598,4.4598,4.4598,4.4598,4.4598,4.4835,4.5089,4.55,5.3608,5.265,5.2321,5.1828,5.1289,5.1229,5.1229,5.1229,5.1229,5.1229,5.1229,5.1229,5.1229,5.1229,5.1229,5.1229,5.1244,5.1229,5.1229,5.1229,5.1229,5.1229,5.1244,5.1244,5.1229,5.1229,5.1229,5.1229,5.1229,5.1229,5.1229,5.1229,5.1214,5.0735,4.9912,4.9449,4.876,4.7982,4.7532,4.7807,4.8907,5.0304,5.1498,5.2,5.1606,5.0862,5.027,4.9255,4.9035,4.9018,4.9018,4.9018,4.9018,4.9018,4.9018,4.9018,4.9018,4.9018,4.9018,4.9018,4.9018,4.9018,4.9018,4.9018,4.9018,4.9018,4.9018,4.9018,4.9018,4.9018,4.9018,4.9018,4.9018,4.9018,4.9018,4.9018,4.9018,4.9018,4.9018,4.8951,4.8308,4.7564,4.6819,4.6058,4.5382,4.4959,4.4682,4.4615,4.4615,4.4598,4.4598,4.4598,4.4598,4.4598,4.4598,4.4598,4.4598,4.4598,4.4598,4.4598,4.4598,4.4598,4.4598,4.4598,4.4598,4.4598,4.4598,4.4598,4.4598,4.4598,4.4598,4.4699,4.5094,4.55,4.5957,5.3369,5.2381,5.2112,5.1708,5.1274,5.1229,5.1229,5.1229,5.1229,5.1229,5.1229,5.1229,5.1229,5.1229,5.1244,5.1274,5.1364,5.1334,5.1304,5.1483,5.1483,5.1454,5.1424,5.1394,5.1394,5.1229,5.1229,5.1229,5.1229,5.1229,5.1229,5.1229,5.1214,5.0676,4.9763,4.9449,4.8521,4.7863,4.7382,4.7876,4.9296,5.1117,5.2476,5.3129,5.2063,5.1354,5.0947,4.9949,4.939,4.9255,4.9137,4.9018,4.9018,4.9018,4.9018,4.9018,4.9018,4.9018,4.9018,4.9018,4.9018,4.9018,4.9018,4.9018,4.9018,4.9018,4.9018,4.9018,4.9018,4.9018,4.9018,4.9018,4.9018,4.9018,4.9018,4.9018,4.9018,4.9018,4.9018,4.8798,4.8359,4.7885,4.7259,4.6887,4.6295,4.5399,4.5077,4.4767,4.475,4.4615,4.4598,4.4598,4.4598,4.4598,4.4598,4.4598,4.4598,4.4598,4.4598,4.4598,4.4598,4.4598,4.4632,4.4699,4.4598,4.4598,4.4598,4.4615,4.4598,4.4598,4.4598,4.4852,4.5297,4.5889,4.6447,5.3219,5.295,5.1813,5.1304,5.1229,5.1229,5.1229,5.1229,5.1229,5.1229,5.1229,5.1229,5.1229,5.1229,5.1229,5.1543,5.1708,5.1483,5.1498,5.1872,5.1902,5.1902,5.2022,5.2082,5.1588,5.1304,5.1229,5.1229,5.1229,5.1229,5.1229,5.1229,5.1169,5.0779,5.0047,4.9554,4.8895,4.8177,4.7637,4.8324,5.0126,5.2134,5.2808,5.2622,5.2249,5.186,5.1286,5.0456,4.9965,4.9813,4.9323,4.9052,4.9018,4.9018,4.9018,4.9018,4.9018,4.9018,4.9018,4.9018,4.9018,4.9018,4.9018,4.9018,4.9018,4.9018,4.9018,4.9018,4.9018,4.9018,4.9018,4.9018,4.9018,4.9018,4.9018,4.9018,4.9018,4.9018,4.9018,4.9001,4.868,4.8376,4.7919,4.7614,4.7196,4.6295,4.55,4.5196,4.4942,4.4908,4.5055,4.5173,4.475,4.4666,4.4767,4.475,4.4615,4.4598,4.4615,4.4649,4.4807,4.4874,4.4818,4.4852,4.4818,4.4902,4.5072,4.5021,4.4733,4.4835,4.5156,4.5348,4.5568,4.621,4.6972,5.2396,5.2052,5.1843,5.1558,5.1244,5.1229,5.1229,5.1229,5.1229,5.1229,5.1229,5.1229,5.1229,5.1244,5.1229,5.1364,5.1543,5.1349,5.1588,5.1977,5.1932,5.1887,5.2007,5.1828,5.1409,5.1334,5.1229,5.1229,5.1229,5.1229,5.1229,5.1229,5.1184,5.0838,5.0255,4.9598,4.8985,4.8632,4.8791,4.9503,5.0719,5.2277,5.3331,5.2976,5.2553,5.2164,5.1758,5.1133,5.049,5.0202,4.9712,4.9407,4.912,4.9018,4.9018,4.9018,4.9018,4.9018,4.9018,4.9018,4.9018,4.9018,4.9018,4.9018,4.9018,4.9018,4.9018,4.9018,4.9018,4.9018,4.9018,4.9018,4.9018,4.9018,4.9018,4.9018,4.9018,4.9018,4.9018,4.9018,4.8984,4.8697,4.8392,4.8058,4.7631,4.6836,4.6295,4.6126,4.5821,4.5602,4.5771,4.5991,4.5382,4.4784,4.4891,4.4976,4.4699,4.4632,4.4649,4.4773,4.5196,4.528,4.5314,4.5602,4.5923,4.5923,4.5754,4.5551,4.5382,4.5585,4.5838,4.6126,4.643,4.6972,4.7699,5.2067,5.1513,5.1828,5.1663,5.1229,5.1229,5.1229,5.1229,5.1229,5.1229,5.1229,5.1229,5.1289,5.1379,5.1349,5.1349,5.1483,5.1304,5.1648,5.1843,5.1947,5.1977,5.2097,5.1813,5.1618,5.1229,5.1229,5.1229,5.1229,5.1229,5.1229,5.1229,5.1229,5.0975,5.0466,4.9928,4.9389,4.9326,5.0081,5.0726,5.141,5.2657,5.3331,5.3315,5.2976,5.2604,5.2486,5.1877,5.115,5.0541,5.0118,4.9695,4.9154,4.9018,4.9018,4.9018,4.9018,4.9018,4.9018,4.9018,4.9018,4.9018,4.9018,4.9018,4.9018,4.9018,4.9018,4.9018,4.9018,4.9018,4.9018,4.9018,4.9018,4.9018,4.9018,4.9018,4.9018,4.9018,4.9018,4.9018,4.9018,4.9018,4.8731,4.8413,4.7953,4.731,4.7039,4.7005,4.6684,4.6312,4.6346,4.6549,4.6143,4.5444,4.5246,4.5229,4.4936,4.4818,4.4835,4.501,4.55,4.5889,4.6092,4.6464,4.6887,4.6887,4.6667,4.638,4.6109,4.621,4.6413,4.7005,4.7445,4.7902,4.824,5.274,5.2082,5.1543,5.1304,5.1229,5.1229,5.1229,5.1229,5.1229,5.1229,5.1229,5.1244,5.1528,5.1813,5.1573,5.1588,5.2037,5.1483,5.1753,5.2261,5.268,5.2486,5.2396,5.2291,5.2187,5.1379,5.1229,5.1229,5.1229,5.1229,5.1229,5.1229,5.1229,5.1199,5.0838,5.0316,5.0214,5.0343,5.1046,5.1791,5.2425,5.3218,5.3535,5.3518,5.345,5.3416,5.3365,5.2638,5.1894,5.115,5.0557,4.9915,4.9373,4.9069,4.9018,4.9018,4.9018,4.9018,4.9018,4.9018,4.9018,4.9018,4.9018,4.9018,4.9018,4.9018,4.9018,4.9018,4.9018,4.9018,4.9018,4.9018,4.9018,4.9018,4.9018,4.9018,4.9018,4.9018,4.9018,4.9018,4.9018,4.9018,4.9001,4.8714,4.8545,4.7936,4.7817,4.7767,4.7327,4.6989,4.6921,4.6921,4.6769,4.6312,4.5821,4.5652,4.5551,4.5483,4.5466,4.5635,4.5923,4.6295,4.6819,4.709,4.7428,4.7513,4.7581,4.7344,4.709,4.6836,4.7022,4.7648,4.8054,4.8376,4.8629,5.2052,5.2157,5.1917,5.1588,5.1229,5.1229,5.1229,5.1229,5.1229,5.1229,5.1229,5.1244,5.1364,5.1558,5.1872,5.1693,5.1738,5.2321,5.2247,5.2232,5.2396,5.2396,5.2247,5.1992,5.1633,5.1304,5.1229,5.1229,5.1229,5.1229,5.1229,5.1229,5.1308,5.1214,5.1005,5.0785,5.0695,5.1126,5.1722,5.2427,5.2959,5.3759,5.3957,5.3518,5.3518,5.3518,5.345,5.3213,5.2604,5.1894,5.115,5.0405,4.9661,4.9289,4.9069,4.9018,4.9018,4.9018,4.9018,4.9018,4.9018,4.9018,4.9018,4.9018,4.9018,4.9018,4.9018,4.9018,4.9018,4.9018,4.9018,4.9018,4.9018,4.9018,4.9018,4.9018,4.9018,4.9018,4.9018,4.9018,4.9018,4.9018,4.9018,4.8984,4.8832,4.8629,4.8578,4.8443,4.8003,4.7716,4.7648,4.7547,4.7411,4.7242,4.6786,4.6515,4.6278,4.6177,4.6109,4.6397,4.665,4.7107,4.7581,4.78,4.802,4.8206,4.8308,4.8274,4.8105,4.7851,4.797,4.8359,4.8663,4.8815,4.89,5.1783,5.2217,5.2411,5.2232,5.1828,5.1798,5.1693,5.1513,5.1528,5.1379,5.1229,5.1229,5.1229,5.1364,5.1603,5.1663,5.1543,5.1962,5.2112,5.2112,5.2082,5.2052,5.1858,5.1723,5.1618,5.1319,5.1229,5.1229,5.1229,5.1229,5.1479,5.1681,5.1712,5.1758,5.1667,5.1319,5.1296,5.205,5.2406,5.325,5.3801,5.4236,5.4194,5.3619,5.3518,5.3518,5.3518,5.3365,5.301,5.2367,5.1725,5.1031,5.0287,4.9644,4.9255,4.9086,4.9018,4.9018,4.9018,4.9018,4.9018,4.9018,4.9018,4.9018,4.9018,4.9018,4.9018,4.9018,4.9018,4.9018,4.9018,4.9018,4.9018,4.9018,4.9018,4.9018,4.9018,4.9018,4.9018,4.9018,4.9018,4.9018,4.9018,4.9018,4.8951,4.8849,4.8815,4.8781,4.8663,4.8443,4.8426,4.8291,4.8156,4.797,4.7784,4.7394,4.7005,4.665,4.6718,4.7208,4.7547,4.7922,4.824,4.8443,4.8663,4.8934,4.8883,4.8663,4.8765,4.8883,4.8883,4.8781,4.8832,4.8934,4.8951,5.2142,5.2276,5.286,5.3114,5.3054,5.3114,5.271,5.2097,5.2022,5.1708,5.1259,5.1229,5.1229,5.1259,5.1439,5.1424,5.1349,5.1498,5.1528,5.1558,5.1947,5.1798,5.1663,5.1588,5.1573,5.1304,5.1229,5.1229,5.1229,5.1479,5.1941,5.2604,5.2885,5.3017,5.2885,5.2796,5.3377,5.423,5.3814,5.4254,5.4926,5.492,5.4397,5.3687,5.3518,5.3518,5.3518,5.3518,5.3162,5.2621,5.2283,5.1539,5.0574,5.0118,4.9678,4.9187,4.9052,4.9018,4.9018,4.9018,4.9018,4.9018,4.9018,4.9018,4.9018,4.9018,4.9018,4.9018,4.9018,4.9018,4.9018,4.9018,4.9018,4.9018,4.9018,4.9018,4.9018,4.9018,4.9018,4.9018,4.9018,4.9018,4.9018,4.9018,4.9018,4.8984,4.9001,4.9001,4.8984,4.8951,4.8832,4.8765,4.8595,4.8477,4.8257,4.8071,4.7733,4.7344,4.7361,4.7851,4.8189,4.8426,4.8714,4.8984,4.9018,4.9018,4.9018,4.8968,4.9018,4.9018,4.9018,4.8951,4.9001,4.9018,4.9018,5.1798,5.2261,5.2905,5.3443,5.3773,5.3354,5.2815,5.2202,5.1753,5.1424,5.1274,5.1229,5.1229,5.1319,5.1573,5.1588,5.1379,5.2306,5.2306,5.1334,5.1858,5.1693,5.1498,5.1409,5.1454,5.1289,5.1229,5.1229,5.1229,5.1773,5.235,5.3017,5.4305,5.4598,5.3983,5.3613,5.3683,5.5101,5.4875,5.4707,5.5551,5.5395,5.4752,5.3619,5.3518,5.3518,5.3518,5.3518,5.3298,5.2959,5.2706,5.2029,5.1251,5.0845,4.9999,4.9593,4.939,4.9018,4.9018,4.9018,4.9018,4.9018,4.9018,4.9018,4.9018,4.9018,4.9018,4.9018,4.9018,4.9018,4.9018,4.9018,4.9018,4.9018,4.9018,4.9018,4.9018,4.9018,4.9018,4.9018,4.9018,4.9018,4.9018,4.9018,4.9018,4.9018,4.9018,4.9018,4.9001,4.9001,4.8951,4.8951,4.8866,4.8815,4.8697,4.8494,4.8443,4.8206,4.824,4.8562,4.8815,4.8849,4.89,4.9001,4.9018,4.9018,4.9018,4.9018,4.9018,4.9018,4.9018,4.9018,4.9018,4.9018,4.9018,5.1468,5.1917,5.2561,5.3084,5.3518,5.3758,5.3384,5.2486,5.1633,5.1229,5.1229,5.1229,5.1229,5.1349,5.1573,5.1723,5.1334,5.1977,5.2306,5.1304,5.1603,5.1513,5.1319,5.1229,5.1274,5.1229,5.1229,5.1229,5.1261,5.2365,5.3352,5.4473,5.5794,5.6181,5.5651,5.5109,5.4764,5.5738,5.5478,5.5308,5.566,5.548,5.4955,5.394,5.3518,5.3518,5.3518,5.3518,5.3501,5.3315,5.3027,5.2553,5.2029,5.1285,5.0405,5.0016,4.9458,4.9069,4.9018,4.9018,4.9018,4.9018,4.9018,4.9018,4.9018,4.9018,4.9018,4.9018,4.9018,4.9018,4.9018,4.9018,4.9018,4.9018,4.9018,4.9018,4.9018,4.9018,4.9018,4.9018,4.9018,4.9018,4.9018,4.9018,4.9018,4.9018,4.9018,4.9018,4.9018,4.9018,4.9018,4.9018,4.9018,4.8934,4.8917,4.8883,4.8883,4.8984,4.9001,4.9001,4.8984,4.8934,4.8984,4.9018,4.9018,4.9018,4.9018,4.9018,4.9018,4.9018,4.9018,4.9018,4.9018,4.9018,4.9018,5.1229,5.1319,5.1932,5.2232,5.2546,5.4042,5.4132,5.2995,5.1753,5.1229,5.1229,5.1229,5.1229,5.1229,5.1259,5.1259,5.1197,5.1364,5.1334,5.1274,5.1364,5.1259,5.1259,5.1229,5.1229,5.1229,5.1229,5.1229,5.1339,5.2694,5.4195,5.5873,5.7055,5.7351,5.7017,5.6603,5.6204,5.6398,5.6122,5.5866,5.5755,5.5631,5.4871,5.3991,5.3518,5.3518,5.3518,5.3518,5.3518,5.3467,5.3433,5.2993,5.2401,5.164,5.0879,5.0084,4.9306,4.9103,4.9018,4.9018,4.9018,4.9018,4.9018,4.9018,4.9018,4.9018,4.9018,4.9018,4.9018,4.9018,4.9018,4.9018,4.9018,4.9018,4.9018,4.9018,4.9018,4.9018,4.9018,4.9018,4.9018,4.9018,4.9018,4.9018,4.9018,4.9018,4.9018,4.9018,4.9018,4.9018,4.9018,4.9018,4.9018,4.9018,4.9018,4.9018,4.9018,4.9018,4.9018,4.9001,4.9001,4.9018,4.9018,4.9018,4.9018,4.9018,4.9018,4.9018,4.9018,4.9018,4.9018,4.9018,4.9018,4.9018,4.9052,5.1229,5.1289,5.1917,5.2187,5.2276,5.283,5.2815,5.2366,5.1558,5.1229,5.1229,5.1229,5.1229,5.1229,5.1229,5.1229,5.1229,5.1229,5.1244,5.1229,5.1229,5.1229,5.1229,5.1229,5.1229,5.1229,5.1229,5.1308,5.1727,5.2989,5.5231,5.7185,5.7681,5.7881,5.7792,5.7554,5.7372,5.7114,5.6663,5.617,5.5823,5.5681,5.4769,5.394,5.3518,5.3518,5.3518,5.3518,5.3518,5.3518,5.3518,5.3281,5.3196,5.1944,5.076,4.9475,4.9086,4.9018,4.9018,4.9018,4.9018,4.9018,4.9018,4.9018,4.9018,4.9018,4.9018,4.9018,4.9018,4.9018,4.9018,4.9018,4.9018,4.9018,4.9018,4.9018,4.9018,4.9018,4.9018,4.9018,4.9018,4.9018,4.9018,4.9018,4.9018,4.9018,4.9018,4.9018,4.9018,4.9018,4.9018,4.9018,4.9018,4.9018,4.9018,4.9018,4.9018,4.9018,4.9018,4.9018,4.9018,4.9018,4.9018,4.9018,4.9018,4.9018,4.9018,4.9018,4.9018,4.9018,4.9018,4.9018,4.9018,4.9137,4.939,5.1229,5.1274,5.1633,5.1813,5.1813,5.1813,5.1813,5.1738,5.1332,5.1229,5.1229,5.1229,5.1229,5.1229,5.1229,5.1229,5.1229,5.1229,5.1229,5.1229,5.1229,5.1229,5.1229,5.1229,5.1229,5.1229,5.1308,5.1464,5.2305,5.4094,5.626,5.7628,5.7881,5.7881,5.7881,5.7792,5.7845,5.7628,5.7224,5.6466,5.6008,5.5666,5.4786,5.3839,5.3534,5.3518,5.3518,5.3518,5.3518,5.3518,5.3518,5.3501,5.3247,5.2046,5.0557,4.939,4.9035,4.9018,4.9018,4.9018,4.9018,4.9018,4.9018,4.9018,4.9018,4.9018,4.9018,4.9018,4.9018,4.9018,4.9018,4.9018,4.9018,4.9018,4.9018,4.9018,4.9018,4.9018,4.9018,4.9018,4.9018,4.9018,4.9018,4.9018,4.9018,4.9018,4.9018,4.9018,4.9018,4.9018,4.9018,4.9018,4.9018,4.9018,4.9018,4.9018,4.9018,4.9018,4.9018,4.9018,4.9018,4.9018,4.9018,4.9018,4.9018,4.9018,4.9018,4.9018,4.9018,4.9018,4.9086,4.9238,4.9373,4.9576,4.9915,5.1229,5.1229,5.1229,5.1274,5.1229,5.1259,5.1259,5.1229,5.1229,5.1229,5.1229,5.1229,5.1229,5.1229,5.1229,5.1229,5.1229,5.1229,5.1229,5.1229,5.1229,5.1229,5.1229,5.1229,5.1229,5.1229,5.1603,5.2305,5.3554,5.5052,5.6531,5.7828,5.7881,5.7881,5.7881,5.7881,5.7881,5.7828,5.7586,5.708,5.6016,5.553,5.5057,5.3805,5.3518,5.3518,5.3518,5.3518,5.3518,5.3518,5.3518,5.3518,5.2841,5.2029,5.0557,4.9627,4.9154,4.9018,4.9018,4.9018,4.9018,4.9018,4.9018,4.9018,4.9018,4.9018,4.9018,4.9018,4.9018,4.9018,4.9018,4.9018,4.9018,4.9018,4.9018,4.9018,4.9018,4.9018,4.9018,4.9018,4.9018,4.9018,4.9018,4.9018,4.9018,4.9018,4.9018,4.9018,4.9018,4.9018,4.9018,4.9018,4.9018,4.9018,4.9018,4.9018,4.9018,4.9018,4.9018,4.9018,4.9018,4.9018,4.9018,4.9018,4.9018,4.9018,4.9018,4.9018,4.9018,4.9018,4.9154,4.9458,4.9712,5.005,5.0557,5.1229,5.1229,5.1229,5.1229,5.1229,5.1229,5.1229,5.1229,5.1229,5.1229,5.1229,5.1229,5.1229,5.1229,5.1229,5.1229,5.1229,5.1229,5.1229,5.1229,5.1229,5.1229,5.1229,5.1229,5.1261,5.1511,5.2124,5.351,5.4913,5.5991,5.6778,5.7755,5.7881,5.7881,5.7881,5.7881,5.7881,5.7881,5.7662,5.707,5.5936,5.553,5.5057,5.4008,5.3518,5.3518,5.3518,5.3518,5.3518,5.3518,5.3518,5.3196,5.257,5.1691,5.0811,4.9949,4.9255,4.9069,4.9018,4.9018,4.9018,4.9018,4.9018,4.9018,4.9018,4.9018,4.9018,4.9018,4.9018,4.9018,4.9018,4.9018,4.9018,4.9018,4.9018,4.9018,4.9018,4.9018,4.9018,4.9018,4.9018,4.9018,4.9018,4.9018,4.9018,4.9018,4.9018,4.9018,4.9018,4.9018,4.9018,4.9018,4.9018,4.9018,4.9018,4.9018,4.9018,4.9018,4.9018,4.9018,4.9018,4.9018,4.9018,4.9018,4.9018,4.9018,4.9018,4.9018,4.9018,4.9018,4.9171,4.9458,5.027,5.0744,5.1302,5.1229,5.1229,5.1229,5.1229,5.1229,5.1229,5.1229,5.1229,5.1229,5.1229,5.1229,5.1229,5.1229,5.1229,5.1229,5.1229,5.1229,5.1229,5.1229,5.1229,5.1229,5.1229,5.1229,5.1261,5.1727,5.2109,5.3683,5.5174,5.6188,5.687,5.7463,5.7828,5.7881,5.7881,5.7881,5.7881,5.7881,5.7865,5.7645,5.685,5.5835,5.5529,5.5192,5.4262,5.3721,5.3602,5.3518,5.3518,5.3518,5.3518,5.3518,5.2756,5.2114,5.1437,5.0642,4.9813,4.9204,4.9018,4.9018,4.9018,4.9018,4.9018,4.9018,4.9018,4.9018,4.9018,4.9018,4.9018,4.9018,4.9018,4.9018,4.9018,4.9018,4.9018,4.9018,4.9018,4.9018,4.9018,4.9018,4.9018,4.9018,4.9018,4.9018,4.9018,4.9018,4.9018,4.9018,4.9018,4.9018,4.9018,4.9018,4.9018,4.9018,4.9018,4.9018,4.9018,4.9018,4.9018,4.9018,4.9018,4.9018,4.9018,4.9018,4.9018,4.9018,4.9018,4.9018,4.9018,4.9018,4.9018,4.9204,4.9458,5.0388,5.1302,5.1809,5.1229,5.1229,5.1229,5.1229,5.1229,5.1229,5.1229,5.1229,5.1229,5.1229,5.1229,5.1229,5.1229,5.1229,5.1229,5.1229,5.1229,5.1229,5.1229,5.1229,5.1229,5.1229,5.1308,5.1464,5.2395,5.3597,5.5093,5.5873,5.6608,5.726,5.7718,5.7881,5.7881,5.7881,5.7881,5.7881,5.7881,5.7763,5.7425,5.6714,5.6122,5.558,5.5006,5.4397,5.3907,5.3551,5.3518,5.3518,5.3518,5.3518,5.345,5.2756,5.1978,5.1369,5.0507,4.9729,4.9171,4.9035,4.9018,4.9018,4.9018,4.9018,4.9018,4.9018,4.9018,4.9018,4.9018,4.9018,4.9018,4.9018,4.9018,4.9018,4.9018,4.9018,4.9018,4.9018,4.9018,4.9018,4.9018,4.9018,4.9018,4.9018,4.9018,4.9018,4.9018,4.9018,4.9018,4.9018,4.9018,4.9018,4.9018,4.9018,4.9018,4.9018,4.9018,4.9018,4.9018,4.9018,4.9018,4.9018,4.9018,4.9018,4.9018,4.9018,4.9018,4.9018,4.9018,4.9018,4.9018,4.9018,4.912,4.9441,5.0541,5.142,5.2097,5.1229,5.1229,5.1229,5.1229,5.1229,5.1229,5.1229,5.1229,5.1229,5.1229,5.1229,5.1229,5.1229,5.1229,5.1229,5.1229,5.1229,5.1229,5.1229,5.1229,5.1229,5.1229,5.1511,5.223,5.3753,5.4954,5.5952,5.6624,5.7114,5.7628,5.7881,5.7881,5.7881,5.7881,5.7881,5.7881,5.7865,5.7746,5.7526,5.6968,5.6224,5.5497,5.4431,5.3923,5.3585,5.3518,5.3518,5.3518,5.3518,5.3518,5.3433,5.2858,5.2131,5.1403,5.0608,4.9763,4.9204,4.9052,4.9018,4.9018,4.9018,4.9018,4.9018,4.9018,4.9018,4.9018,4.9018,4.9018,4.9018,4.9018,4.9018,4.9018,4.9018,4.9018,4.9018,4.9018,4.9018,4.9018,4.9018,4.9018,4.9018,4.9018,4.9018,4.9018,4.9018,4.9018,4.9018,4.9018,4.9018,4.9018,4.9018,4.9018,4.9018,4.9018,4.9018,4.9018,4.9018,4.9018,4.9018,4.9018,4.9018,4.9018,4.9018,4.9018,4.9018,4.9018,4.9018,4.9018,4.9018,4.9018,4.9018,4.9407,5.0574,5.1454,5.2046]}]]